<?xml version="1.0" encoding="UTF-8" standalone="no" ?>
<gpx xmlns="http://www.topografix.com/GPX/1/1" xmlns:xsi="http://www.w3.org/2001/XMLSchema-instance" xsi:schemaLocation="http://www.topografix.com/GPX/1/1 http://www.topografix.com/GPX/1/1/gpx.xsd" version="1.1" creator="VisuGPX - https://www.visugpx.com">
  <metadata>
    <name>Rade de Lorient</name>
  </metadata>
  <trk>
    <name><![CDATA[Rade de Lorient_1]]></name>
    <trkseg>
      <trkpt lat="47.7361" lon="-3.3713">
        <ele>53</ele>
        <time>2022-04-11T13:40:16Z</time>
      </trkpt>
      <trkpt lat="47.73607" lon="-3.37124">
        <ele>43.2</ele>
        <time>2022-04-11T13:41:17Z</time>
      </trkpt>
      <trkpt lat="47.73603" lon="-3.37116">
        <ele>38.5</ele>
        <time>2022-04-11T13:41:20Z</time>
      </trkpt>
      <trkpt lat="47.73602" lon="-3.37109">
        <ele>35.2</ele>
        <time>2022-04-11T13:41:23Z</time>
      </trkpt>
      <trkpt lat="47.73605" lon="-3.371">
        <ele>30.1</ele>
        <time>2022-04-11T13:41:26Z</time>
      </trkpt>
      <trkpt lat="47.73608" lon="-3.37092">
        <ele>27</ele>
        <time>2022-04-11T13:41:28Z</time>
      </trkpt>
      <trkpt lat="47.7361" lon="-3.37083">
        <ele>23.6</ele>
        <time>2022-04-11T13:41:30Z</time>
      </trkpt>
      <trkpt lat="47.73611" lon="-3.3707">
        <ele>21.5</ele>
        <time>2022-04-11T13:41:32Z</time>
      </trkpt>
      <trkpt lat="47.73612" lon="-3.37058">
        <ele>18.5</ele>
        <time>2022-04-11T13:41:34Z</time>
      </trkpt>
      <trkpt lat="47.73612" lon="-3.37044">
        <ele>16.7</ele>
        <time>2022-04-11T13:41:36Z</time>
      </trkpt>
      <trkpt lat="47.73612" lon="-3.37036">
        <ele>16.1</ele>
        <time>2022-04-11T13:41:37Z</time>
      </trkpt>
      <trkpt lat="47.73612" lon="-3.37027">
        <ele>14.1</ele>
        <time>2022-04-11T13:41:38Z</time>
      </trkpt>
      <trkpt lat="47.73611" lon="-3.37019">
        <ele>13.1</ele>
        <time>2022-04-11T13:41:39Z</time>
      </trkpt>
      <trkpt lat="47.7361" lon="-3.37011">
        <ele>11.9</ele>
        <time>2022-04-11T13:41:40Z</time>
      </trkpt>
      <trkpt lat="47.7361" lon="-3.37005">
        <ele>10.3</ele>
        <time>2022-04-11T13:41:41Z</time>
      </trkpt>
      <trkpt lat="47.73611" lon="-3.36991">
        <ele>10.3</ele>
        <time>2022-04-11T13:41:43Z</time>
      </trkpt>
      <trkpt lat="47.73612" lon="-3.36983">
        <ele>10.1</ele>
        <time>2022-04-11T13:41:44Z</time>
      </trkpt>
      <trkpt lat="47.73613" lon="-3.36974">
        <ele>11.7</ele>
        <time>2022-04-11T13:41:45Z</time>
      </trkpt>
      <trkpt lat="47.73614" lon="-3.36965">
        <ele>11.8</ele>
        <time>2022-04-11T13:41:46Z</time>
      </trkpt>
      <trkpt lat="47.73615" lon="-3.36956">
        <ele>11.7</ele>
        <time>2022-04-11T13:41:47Z</time>
      </trkpt>
      <trkpt lat="47.73616" lon="-3.36948">
        <ele>12</ele>
        <time>2022-04-11T13:41:48Z</time>
      </trkpt>
      <trkpt lat="47.73616" lon="-3.3694">
        <ele>12.5</ele>
        <time>2022-04-11T13:41:49Z</time>
      </trkpt>
      <trkpt lat="47.73616" lon="-3.36933">
        <ele>13.1</ele>
        <time>2022-04-11T13:41:50Z</time>
      </trkpt>
      <trkpt lat="47.73616" lon="-3.36926">
        <ele>13</ele>
        <time>2022-04-11T13:41:51Z</time>
      </trkpt>
      <trkpt lat="47.73616" lon="-3.36919">
        <ele>12.8</ele>
        <time>2022-04-11T13:41:52Z</time>
      </trkpt>
      <trkpt lat="47.73615" lon="-3.36911">
        <ele>12.8</ele>
        <time>2022-04-11T13:41:53Z</time>
      </trkpt>
      <trkpt lat="47.73615" lon="-3.36904">
        <ele>12.6</ele>
        <time>2022-04-11T13:41:54Z</time>
      </trkpt>
      <trkpt lat="47.73613" lon="-3.36891">
        <ele>12.7</ele>
        <time>2022-04-11T13:41:56Z</time>
      </trkpt>
      <trkpt lat="47.73613" lon="-3.36883">
        <ele>13.4</ele>
        <time>2022-04-11T13:41:57Z</time>
      </trkpt>
      <trkpt lat="47.73612" lon="-3.36875">
        <ele>13.4</ele>
        <time>2022-04-11T13:41:58Z</time>
      </trkpt>
      <trkpt lat="47.73613" lon="-3.36868">
        <ele>13</ele>
        <time>2022-04-11T13:41:59Z</time>
      </trkpt>
      <trkpt lat="47.73613" lon="-3.3686">
        <ele>12.8</ele>
        <time>2022-04-11T13:42:00Z</time>
      </trkpt>
      <trkpt lat="47.73613" lon="-3.36853">
        <ele>13.2</ele>
        <time>2022-04-11T13:42:01Z</time>
      </trkpt>
      <trkpt lat="47.73613" lon="-3.36846">
        <ele>13.3</ele>
        <time>2022-04-11T13:42:02Z</time>
      </trkpt>
      <trkpt lat="47.73613" lon="-3.36839">
        <ele>14</ele>
        <time>2022-04-11T13:42:03Z</time>
      </trkpt>
      <trkpt lat="47.73613" lon="-3.36826">
        <ele>14.1</ele>
        <time>2022-04-11T13:42:05Z</time>
      </trkpt>
      <trkpt lat="47.73613" lon="-3.36815">
        <ele>13.3</ele>
        <time>2022-04-11T13:42:07Z</time>
      </trkpt>
      <trkpt lat="47.73613" lon="-3.36804">
        <ele>13</ele>
        <time>2022-04-11T13:42:09Z</time>
      </trkpt>
      <trkpt lat="47.73614" lon="-3.36791">
        <ele>13.3</ele>
        <time>2022-04-11T13:42:11Z</time>
      </trkpt>
      <trkpt lat="47.73615" lon="-3.36779">
        <ele>13.8</ele>
        <time>2022-04-11T13:42:13Z</time>
      </trkpt>
      <trkpt lat="47.73617" lon="-3.36766">
        <ele>13.8</ele>
        <time>2022-04-11T13:42:15Z</time>
      </trkpt>
      <trkpt lat="47.73617" lon="-3.36759">
        <ele>14.2</ele>
        <time>2022-04-11T13:42:16Z</time>
      </trkpt>
      <trkpt lat="47.73618" lon="-3.36751">
        <ele>14.1</ele>
        <time>2022-04-11T13:42:17Z</time>
      </trkpt>
      <trkpt lat="47.73618" lon="-3.36744">
        <ele>13.9</ele>
        <time>2022-04-11T13:42:18Z</time>
      </trkpt>
      <trkpt lat="47.73619" lon="-3.36732">
        <ele>13.8</ele>
        <time>2022-04-11T13:42:20Z</time>
      </trkpt>
      <trkpt lat="47.73619" lon="-3.36719">
        <ele>14.4</ele>
        <time>2022-04-11T13:42:22Z</time>
      </trkpt>
      <trkpt lat="47.73618" lon="-3.36708">
        <ele>15</ele>
        <time>2022-04-11T13:42:24Z</time>
      </trkpt>
      <trkpt lat="47.73619" lon="-3.36696">
        <ele>14.5</ele>
        <time>2022-04-11T13:42:26Z</time>
      </trkpt>
      <trkpt lat="47.73616" lon="-3.36689">
        <ele>14.5</ele>
        <time>2022-04-11T13:42:28Z</time>
      </trkpt>
      <trkpt lat="47.7361" lon="-3.36684">
        <ele>14.4</ele>
        <time>2022-04-11T13:42:30Z</time>
      </trkpt>
      <trkpt lat="47.73603" lon="-3.36679">
        <ele>13.9</ele>
        <time>2022-04-11T13:42:32Z</time>
      </trkpt>
      <trkpt lat="47.73596" lon="-3.36674">
        <ele>13.5</ele>
        <time>2022-04-11T13:42:34Z</time>
      </trkpt>
      <trkpt lat="47.73591" lon="-3.3667">
        <ele>13.2</ele>
        <time>2022-04-11T13:42:36Z</time>
      </trkpt>
      <trkpt lat="47.73586" lon="-3.36666">
        <ele>12.8</ele>
        <time>2022-04-11T13:42:38Z</time>
      </trkpt>
      <trkpt lat="47.7358" lon="-3.36665">
        <ele>12.3</ele>
        <time>2022-04-11T13:42:41Z</time>
      </trkpt>
      <trkpt lat="47.73572" lon="-3.3666">
        <ele>13</ele>
        <time>2022-04-11T13:42:43Z</time>
      </trkpt>
      <trkpt lat="47.73567" lon="-3.36659">
        <ele>12.8</ele>
        <time>2022-04-11T13:42:44Z</time>
      </trkpt>
      <trkpt lat="47.73562" lon="-3.36658">
        <ele>12.1</ele>
        <time>2022-04-11T13:42:45Z</time>
      </trkpt>
      <trkpt lat="47.73554" lon="-3.36659">
        <ele>11.7</ele>
        <time>2022-04-11T13:42:47Z</time>
      </trkpt>
      <trkpt lat="47.73547" lon="-3.36657">
        <ele>11.5</ele>
        <time>2022-04-11T13:42:49Z</time>
      </trkpt>
      <trkpt lat="47.73542" lon="-3.36658">
        <ele>11.5</ele>
        <time>2022-04-11T13:42:51Z</time>
      </trkpt>
      <trkpt lat="47.73537" lon="-3.36662">
        <ele>10.2</ele>
        <time>2022-04-11T13:42:53Z</time>
      </trkpt>
      <trkpt lat="47.73531" lon="-3.36665">
        <ele>10.4</ele>
        <time>2022-04-11T13:42:55Z</time>
      </trkpt>
      <trkpt lat="47.73525" lon="-3.36663">
        <ele>10.9</ele>
        <time>2022-04-11T13:42:57Z</time>
      </trkpt>
      <trkpt lat="47.73525" lon="-3.36655">
        <ele>10.3</ele>
        <time>2022-04-11T13:42:59Z</time>
      </trkpt>
      <trkpt lat="47.73526" lon="-3.36647">
        <ele>9.2</ele>
        <time>2022-04-11T13:43:01Z</time>
      </trkpt>
      <trkpt lat="47.73526" lon="-3.36639">
        <ele>7.8</ele>
        <time>2022-04-11T13:43:03Z</time>
      </trkpt>
      <trkpt lat="47.73525" lon="-3.36632">
        <ele>6.7</ele>
        <time>2022-04-11T13:43:06Z</time>
      </trkpt>
      <trkpt lat="47.73521" lon="-3.36629">
        <ele>5.7</ele>
        <time>2022-04-11T13:43:08Z</time>
      </trkpt>
      <trkpt lat="47.73515" lon="-3.36625">
        <ele>4.9</ele>
        <time>2022-04-11T13:43:10Z</time>
      </trkpt>
      <trkpt lat="47.73509" lon="-3.36626">
        <ele>3.9</ele>
        <time>2022-04-11T13:43:12Z</time>
      </trkpt>
      <trkpt lat="47.73504" lon="-3.36626">
        <ele>1.8</ele>
        <time>2022-04-11T13:43:15Z</time>
      </trkpt>
      <trkpt lat="47.735" lon="-3.36622">
        <ele>-1.5</ele>
        <time>2022-04-11T13:43:18Z</time>
      </trkpt>
      <trkpt lat="47.73495" lon="-3.36615">
        <ele>-7.1</ele>
        <time>2022-04-11T13:43:22Z</time>
      </trkpt>
      <trkpt lat="47.73488" lon="-3.3661">
        <ele>-9.8</ele>
        <time>2022-04-11T13:43:24Z</time>
      </trkpt>
      <trkpt lat="47.73484" lon="-3.36604">
        <ele>-12.9</ele>
        <time>2022-04-11T13:43:26Z</time>
      </trkpt>
      <trkpt lat="47.7348" lon="-3.36599">
        <ele>-15.8</ele>
        <time>2022-04-11T13:43:28Z</time>
      </trkpt>
      <trkpt lat="47.73476" lon="-3.36595">
        <ele>-17.9</ele>
        <time>2022-04-11T13:43:31Z</time>
      </trkpt>
      <trkpt lat="47.73474" lon="-3.36589">
        <ele>-16</ele>
        <time>2022-04-11T13:43:35Z</time>
      </trkpt>
      <trkpt lat="47.73469" lon="-3.36583">
        <ele>-16.3</ele>
        <time>2022-04-11T13:43:37Z</time>
      </trkpt>
      <trkpt lat="47.73463" lon="-3.3658">
        <ele>-12.2</ele>
        <time>2022-04-11T13:43:38Z</time>
      </trkpt>
      <trkpt lat="47.73455" lon="-3.36576">
        <ele>-11.7</ele>
        <time>2022-04-11T13:43:39Z</time>
      </trkpt>
      <trkpt lat="47.73448" lon="-3.36572">
        <ele>-11.6</ele>
        <time>2022-04-11T13:43:40Z</time>
      </trkpt>
      <trkpt lat="47.73441" lon="-3.36569">
        <ele>-10.9</ele>
        <time>2022-04-11T13:43:41Z</time>
      </trkpt>
      <trkpt lat="47.73435" lon="-3.36565">
        <ele>-12.6</ele>
        <time>2022-04-11T13:43:42Z</time>
      </trkpt>
      <trkpt lat="47.7343" lon="-3.36562">
        <ele>-13.2</ele>
        <time>2022-04-11T13:43:43Z</time>
      </trkpt>
      <trkpt lat="47.73423" lon="-3.36559">
        <ele>-13.7</ele>
        <time>2022-04-11T13:43:45Z</time>
      </trkpt>
      <trkpt lat="47.73417" lon="-3.36556">
        <ele>-10.2</ele>
        <time>2022-04-11T13:43:47Z</time>
      </trkpt>
      <trkpt lat="47.7341" lon="-3.36549">
        <ele>-11.6</ele>
        <time>2022-04-11T13:43:48Z</time>
      </trkpt>
      <trkpt lat="47.73403" lon="-3.36539">
        <ele>-12.7</ele>
        <time>2022-04-11T13:43:49Z</time>
      </trkpt>
      <trkpt lat="47.73399" lon="-3.36535">
        <ele>-12.6</ele>
        <time>2022-04-11T13:43:50Z</time>
      </trkpt>
      <trkpt lat="47.7339" lon="-3.3653">
        <ele>-11.3</ele>
        <time>2022-04-11T13:43:52Z</time>
      </trkpt>
      <trkpt lat="47.73385" lon="-3.36527">
        <ele>-10.7</ele>
        <time>2022-04-11T13:43:53Z</time>
      </trkpt>
      <trkpt lat="47.73381" lon="-3.36523">
        <ele>-9.7</ele>
        <time>2022-04-11T13:43:54Z</time>
      </trkpt>
      <trkpt lat="47.73376" lon="-3.36519">
        <ele>-8.3</ele>
        <time>2022-04-11T13:43:55Z</time>
      </trkpt>
      <trkpt lat="47.73371" lon="-3.36514">
        <ele>-8.1</ele>
        <time>2022-04-11T13:43:56Z</time>
      </trkpt>
      <trkpt lat="47.73367" lon="-3.36509">
        <ele>-8.1</ele>
        <time>2022-04-11T13:43:57Z</time>
      </trkpt>
      <trkpt lat="47.73361" lon="-3.36502">
        <ele>-7.8</ele>
        <time>2022-04-11T13:43:59Z</time>
      </trkpt>
      <trkpt lat="47.73357" lon="-3.36497">
        <ele>-9.1</ele>
        <time>2022-04-11T13:44:01Z</time>
      </trkpt>
      <trkpt lat="47.73352" lon="-3.36496">
        <ele>-5.4</ele>
        <time>2022-04-11T13:44:04Z</time>
      </trkpt>
      <trkpt lat="47.73346" lon="-3.36494">
        <ele>1.9</ele>
        <time>2022-04-11T13:44:06Z</time>
      </trkpt>
      <trkpt lat="47.73338" lon="-3.36483">
        <ele>3.8</ele>
        <time>2022-04-11T13:44:07Z</time>
      </trkpt>
      <trkpt lat="47.7333" lon="-3.36474">
        <ele>5.3</ele>
        <time>2022-04-11T13:44:08Z</time>
      </trkpt>
      <trkpt lat="47.73326" lon="-3.36471">
        <ele>5.3</ele>
        <time>2022-04-11T13:44:09Z</time>
      </trkpt>
      <trkpt lat="47.73318" lon="-3.36469">
        <ele>5.5</ele>
        <time>2022-04-11T13:44:11Z</time>
      </trkpt>
      <trkpt lat="47.73312" lon="-3.36463">
        <ele>5.7</ele>
        <time>2022-04-11T13:44:13Z</time>
      </trkpt>
      <trkpt lat="47.73305" lon="-3.36459">
        <ele>7.7</ele>
        <time>2022-04-11T13:44:15Z</time>
      </trkpt>
      <trkpt lat="47.73299" lon="-3.36454">
        <ele>7.9</ele>
        <time>2022-04-11T13:44:17Z</time>
      </trkpt>
      <trkpt lat="47.73294" lon="-3.36453">
        <ele>7.1</ele>
        <time>2022-04-11T13:44:19Z</time>
      </trkpt>
      <trkpt lat="47.73288" lon="-3.3645">
        <ele>4.6</ele>
        <time>2022-04-11T13:44:22Z</time>
      </trkpt>
      <trkpt lat="47.73283" lon="-3.36446">
        <ele>2.1</ele>
        <time>2022-04-11T13:44:24Z</time>
      </trkpt>
      <trkpt lat="47.73278" lon="-3.36444">
        <ele>1.3</ele>
        <time>2022-04-11T13:44:26Z</time>
      </trkpt>
      <trkpt lat="47.73272" lon="-3.3644">
        <ele>0.3</ele>
        <time>2022-04-11T13:44:28Z</time>
      </trkpt>
      <trkpt lat="47.73265" lon="-3.36436">
        <ele>-1.9</ele>
        <time>2022-04-11T13:44:30Z</time>
      </trkpt>
      <trkpt lat="47.73261" lon="-3.36434">
        <ele>-2.7</ele>
        <time>2022-04-11T13:44:31Z</time>
      </trkpt>
      <trkpt lat="47.73256" lon="-3.3643">
        <ele>-3.6</ele>
        <time>2022-04-11T13:44:32Z</time>
      </trkpt>
      <trkpt lat="47.73252" lon="-3.36425">
        <ele>-4.9</ele>
        <time>2022-04-11T13:44:33Z</time>
      </trkpt>
      <trkpt lat="47.73247" lon="-3.36421">
        <ele>-6.4</ele>
        <time>2022-04-11T13:44:34Z</time>
      </trkpt>
      <trkpt lat="47.73244" lon="-3.36417">
        <ele>-8.3</ele>
        <time>2022-04-11T13:44:35Z</time>
      </trkpt>
      <trkpt lat="47.73237" lon="-3.36406">
        <ele>-10.2</ele>
        <time>2022-04-11T13:44:37Z</time>
      </trkpt>
      <trkpt lat="47.73233" lon="-3.36401">
        <ele>-11.9</ele>
        <time>2022-04-11T13:44:38Z</time>
      </trkpt>
      <trkpt lat="47.73228" lon="-3.36394">
        <ele>-12.5</ele>
        <time>2022-04-11T13:44:40Z</time>
      </trkpt>
      <trkpt lat="47.73223" lon="-3.36391">
        <ele>-12.7</ele>
        <time>2022-04-11T13:44:42Z</time>
      </trkpt>
      <trkpt lat="47.73218" lon="-3.36388">
        <ele>-12.4</ele>
        <time>2022-04-11T13:44:43Z</time>
      </trkpt>
      <trkpt lat="47.7321" lon="-3.36383">
        <ele>-8.5</ele>
        <time>2022-04-11T13:44:45Z</time>
      </trkpt>
      <trkpt lat="47.73203" lon="-3.36378">
        <ele>-8.8</ele>
        <time>2022-04-11T13:44:46Z</time>
      </trkpt>
      <trkpt lat="47.73198" lon="-3.36375">
        <ele>-6.8</ele>
        <time>2022-04-11T13:44:47Z</time>
      </trkpt>
      <trkpt lat="47.73193" lon="-3.36372">
        <ele>-4.8</ele>
        <time>2022-04-11T13:44:48Z</time>
      </trkpt>
      <trkpt lat="47.73188" lon="-3.3637">
        <ele>-3.8</ele>
        <time>2022-04-11T13:44:49Z</time>
      </trkpt>
      <trkpt lat="47.73184" lon="-3.36367">
        <ele>-3.6</ele>
        <time>2022-04-11T13:44:50Z</time>
      </trkpt>
      <trkpt lat="47.73177" lon="-3.36364">
        <ele>-3.5</ele>
        <time>2022-04-11T13:44:52Z</time>
      </trkpt>
      <trkpt lat="47.73172" lon="-3.3636">
        <ele>-4.8</ele>
        <time>2022-04-11T13:44:55Z</time>
      </trkpt>
      <trkpt lat="47.73168" lon="-3.36353">
        <ele>-6</ele>
        <time>2022-04-11T13:44:57Z</time>
      </trkpt>
      <trkpt lat="47.73161" lon="-3.36348">
        <ele>-7.2</ele>
        <time>2022-04-11T13:44:59Z</time>
      </trkpt>
      <trkpt lat="47.73156" lon="-3.36343">
        <ele>-8</ele>
        <time>2022-04-11T13:45:01Z</time>
      </trkpt>
      <trkpt lat="47.73151" lon="-3.36337">
        <ele>-9</ele>
        <time>2022-04-11T13:45:03Z</time>
      </trkpt>
      <trkpt lat="47.73145" lon="-3.36333">
        <ele>-10.4</ele>
        <time>2022-04-11T13:45:05Z</time>
      </trkpt>
      <trkpt lat="47.73139" lon="-3.36332">
        <ele>-15</ele>
        <time>2022-04-11T13:45:11Z</time>
      </trkpt>
      <trkpt lat="47.73134" lon="-3.36328">
        <ele>-16.2</ele>
        <time>2022-04-11T13:45:13Z</time>
      </trkpt>
      <trkpt lat="47.73126" lon="-3.36322">
        <ele>-16.9</ele>
        <time>2022-04-11T13:45:15Z</time>
      </trkpt>
      <trkpt lat="47.73122" lon="-3.36318">
        <ele>-17</ele>
        <time>2022-04-11T13:45:16Z</time>
      </trkpt>
      <trkpt lat="47.73118" lon="-3.36313">
        <ele>-17.3</ele>
        <time>2022-04-11T13:45:17Z</time>
      </trkpt>
      <trkpt lat="47.73114" lon="-3.36308">
        <ele>-17.5</ele>
        <time>2022-04-11T13:45:18Z</time>
      </trkpt>
      <trkpt lat="47.73111" lon="-3.36304">
        <ele>-17.7</ele>
        <time>2022-04-11T13:45:19Z</time>
      </trkpt>
      <trkpt lat="47.73105" lon="-3.36295">
        <ele>-18.5</ele>
        <time>2022-04-11T13:45:21Z</time>
      </trkpt>
      <trkpt lat="47.73098" lon="-3.36289">
        <ele>-19</ele>
        <time>2022-04-11T13:45:23Z</time>
      </trkpt>
      <trkpt lat="47.73094" lon="-3.36287">
        <ele>-21.3</ele>
        <time>2022-04-11T13:45:24Z</time>
      </trkpt>
      <trkpt lat="47.73089" lon="-3.36286">
        <ele>-23</ele>
        <time>2022-04-11T13:45:25Z</time>
      </trkpt>
      <trkpt lat="47.73084" lon="-3.36285">
        <ele>-23.2</ele>
        <time>2022-04-11T13:45:26Z</time>
      </trkpt>
      <trkpt lat="47.73078" lon="-3.36281">
        <ele>-23.4</ele>
        <time>2022-04-11T13:45:27Z</time>
      </trkpt>
      <trkpt lat="47.73072" lon="-3.36277">
        <ele>-23.6</ele>
        <time>2022-04-11T13:45:28Z</time>
      </trkpt>
      <trkpt lat="47.73068" lon="-3.36272">
        <ele>-24</ele>
        <time>2022-04-11T13:45:29Z</time>
      </trkpt>
      <trkpt lat="47.73063" lon="-3.36268">
        <ele>-24.5</ele>
        <time>2022-04-11T13:45:30Z</time>
      </trkpt>
      <trkpt lat="47.7306" lon="-3.36263">
        <ele>-24.1</ele>
        <time>2022-04-11T13:45:31Z</time>
      </trkpt>
      <trkpt lat="47.73056" lon="-3.36258">
        <ele>-22.3</ele>
        <time>2022-04-11T13:45:32Z</time>
      </trkpt>
      <trkpt lat="47.73054" lon="-3.36252">
        <ele>-21.4</ele>
        <time>2022-04-11T13:45:33Z</time>
      </trkpt>
      <trkpt lat="47.73052" lon="-3.3624">
        <ele>-21.3</ele>
        <time>2022-04-11T13:45:35Z</time>
      </trkpt>
      <trkpt lat="47.73053" lon="-3.3623">
        <ele>-22.7</ele>
        <time>2022-04-11T13:45:37Z</time>
      </trkpt>
      <trkpt lat="47.73052" lon="-3.36218">
        <ele>-22.5</ele>
        <time>2022-04-11T13:45:39Z</time>
      </trkpt>
      <trkpt lat="47.73052" lon="-3.36208">
        <ele>-22.5</ele>
        <time>2022-04-11T13:45:41Z</time>
      </trkpt>
      <trkpt lat="47.7305" lon="-3.36197">
        <ele>-22.4</ele>
        <time>2022-04-11T13:45:43Z</time>
      </trkpt>
      <trkpt lat="47.73049" lon="-3.36186">
        <ele>-22.1</ele>
        <time>2022-04-11T13:45:45Z</time>
      </trkpt>
      <trkpt lat="47.73048" lon="-3.36174">
        <ele>-21.7</ele>
        <time>2022-04-11T13:45:47Z</time>
      </trkpt>
      <trkpt lat="47.73047" lon="-3.36167">
        <ele>-20.8</ele>
        <time>2022-04-11T13:45:48Z</time>
      </trkpt>
      <trkpt lat="47.73045" lon="-3.3616">
        <ele>-20.7</ele>
        <time>2022-04-11T13:45:49Z</time>
      </trkpt>
      <trkpt lat="47.73044" lon="-3.36153">
        <ele>-20.3</ele>
        <time>2022-04-11T13:45:50Z</time>
      </trkpt>
      <trkpt lat="47.73042" lon="-3.36146">
        <ele>-19.9</ele>
        <time>2022-04-11T13:45:51Z</time>
      </trkpt>
      <trkpt lat="47.7304" lon="-3.36139">
        <ele>-19.5</ele>
        <time>2022-04-11T13:45:52Z</time>
      </trkpt>
      <trkpt lat="47.73038" lon="-3.36128">
        <ele>-19.8</ele>
        <time>2022-04-11T13:45:54Z</time>
      </trkpt>
      <trkpt lat="47.73036" lon="-3.36117">
        <ele>-19.5</ele>
        <time>2022-04-11T13:45:56Z</time>
      </trkpt>
      <trkpt lat="47.73036" lon="-3.36106">
        <ele>-19.2</ele>
        <time>2022-04-11T13:45:58Z</time>
      </trkpt>
      <trkpt lat="47.73034" lon="-3.36093">
        <ele>-18.6</ele>
        <time>2022-04-11T13:46:00Z</time>
      </trkpt>
      <trkpt lat="47.73033" lon="-3.36087">
        <ele>-17.3</ele>
        <time>2022-04-11T13:46:01Z</time>
      </trkpt>
      <trkpt lat="47.73031" lon="-3.36079">
        <ele>-16.7</ele>
        <time>2022-04-11T13:46:02Z</time>
      </trkpt>
      <trkpt lat="47.73028" lon="-3.36068">
        <ele>-15.8</ele>
        <time>2022-04-11T13:46:04Z</time>
      </trkpt>
      <trkpt lat="47.73024" lon="-3.36063">
        <ele>-15.5</ele>
        <time>2022-04-11T13:46:05Z</time>
      </trkpt>
      <trkpt lat="47.7302" lon="-3.36061">
        <ele>-14.8</ele>
        <time>2022-04-11T13:46:06Z</time>
      </trkpt>
      <trkpt lat="47.73015" lon="-3.36059">
        <ele>-12.3</ele>
        <time>2022-04-11T13:46:07Z</time>
      </trkpt>
      <trkpt lat="47.7301" lon="-3.36056">
        <ele>-10.8</ele>
        <time>2022-04-11T13:46:08Z</time>
      </trkpt>
      <trkpt lat="47.73001" lon="-3.36055">
        <ele>-7.1</ele>
        <time>2022-04-11T13:46:10Z</time>
      </trkpt>
      <trkpt lat="47.72995" lon="-3.3606">
        <ele>-5.1</ele>
        <time>2022-04-11T13:46:12Z</time>
      </trkpt>
      <trkpt lat="47.72993" lon="-3.36068">
        <ele>-5</ele>
        <time>2022-04-11T13:46:14Z</time>
      </trkpt>
      <trkpt lat="47.72989" lon="-3.36072">
        <ele>-3.8</ele>
        <time>2022-04-11T13:46:16Z</time>
      </trkpt>
      <trkpt lat="47.72983" lon="-3.36072">
        <ele>0.8</ele>
        <time>2022-04-11T13:46:18Z</time>
      </trkpt>
      <trkpt lat="47.72979" lon="-3.36069">
        <ele>2.7</ele>
        <time>2022-04-11T13:46:19Z</time>
      </trkpt>
      <trkpt lat="47.72973" lon="-3.36065">
        <ele>3.7</ele>
        <time>2022-04-11T13:46:20Z</time>
      </trkpt>
      <trkpt lat="47.72969" lon="-3.36063">
        <ele>4.1</ele>
        <time>2022-04-11T13:46:21Z</time>
      </trkpt>
      <trkpt lat="47.72961" lon="-3.36062">
        <ele>4.9</ele>
        <time>2022-04-11T13:46:23Z</time>
      </trkpt>
      <trkpt lat="47.72954" lon="-3.36062">
        <ele>4.6</ele>
        <time>2022-04-11T13:46:25Z</time>
      </trkpt>
      <trkpt lat="47.72947" lon="-3.36061">
        <ele>3</ele>
        <time>2022-04-11T13:46:27Z</time>
      </trkpt>
      <trkpt lat="47.72942" lon="-3.36059">
        <ele>0.6</ele>
        <time>2022-04-11T13:46:29Z</time>
      </trkpt>
      <trkpt lat="47.72937" lon="-3.36058">
        <ele>-1.5</ele>
        <time>2022-04-11T13:46:31Z</time>
      </trkpt>
      <trkpt lat="47.72931" lon="-3.36057">
        <ele>-1.8</ele>
        <time>2022-04-11T13:46:33Z</time>
      </trkpt>
      <trkpt lat="47.72926" lon="-3.36057">
        <ele>-3</ele>
        <time>2022-04-11T13:46:35Z</time>
      </trkpt>
      <trkpt lat="47.72921" lon="-3.36057">
        <ele>-3.8</ele>
        <time>2022-04-11T13:46:37Z</time>
      </trkpt>
      <trkpt lat="47.72916" lon="-3.36057">
        <ele>-4.6</ele>
        <time>2022-04-11T13:46:39Z</time>
      </trkpt>
      <trkpt lat="47.72911" lon="-3.36057">
        <ele>-6</ele>
        <time>2022-04-11T13:46:41Z</time>
      </trkpt>
      <trkpt lat="47.72905" lon="-3.36062">
        <ele>-5.2</ele>
        <time>2022-04-11T13:46:43Z</time>
      </trkpt>
      <trkpt lat="47.72902" lon="-3.36069">
        <ele>-6.6</ele>
        <time>2022-04-11T13:46:45Z</time>
      </trkpt>
      <trkpt lat="47.72898" lon="-3.36076">
        <ele>-7.7</ele>
        <time>2022-04-11T13:46:47Z</time>
      </trkpt>
      <trkpt lat="47.72895" lon="-3.36083">
        <ele>-7.8</ele>
        <time>2022-04-11T13:46:49Z</time>
      </trkpt>
      <trkpt lat="47.72892" lon="-3.3609">
        <ele>-8.5</ele>
        <time>2022-04-11T13:46:51Z</time>
      </trkpt>
      <trkpt lat="47.72889" lon="-3.36097">
        <ele>-8.2</ele>
        <time>2022-04-11T13:46:53Z</time>
      </trkpt>
      <trkpt lat="47.72885" lon="-3.36104">
        <ele>-7.2</ele>
        <time>2022-04-11T13:46:55Z</time>
      </trkpt>
      <trkpt lat="47.72881" lon="-3.36112">
        <ele>-7.1</ele>
        <time>2022-04-11T13:46:57Z</time>
      </trkpt>
      <trkpt lat="47.72878" lon="-3.3612">
        <ele>-7.8</ele>
        <time>2022-04-11T13:46:59Z</time>
      </trkpt>
      <trkpt lat="47.72874" lon="-3.36128">
        <ele>-6.6</ele>
        <time>2022-04-11T13:47:01Z</time>
      </trkpt>
      <trkpt lat="47.72869" lon="-3.36136">
        <ele>-6.8</ele>
        <time>2022-04-11T13:47:03Z</time>
      </trkpt>
      <trkpt lat="47.72865" lon="-3.36143">
        <ele>-6.7</ele>
        <time>2022-04-11T13:47:05Z</time>
      </trkpt>
      <trkpt lat="47.7286" lon="-3.36151">
        <ele>-6.5</ele>
        <time>2022-04-11T13:47:07Z</time>
      </trkpt>
      <trkpt lat="47.72856" lon="-3.3616">
        <ele>-6.2</ele>
        <time>2022-04-11T13:47:09Z</time>
      </trkpt>
      <trkpt lat="47.72852" lon="-3.36167">
        <ele>-5.4</ele>
        <time>2022-04-11T13:47:11Z</time>
      </trkpt>
      <trkpt lat="47.72848" lon="-3.36175">
        <ele>-5.1</ele>
        <time>2022-04-11T13:47:13Z</time>
      </trkpt>
      <trkpt lat="47.72843" lon="-3.36182">
        <ele>-4.5</ele>
        <time>2022-04-11T13:47:15Z</time>
      </trkpt>
      <trkpt lat="47.72839" lon="-3.36189">
        <ele>-4.6</ele>
        <time>2022-04-11T13:47:17Z</time>
      </trkpt>
      <trkpt lat="47.72835" lon="-3.36196">
        <ele>-4.4</ele>
        <time>2022-04-11T13:47:19Z</time>
      </trkpt>
      <trkpt lat="47.72832" lon="-3.36204">
        <ele>-4.1</ele>
        <time>2022-04-11T13:47:21Z</time>
      </trkpt>
      <trkpt lat="47.72828" lon="-3.36211">
        <ele>-3.7</ele>
        <time>2022-04-11T13:47:23Z</time>
      </trkpt>
      <trkpt lat="47.72823" lon="-3.3622">
        <ele>-3</ele>
        <time>2022-04-11T13:47:25Z</time>
      </trkpt>
      <trkpt lat="47.72819" lon="-3.36229">
        <ele>-2.8</ele>
        <time>2022-04-11T13:47:27Z</time>
      </trkpt>
      <trkpt lat="47.72815" lon="-3.36237">
        <ele>-2.8</ele>
        <time>2022-04-11T13:47:29Z</time>
      </trkpt>
      <trkpt lat="47.72811" lon="-3.36245">
        <ele>-2.7</ele>
        <time>2022-04-11T13:47:31Z</time>
      </trkpt>
      <trkpt lat="47.72807" lon="-3.36252">
        <ele>-3.7</ele>
        <time>2022-04-11T13:47:33Z</time>
      </trkpt>
      <trkpt lat="47.72802" lon="-3.3626">
        <ele>-2.8</ele>
        <time>2022-04-11T13:47:35Z</time>
      </trkpt>
      <trkpt lat="47.72799" lon="-3.36265">
        <ele>-2.5</ele>
        <time>2022-04-11T13:47:36Z</time>
      </trkpt>
      <trkpt lat="47.72792" lon="-3.36274">
        <ele>-1.5</ele>
        <time>2022-04-11T13:47:38Z</time>
      </trkpt>
      <trkpt lat="47.72786" lon="-3.36282">
        <ele>-0.9</ele>
        <time>2022-04-11T13:47:40Z</time>
      </trkpt>
      <trkpt lat="47.72781" lon="-3.3629">
        <ele>-0.7</ele>
        <time>2022-04-11T13:47:42Z</time>
      </trkpt>
      <trkpt lat="47.72776" lon="-3.36296">
        <ele>-2</ele>
        <time>2022-04-11T13:47:45Z</time>
      </trkpt>
      <trkpt lat="47.72775" lon="-3.36303">
        <ele>-6.9</ele>
        <time>2022-04-11T13:47:51Z</time>
      </trkpt>
      <trkpt lat="47.72772" lon="-3.36308">
        <ele>-7.6</ele>
        <time>2022-04-11T13:47:55Z</time>
      </trkpt>
      <trkpt lat="47.72769" lon="-3.36313">
        <ele>-7.5</ele>
        <time>2022-04-11T13:47:57Z</time>
      </trkpt>
      <trkpt lat="47.72764" lon="-3.36319">
        <ele>-7.8</ele>
        <time>2022-04-11T13:48:18Z</time>
      </trkpt>
      <trkpt lat="47.72761" lon="-3.36326">
        <ele>-7.9</ele>
        <time>2022-04-11T13:48:21Z</time>
      </trkpt>
      <trkpt lat="47.7276" lon="-3.36333">
        <ele>-10.2</ele>
        <time>2022-04-11T13:48:23Z</time>
      </trkpt>
      <trkpt lat="47.72759" lon="-3.36341">
        <ele>-10.8</ele>
        <time>2022-04-11T13:48:25Z</time>
      </trkpt>
      <trkpt lat="47.72755" lon="-3.36349">
        <ele>-10</ele>
        <time>2022-04-11T13:48:27Z</time>
      </trkpt>
      <trkpt lat="47.72753" lon="-3.36357">
        <ele>-9.8</ele>
        <time>2022-04-11T13:48:29Z</time>
      </trkpt>
      <trkpt lat="47.72753" lon="-3.36365">
        <ele>-11.7</ele>
        <time>2022-04-11T13:48:31Z</time>
      </trkpt>
      <trkpt lat="47.72756" lon="-3.36372">
        <ele>-16.2</ele>
        <time>2022-04-11T13:48:33Z</time>
      </trkpt>
      <trkpt lat="47.72757" lon="-3.36379">
        <ele>-17.4</ele>
        <time>2022-04-11T13:48:35Z</time>
      </trkpt>
      <trkpt lat="47.72756" lon="-3.36387">
        <ele>-17.6</ele>
        <time>2022-04-11T13:48:38Z</time>
      </trkpt>
      <trkpt lat="47.72753" lon="-3.36392">
        <ele>-17.8</ele>
        <time>2022-04-11T13:48:40Z</time>
      </trkpt>
      <trkpt lat="47.72748" lon="-3.36398">
        <ele>-18.9</ele>
        <time>2022-04-11T13:48:42Z</time>
      </trkpt>
      <trkpt lat="47.72742" lon="-3.36405">
        <ele>-19.5</ele>
        <time>2022-04-11T13:48:44Z</time>
      </trkpt>
      <trkpt lat="47.72736" lon="-3.36412">
        <ele>-19.8</ele>
        <time>2022-04-11T13:48:46Z</time>
      </trkpt>
      <trkpt lat="47.72732" lon="-3.36419">
        <ele>-19.5</ele>
        <time>2022-04-11T13:48:48Z</time>
      </trkpt>
      <trkpt lat="47.7273" lon="-3.36428">
        <ele>-17.4</ele>
        <time>2022-04-11T13:48:50Z</time>
      </trkpt>
      <trkpt lat="47.72727" lon="-3.36435">
        <ele>-16.3</ele>
        <time>2022-04-11T13:48:52Z</time>
      </trkpt>
      <trkpt lat="47.72722" lon="-3.36436">
        <ele>-16.4</ele>
        <time>2022-04-11T13:48:57Z</time>
      </trkpt>
      <trkpt lat="47.72719" lon="-3.36431">
        <ele>-15.9</ele>
        <time>2022-04-11T13:49:38Z</time>
      </trkpt>
      <trkpt lat="47.72716" lon="-3.36423">
        <ele>-16.3</ele>
        <time>2022-04-11T13:49:44Z</time>
      </trkpt>
      <trkpt lat="47.7272" lon="-3.36418">
        <ele>-14.7</ele>
        <time>2022-04-11T13:50:18Z</time>
      </trkpt>
      <trkpt lat="47.72724" lon="-3.36409">
        <ele>-12.1</ele>
        <time>2022-04-11T13:50:21Z</time>
      </trkpt>
      <trkpt lat="47.72727" lon="-3.36403">
        <ele>-11.4</ele>
        <time>2022-04-11T13:50:23Z</time>
      </trkpt>
      <trkpt lat="47.7273" lon="-3.36397">
        <ele>-11.2</ele>
        <time>2022-04-11T13:50:26Z</time>
      </trkpt>
      <trkpt lat="47.72734" lon="-3.3639">
        <ele>-12</ele>
        <time>2022-04-11T13:50:29Z</time>
      </trkpt>
      <trkpt lat="47.72738" lon="-3.36386">
        <ele>-12.7</ele>
        <time>2022-04-11T13:50:32Z</time>
      </trkpt>
      <trkpt lat="47.7274" lon="-3.3638">
        <ele>-13.6</ele>
        <time>2022-04-11T13:50:34Z</time>
      </trkpt>
      <trkpt lat="47.72742" lon="-3.36373">
        <ele>-13.4</ele>
        <time>2022-04-11T13:50:36Z</time>
      </trkpt>
      <trkpt lat="47.72742" lon="-3.36361">
        <ele>-12</ele>
        <time>2022-04-11T13:50:38Z</time>
      </trkpt>
      <trkpt lat="47.72743" lon="-3.36351">
        <ele>-10.7</ele>
        <time>2022-04-11T13:50:40Z</time>
      </trkpt>
      <trkpt lat="47.72748" lon="-3.36344">
        <ele>-10.4</ele>
        <time>2022-04-11T13:50:42Z</time>
      </trkpt>
      <trkpt lat="47.72753" lon="-3.36341">
        <ele>-11.4</ele>
        <time>2022-04-11T13:50:44Z</time>
      </trkpt>
      <trkpt lat="47.72756" lon="-3.36336">
        <ele>-10.7</ele>
        <time>2022-04-11T13:50:46Z</time>
      </trkpt>
      <trkpt lat="47.7276" lon="-3.3633">
        <ele>-11.4</ele>
        <time>2022-04-11T13:50:48Z</time>
      </trkpt>
      <trkpt lat="47.72764" lon="-3.36325">
        <ele>-13.3</ele>
        <time>2022-04-11T13:50:50Z</time>
      </trkpt>
      <trkpt lat="47.72769" lon="-3.36318">
        <ele>-15.3</ele>
        <time>2022-04-11T13:50:52Z</time>
      </trkpt>
      <trkpt lat="47.72773" lon="-3.36309">
        <ele>-16</ele>
        <time>2022-04-11T13:50:54Z</time>
      </trkpt>
      <trkpt lat="47.72778" lon="-3.36302">
        <ele>-17.8</ele>
        <time>2022-04-11T13:50:56Z</time>
      </trkpt>
      <trkpt lat="47.72782" lon="-3.36292">
        <ele>-18.1</ele>
        <time>2022-04-11T13:50:58Z</time>
      </trkpt>
      <trkpt lat="47.72788" lon="-3.36284">
        <ele>-17.1</ele>
        <time>2022-04-11T13:51:00Z</time>
      </trkpt>
      <trkpt lat="47.72793" lon="-3.36276">
        <ele>-16.8</ele>
        <time>2022-04-11T13:51:02Z</time>
      </trkpt>
      <trkpt lat="47.72799" lon="-3.36269">
        <ele>-15.8</ele>
        <time>2022-04-11T13:51:04Z</time>
      </trkpt>
      <trkpt lat="47.72803" lon="-3.36261">
        <ele>-15.7</ele>
        <time>2022-04-11T13:51:06Z</time>
      </trkpt>
      <trkpt lat="47.72806" lon="-3.36251">
        <ele>-15.6</ele>
        <time>2022-04-11T13:51:08Z</time>
      </trkpt>
      <trkpt lat="47.7281" lon="-3.36243">
        <ele>-15.7</ele>
        <time>2022-04-11T13:51:10Z</time>
      </trkpt>
      <trkpt lat="47.72814" lon="-3.36235">
        <ele>-14.7</ele>
        <time>2022-04-11T13:51:12Z</time>
      </trkpt>
      <trkpt lat="47.72818" lon="-3.36226">
        <ele>-14.2</ele>
        <time>2022-04-11T13:51:14Z</time>
      </trkpt>
      <trkpt lat="47.72822" lon="-3.36217">
        <ele>-14.1</ele>
        <time>2022-04-11T13:51:16Z</time>
      </trkpt>
      <trkpt lat="47.72827" lon="-3.36209">
        <ele>-13.4</ele>
        <time>2022-04-11T13:51:18Z</time>
      </trkpt>
      <trkpt lat="47.72831" lon="-3.36202">
        <ele>-13.2</ele>
        <time>2022-04-11T13:51:20Z</time>
      </trkpt>
      <trkpt lat="47.72837" lon="-3.36196">
        <ele>-11.2</ele>
        <time>2022-04-11T13:51:22Z</time>
      </trkpt>
      <trkpt lat="47.72842" lon="-3.36188">
        <ele>-11.6</ele>
        <time>2022-04-11T13:51:24Z</time>
      </trkpt>
      <trkpt lat="47.72848" lon="-3.36183">
        <ele>-11.1</ele>
        <time>2022-04-11T13:51:26Z</time>
      </trkpt>
      <trkpt lat="47.72855" lon="-3.36186">
        <ele>-10.4</ele>
        <time>2022-04-11T13:51:28Z</time>
      </trkpt>
      <trkpt lat="47.72859" lon="-3.36191">
        <ele>-10.3</ele>
        <time>2022-04-11T13:51:29Z</time>
      </trkpt>
      <trkpt lat="47.72862" lon="-3.36195">
        <ele>-10.7</ele>
        <time>2022-04-11T13:51:30Z</time>
      </trkpt>
      <trkpt lat="47.72869" lon="-3.36201">
        <ele>-10.4</ele>
        <time>2022-04-11T13:51:32Z</time>
      </trkpt>
      <trkpt lat="47.72877" lon="-3.36206">
        <ele>-10.3</ele>
        <time>2022-04-11T13:51:34Z</time>
      </trkpt>
      <trkpt lat="47.72884" lon="-3.36211">
        <ele>-10.3</ele>
        <time>2022-04-11T13:51:36Z</time>
      </trkpt>
      <trkpt lat="47.7289" lon="-3.36215">
        <ele>-10.4</ele>
        <time>2022-04-11T13:51:38Z</time>
      </trkpt>
      <trkpt lat="47.72896" lon="-3.3622">
        <ele>-10.6</ele>
        <time>2022-04-11T13:51:40Z</time>
      </trkpt>
      <trkpt lat="47.72901" lon="-3.36224">
        <ele>-10.8</ele>
        <time>2022-04-11T13:51:42Z</time>
      </trkpt>
      <trkpt lat="47.72906" lon="-3.36227">
        <ele>-10.3</ele>
        <time>2022-04-11T13:51:44Z</time>
      </trkpt>
      <trkpt lat="47.72912" lon="-3.36231">
        <ele>-10.5</ele>
        <time>2022-04-11T13:51:47Z</time>
      </trkpt>
      <trkpt lat="47.72915" lon="-3.36237">
        <ele>-11.2</ele>
        <time>2022-04-11T13:51:49Z</time>
      </trkpt>
      <trkpt lat="47.72916" lon="-3.36246">
        <ele>-11</ele>
        <time>2022-04-11T13:51:51Z</time>
      </trkpt>
      <trkpt lat="47.72915" lon="-3.36258">
        <ele>-10.2</ele>
        <time>2022-04-11T13:51:53Z</time>
      </trkpt>
      <trkpt lat="47.72914" lon="-3.36269">
        <ele>-9.5</ele>
        <time>2022-04-11T13:51:55Z</time>
      </trkpt>
      <trkpt lat="47.72912" lon="-3.3628">
        <ele>-8.7</ele>
        <time>2022-04-11T13:51:57Z</time>
      </trkpt>
      <trkpt lat="47.72911" lon="-3.3629">
        <ele>-6.1</ele>
        <time>2022-04-11T13:51:59Z</time>
      </trkpt>
      <trkpt lat="47.7291" lon="-3.36301">
        <ele>-4.7</ele>
        <time>2022-04-11T13:52:01Z</time>
      </trkpt>
      <trkpt lat="47.72909" lon="-3.36312">
        <ele>-3.2</ele>
        <time>2022-04-11T13:52:03Z</time>
      </trkpt>
      <trkpt lat="47.72907" lon="-3.36324">
        <ele>-2</ele>
        <time>2022-04-11T13:52:05Z</time>
      </trkpt>
      <trkpt lat="47.72905" lon="-3.36335">
        <ele>4</ele>
        <time>2022-04-11T13:52:07Z</time>
      </trkpt>
      <trkpt lat="47.72902" lon="-3.36347">
        <ele>3.2</ele>
        <time>2022-04-11T13:52:09Z</time>
      </trkpt>
      <trkpt lat="47.729" lon="-3.36358">
        <ele>4.5</ele>
        <time>2022-04-11T13:52:11Z</time>
      </trkpt>
      <trkpt lat="47.72898" lon="-3.3637">
        <ele>5.1</ele>
        <time>2022-04-11T13:52:13Z</time>
      </trkpt>
      <trkpt lat="47.72897" lon="-3.36381">
        <ele>4.6</ele>
        <time>2022-04-11T13:52:15Z</time>
      </trkpt>
      <trkpt lat="47.72896" lon="-3.36392">
        <ele>4.5</ele>
        <time>2022-04-11T13:52:17Z</time>
      </trkpt>
      <trkpt lat="47.72894" lon="-3.36401">
        <ele>4.7</ele>
        <time>2022-04-11T13:52:19Z</time>
      </trkpt>
      <trkpt lat="47.72893" lon="-3.36412">
        <ele>5.2</ele>
        <time>2022-04-11T13:52:21Z</time>
      </trkpt>
      <trkpt lat="47.72891" lon="-3.36425">
        <ele>4.9</ele>
        <time>2022-04-11T13:52:23Z</time>
      </trkpt>
      <trkpt lat="47.72889" lon="-3.36437">
        <ele>5</ele>
        <time>2022-04-11T13:52:25Z</time>
      </trkpt>
      <trkpt lat="47.72888" lon="-3.3645">
        <ele>4.6</ele>
        <time>2022-04-11T13:52:27Z</time>
      </trkpt>
      <trkpt lat="47.72886" lon="-3.36462">
        <ele>4.4</ele>
        <time>2022-04-11T13:52:29Z</time>
      </trkpt>
      <trkpt lat="47.72884" lon="-3.36474">
        <ele>4.1</ele>
        <time>2022-04-11T13:52:31Z</time>
      </trkpt>
      <trkpt lat="47.72882" lon="-3.36486">
        <ele>3.6</ele>
        <time>2022-04-11T13:52:33Z</time>
      </trkpt>
      <trkpt lat="47.72881" lon="-3.36499">
        <ele>2.9</ele>
        <time>2022-04-11T13:52:35Z</time>
      </trkpt>
      <trkpt lat="47.72879" lon="-3.36511">
        <ele>2.3</ele>
        <time>2022-04-11T13:52:37Z</time>
      </trkpt>
      <trkpt lat="47.72877" lon="-3.36523">
        <ele>2.9</ele>
        <time>2022-04-11T13:52:39Z</time>
      </trkpt>
      <trkpt lat="47.72878" lon="-3.36534">
        <ele>1</ele>
        <time>2022-04-11T13:52:41Z</time>
      </trkpt>
      <trkpt lat="47.72877" lon="-3.36544">
        <ele>0.4</ele>
        <time>2022-04-11T13:52:43Z</time>
      </trkpt>
      <trkpt lat="47.72876" lon="-3.36555">
        <ele>-0.7</ele>
        <time>2022-04-11T13:52:45Z</time>
      </trkpt>
      <trkpt lat="47.72877" lon="-3.36565">
        <ele>-1.8</ele>
        <time>2022-04-11T13:52:47Z</time>
      </trkpt>
      <trkpt lat="47.72879" lon="-3.36575">
        <ele>-1.8</ele>
        <time>2022-04-11T13:52:49Z</time>
      </trkpt>
      <trkpt lat="47.72885" lon="-3.36584">
        <ele>-3.2</ele>
        <time>2022-04-11T13:52:51Z</time>
      </trkpt>
      <trkpt lat="47.7289" lon="-3.36593">
        <ele>-5.1</ele>
        <time>2022-04-11T13:52:53Z</time>
      </trkpt>
      <trkpt lat="47.72895" lon="-3.36604">
        <ele>-7.1</ele>
        <time>2022-04-11T13:52:55Z</time>
      </trkpt>
      <trkpt lat="47.72901" lon="-3.36614">
        <ele>-7</ele>
        <time>2022-04-11T13:52:57Z</time>
      </trkpt>
      <trkpt lat="47.72907" lon="-3.36621">
        <ele>-5.2</ele>
        <time>2022-04-11T13:52:59Z</time>
      </trkpt>
      <trkpt lat="47.72912" lon="-3.36624">
        <ele>-4.2</ele>
        <time>2022-04-11T13:53:00Z</time>
      </trkpt>
      <trkpt lat="47.72919" lon="-3.3663">
        <ele>-1.8</ele>
        <time>2022-04-11T13:53:02Z</time>
      </trkpt>
      <trkpt lat="47.72926" lon="-3.36634">
        <ele>-1.1</ele>
        <time>2022-04-11T13:53:04Z</time>
      </trkpt>
      <trkpt lat="47.72933" lon="-3.36637">
        <ele>-1.1</ele>
        <time>2022-04-11T13:53:06Z</time>
      </trkpt>
      <trkpt lat="47.72941" lon="-3.36641">
        <ele>-0.8</ele>
        <time>2022-04-11T13:53:08Z</time>
      </trkpt>
      <trkpt lat="47.72949" lon="-3.36645">
        <ele>-0.5</ele>
        <time>2022-04-11T13:53:10Z</time>
      </trkpt>
      <trkpt lat="47.72953" lon="-3.36647">
        <ele>-0.6</ele>
        <time>2022-04-11T13:53:11Z</time>
      </trkpt>
      <trkpt lat="47.72961" lon="-3.36652">
        <ele>-0.2</ele>
        <time>2022-04-11T13:53:13Z</time>
      </trkpt>
      <trkpt lat="47.72969" lon="-3.36657">
        <ele>2.1</ele>
        <time>2022-04-11T13:53:15Z</time>
      </trkpt>
      <trkpt lat="47.72976" lon="-3.36657">
        <ele>0.3</ele>
        <time>2022-04-11T13:53:18Z</time>
      </trkpt>
      <trkpt lat="47.72985" lon="-3.36659">
        <ele>1</ele>
        <time>2022-04-11T13:53:20Z</time>
      </trkpt>
      <trkpt lat="47.7299" lon="-3.3666">
        <ele>1.6</ele>
        <time>2022-04-11T13:53:21Z</time>
      </trkpt>
      <trkpt lat="47.72995" lon="-3.36662">
        <ele>2</ele>
        <time>2022-04-11T13:53:22Z</time>
      </trkpt>
      <trkpt lat="47.73" lon="-3.36664">
        <ele>2.1</ele>
        <time>2022-04-11T13:53:23Z</time>
      </trkpt>
      <trkpt lat="47.73005" lon="-3.36667">
        <ele>2.3</ele>
        <time>2022-04-11T13:53:24Z</time>
      </trkpt>
      <trkpt lat="47.7301" lon="-3.36669">
        <ele>2.4</ele>
        <time>2022-04-11T13:53:25Z</time>
      </trkpt>
      <trkpt lat="47.73014" lon="-3.36671">
        <ele>2.6</ele>
        <time>2022-04-11T13:53:26Z</time>
      </trkpt>
      <trkpt lat="47.73019" lon="-3.36674">
        <ele>3</ele>
        <time>2022-04-11T13:53:27Z</time>
      </trkpt>
      <trkpt lat="47.73027" lon="-3.36678">
        <ele>4</ele>
        <time>2022-04-11T13:53:29Z</time>
      </trkpt>
      <trkpt lat="47.73035" lon="-3.36684">
        <ele>4.7</ele>
        <time>2022-04-11T13:53:31Z</time>
      </trkpt>
      <trkpt lat="47.73043" lon="-3.3669">
        <ele>4.5</ele>
        <time>2022-04-11T13:53:33Z</time>
      </trkpt>
      <trkpt lat="47.73047" lon="-3.36693">
        <ele>4.3</ele>
        <time>2022-04-11T13:53:34Z</time>
      </trkpt>
      <trkpt lat="47.73051" lon="-3.36697">
        <ele>4.5</ele>
        <time>2022-04-11T13:53:35Z</time>
      </trkpt>
      <trkpt lat="47.73055" lon="-3.36699">
        <ele>4.6</ele>
        <time>2022-04-11T13:53:36Z</time>
      </trkpt>
      <trkpt lat="47.73059" lon="-3.36701">
        <ele>4.7</ele>
        <time>2022-04-11T13:53:37Z</time>
      </trkpt>
      <trkpt lat="47.73067" lon="-3.36707">
        <ele>5</ele>
        <time>2022-04-11T13:53:39Z</time>
      </trkpt>
      <trkpt lat="47.73075" lon="-3.36713">
        <ele>5.5</ele>
        <time>2022-04-11T13:53:41Z</time>
      </trkpt>
      <trkpt lat="47.73078" lon="-3.36716">
        <ele>6.1</ele>
        <time>2022-04-11T13:53:42Z</time>
      </trkpt>
      <trkpt lat="47.73086" lon="-3.36724">
        <ele>8.1</ele>
        <time>2022-04-11T13:53:44Z</time>
      </trkpt>
      <trkpt lat="47.73093" lon="-3.3673">
        <ele>8.6</ele>
        <time>2022-04-11T13:53:46Z</time>
      </trkpt>
      <trkpt lat="47.731" lon="-3.36734">
        <ele>9.2</ele>
        <time>2022-04-11T13:53:48Z</time>
      </trkpt>
      <trkpt lat="47.73107" lon="-3.3674">
        <ele>10.4</ele>
        <time>2022-04-11T13:53:50Z</time>
      </trkpt>
      <trkpt lat="47.73111" lon="-3.36743">
        <ele>11.3</ele>
        <time>2022-04-11T13:53:51Z</time>
      </trkpt>
      <trkpt lat="47.73118" lon="-3.36751">
        <ele>15</ele>
        <time>2022-04-11T13:53:53Z</time>
      </trkpt>
      <trkpt lat="47.73121" lon="-3.36755">
        <ele>15.3</ele>
        <time>2022-04-11T13:53:54Z</time>
      </trkpt>
      <trkpt lat="47.73128" lon="-3.3676">
        <ele>15.4</ele>
        <time>2022-04-11T13:53:56Z</time>
      </trkpt>
      <trkpt lat="47.73136" lon="-3.36763">
        <ele>15.9</ele>
        <time>2022-04-11T13:53:58Z</time>
      </trkpt>
      <trkpt lat="47.73141" lon="-3.36766">
        <ele>16.1</ele>
        <time>2022-04-11T13:54:00Z</time>
      </trkpt>
      <trkpt lat="47.73146" lon="-3.3677">
        <ele>20.3</ele>
        <time>2022-04-11T13:54:02Z</time>
      </trkpt>
      <trkpt lat="47.73151" lon="-3.36773">
        <ele>21.4</ele>
        <time>2022-04-11T13:54:04Z</time>
      </trkpt>
      <trkpt lat="47.73157" lon="-3.36768">
        <ele>21.5</ele>
        <time>2022-04-11T13:54:06Z</time>
      </trkpt>
      <trkpt lat="47.73161" lon="-3.36761">
        <ele>21.9</ele>
        <time>2022-04-11T13:54:08Z</time>
      </trkpt>
      <trkpt lat="47.73167" lon="-3.3676">
        <ele>22.1</ele>
        <time>2022-04-11T13:54:11Z</time>
      </trkpt>
      <trkpt lat="47.73171" lon="-3.36763">
        <ele>22.2</ele>
        <time>2022-04-11T13:54:12Z</time>
      </trkpt>
      <trkpt lat="47.73178" lon="-3.36767">
        <ele>15.7</ele>
        <time>2022-04-11T13:54:14Z</time>
      </trkpt>
      <trkpt lat="47.73187" lon="-3.36768">
        <ele>8.9</ele>
        <time>2022-04-11T13:54:16Z</time>
      </trkpt>
      <trkpt lat="47.73193" lon="-3.3677">
        <ele>6.3</ele>
        <time>2022-04-11T13:54:18Z</time>
      </trkpt>
      <trkpt lat="47.73198" lon="-3.36773">
        <ele>5.8</ele>
        <time>2022-04-11T13:54:20Z</time>
      </trkpt>
      <trkpt lat="47.73202" lon="-3.36777">
        <ele>6.5</ele>
        <time>2022-04-11T13:54:22Z</time>
      </trkpt>
      <trkpt lat="47.73205" lon="-3.36782">
        <ele>7.2</ele>
        <time>2022-04-11T13:54:24Z</time>
      </trkpt>
      <trkpt lat="47.73208" lon="-3.36788">
        <ele>7.2</ele>
        <time>2022-04-11T13:54:26Z</time>
      </trkpt>
      <trkpt lat="47.73212" lon="-3.36792">
        <ele>6.8</ele>
        <time>2022-04-11T13:54:28Z</time>
      </trkpt>
      <trkpt lat="47.73218" lon="-3.36798">
        <ele>8.7</ele>
        <time>2022-04-11T13:54:31Z</time>
      </trkpt>
      <trkpt lat="47.73221" lon="-3.36803">
        <ele>8.6</ele>
        <time>2022-04-11T13:54:33Z</time>
      </trkpt>
      <trkpt lat="47.73225" lon="-3.36809">
        <ele>8.4</ele>
        <time>2022-04-11T13:54:35Z</time>
      </trkpt>
      <trkpt lat="47.73229" lon="-3.36815">
        <ele>7.6</ele>
        <time>2022-04-11T13:54:37Z</time>
      </trkpt>
      <trkpt lat="47.73234" lon="-3.36821">
        <ele>7.9</ele>
        <time>2022-04-11T13:54:39Z</time>
      </trkpt>
      <trkpt lat="47.73238" lon="-3.36815">
        <ele>8.2</ele>
        <time>2022-04-11T13:54:43Z</time>
      </trkpt>
      <trkpt lat="47.73239" lon="-3.36806">
        <ele>9.1</ele>
        <time>2022-04-11T13:54:45Z</time>
      </trkpt>
      <trkpt lat="47.73241" lon="-3.36797">
        <ele>10.2</ele>
        <time>2022-04-11T13:54:47Z</time>
      </trkpt>
      <trkpt lat="47.73243" lon="-3.36788">
        <ele>8.9</ele>
        <time>2022-04-11T13:54:49Z</time>
      </trkpt>
      <trkpt lat="47.73243" lon="-3.3678">
        <ele>9</ele>
        <time>2022-04-11T13:54:51Z</time>
      </trkpt>
      <trkpt lat="47.73242" lon="-3.36771">
        <ele>9</ele>
        <time>2022-04-11T13:54:53Z</time>
      </trkpt>
      <trkpt lat="47.73241" lon="-3.36763">
        <ele>9.2</ele>
        <time>2022-04-11T13:54:55Z</time>
      </trkpt>
      <trkpt lat="47.73241" lon="-3.36754">
        <ele>8.9</ele>
        <time>2022-04-11T13:54:58Z</time>
      </trkpt>
      <trkpt lat="47.73243" lon="-3.36744">
        <ele>8.8</ele>
        <time>2022-04-11T13:55:01Z</time>
      </trkpt>
      <trkpt lat="47.73245" lon="-3.36738">
        <ele>8.4</ele>
        <time>2022-04-11T13:55:03Z</time>
      </trkpt>
      <trkpt lat="47.73247" lon="-3.36729">
        <ele>7.9</ele>
        <time>2022-04-11T13:55:06Z</time>
      </trkpt>
      <trkpt lat="47.73252" lon="-3.36733">
        <ele>5.2</ele>
        <time>2022-04-11T13:55:21Z</time>
      </trkpt>
      <trkpt lat="47.73254" lon="-3.36741">
        <ele>4.9</ele>
        <time>2022-04-11T13:55:23Z</time>
      </trkpt>
      <trkpt lat="47.73255" lon="-3.3675">
        <ele>4.2</ele>
        <time>2022-04-11T13:55:25Z</time>
      </trkpt>
      <trkpt lat="47.73255" lon="-3.36758">
        <ele>2.8</ele>
        <time>2022-04-11T13:55:27Z</time>
      </trkpt>
      <trkpt lat="47.73255" lon="-3.36765">
        <ele>1.7</ele>
        <time>2022-04-11T13:55:29Z</time>
      </trkpt>
      <trkpt lat="47.73255" lon="-3.36773">
        <ele>-1</ele>
        <time>2022-04-11T13:55:32Z</time>
      </trkpt>
      <trkpt lat="47.73258" lon="-3.36779">
        <ele>-1.3</ele>
        <time>2022-04-11T13:55:35Z</time>
      </trkpt>
      <trkpt lat="47.7326" lon="-3.36788">
        <ele>1.8</ele>
        <time>2022-04-11T13:55:38Z</time>
      </trkpt>
      <trkpt lat="47.73261" lon="-3.36798">
        <ele>6.4</ele>
        <time>2022-04-11T13:55:40Z</time>
      </trkpt>
      <trkpt lat="47.73265" lon="-3.36809">
        <ele>6.8</ele>
        <time>2022-04-11T13:55:42Z</time>
      </trkpt>
      <trkpt lat="47.73269" lon="-3.36819">
        <ele>7.3</ele>
        <time>2022-04-11T13:55:44Z</time>
      </trkpt>
      <trkpt lat="47.73272" lon="-3.36828">
        <ele>6.8</ele>
        <time>2022-04-11T13:55:46Z</time>
      </trkpt>
      <trkpt lat="47.73275" lon="-3.36836">
        <ele>6.6</ele>
        <time>2022-04-11T13:55:48Z</time>
      </trkpt>
      <trkpt lat="47.73277" lon="-3.36844">
        <ele>6</ele>
        <time>2022-04-11T13:55:50Z</time>
      </trkpt>
      <trkpt lat="47.73276" lon="-3.36853">
        <ele>5.5</ele>
        <time>2022-04-11T13:55:52Z</time>
      </trkpt>
      <trkpt lat="47.73271" lon="-3.36857">
        <ele>4.1</ele>
        <time>2022-04-11T13:55:54Z</time>
      </trkpt>
      <trkpt lat="47.73265" lon="-3.36855">
        <ele>3.1</ele>
        <time>2022-04-11T13:55:56Z</time>
      </trkpt>
      <trkpt lat="47.7326" lon="-3.36854">
        <ele>3.1</ele>
        <time>2022-04-11T13:55:58Z</time>
      </trkpt>
      <trkpt lat="47.73254" lon="-3.36854">
        <ele>3.1</ele>
        <time>2022-04-11T13:56:00Z</time>
      </trkpt>
      <trkpt lat="47.73248" lon="-3.36858">
        <ele>3</ele>
        <time>2022-04-11T13:56:02Z</time>
      </trkpt>
      <trkpt lat="47.73243" lon="-3.36863">
        <ele>2.2</ele>
        <time>2022-04-11T13:56:04Z</time>
      </trkpt>
      <trkpt lat="47.73239" lon="-3.36866">
        <ele>0.7</ele>
        <time>2022-04-11T13:56:06Z</time>
      </trkpt>
      <trkpt lat="47.73234" lon="-3.36867">
        <ele>0.2</ele>
        <time>2022-04-11T13:56:08Z</time>
      </trkpt>
      <trkpt lat="47.73228" lon="-3.36867">
        <ele>-0.1</ele>
        <time>2022-04-11T13:56:10Z</time>
      </trkpt>
      <trkpt lat="47.73223" lon="-3.36868">
        <ele>-1.5</ele>
        <time>2022-04-11T13:56:12Z</time>
      </trkpt>
      <trkpt lat="47.73217" lon="-3.36866">
        <ele>-4.4</ele>
        <time>2022-04-11T13:56:15Z</time>
      </trkpt>
      <trkpt lat="47.7321" lon="-3.36867">
        <ele>-6.7</ele>
        <time>2022-04-11T13:56:18Z</time>
      </trkpt>
      <trkpt lat="47.73204" lon="-3.3687">
        <ele>-6.8</ele>
        <time>2022-04-11T13:56:20Z</time>
      </trkpt>
      <trkpt lat="47.73198" lon="-3.36872">
        <ele>-7.6</ele>
        <time>2022-04-11T13:56:22Z</time>
      </trkpt>
      <trkpt lat="47.73193" lon="-3.36874">
        <ele>-7.7</ele>
        <time>2022-04-11T13:56:24Z</time>
      </trkpt>
      <trkpt lat="47.73188" lon="-3.36875">
        <ele>-9.9</ele>
        <time>2022-04-11T13:56:27Z</time>
      </trkpt>
      <trkpt lat="47.73183" lon="-3.36876">
        <ele>-11.1</ele>
        <time>2022-04-11T13:56:41Z</time>
      </trkpt>
      <trkpt lat="47.73178" lon="-3.36877">
        <ele>-12.8</ele>
        <time>2022-04-11T13:57:09Z</time>
      </trkpt>
      <trkpt lat="47.73172" lon="-3.36879">
        <ele>-13.7</ele>
        <time>2022-04-11T13:57:11Z</time>
      </trkpt>
      <trkpt lat="47.73166" lon="-3.36882">
        <ele>-14.7</ele>
        <time>2022-04-11T13:57:13Z</time>
      </trkpt>
      <trkpt lat="47.7316" lon="-3.36884">
        <ele>-17</ele>
        <time>2022-04-11T13:57:15Z</time>
      </trkpt>
      <trkpt lat="47.73156" lon="-3.36886">
        <ele>-19.5</ele>
        <time>2022-04-11T13:57:17Z</time>
      </trkpt>
      <trkpt lat="47.73151" lon="-3.36885">
        <ele>-20.5</ele>
        <time>2022-04-11T13:57:19Z</time>
      </trkpt>
      <trkpt lat="47.73145" lon="-3.36881">
        <ele>-21.2</ele>
        <time>2022-04-11T13:57:21Z</time>
      </trkpt>
      <trkpt lat="47.7314" lon="-3.36877">
        <ele>-21.9</ele>
        <time>2022-04-11T13:57:23Z</time>
      </trkpt>
      <trkpt lat="47.73136" lon="-3.36869">
        <ele>-22.8</ele>
        <time>2022-04-11T13:57:25Z</time>
      </trkpt>
      <trkpt lat="47.73132" lon="-3.3686">
        <ele>-23.5</ele>
        <time>2022-04-11T13:57:27Z</time>
      </trkpt>
      <trkpt lat="47.73125" lon="-3.36852">
        <ele>-23.3</ele>
        <time>2022-04-11T13:57:29Z</time>
      </trkpt>
      <trkpt lat="47.73118" lon="-3.36847">
        <ele>-23.2</ele>
        <time>2022-04-11T13:57:31Z</time>
      </trkpt>
      <trkpt lat="47.7311" lon="-3.36844">
        <ele>-23.4</ele>
        <time>2022-04-11T13:57:33Z</time>
      </trkpt>
      <trkpt lat="47.73104" lon="-3.36846">
        <ele>-23.6</ele>
        <time>2022-04-11T13:57:35Z</time>
      </trkpt>
      <trkpt lat="47.73099" lon="-3.3685">
        <ele>-24.4</ele>
        <time>2022-04-11T13:57:37Z</time>
      </trkpt>
      <trkpt lat="47.73095" lon="-3.36858">
        <ele>-24.8</ele>
        <time>2022-04-11T13:57:39Z</time>
      </trkpt>
      <trkpt lat="47.73094" lon="-3.36867">
        <ele>-25.3</ele>
        <time>2022-04-11T13:57:41Z</time>
      </trkpt>
      <trkpt lat="47.73092" lon="-3.36875">
        <ele>-25.6</ele>
        <time>2022-04-11T13:57:43Z</time>
      </trkpt>
      <trkpt lat="47.7309" lon="-3.36886">
        <ele>-25.9</ele>
        <time>2022-04-11T13:57:45Z</time>
      </trkpt>
      <trkpt lat="47.73088" lon="-3.36897">
        <ele>-26.8</ele>
        <time>2022-04-11T13:57:47Z</time>
      </trkpt>
      <trkpt lat="47.73085" lon="-3.36908">
        <ele>-26.9</ele>
        <time>2022-04-11T13:57:49Z</time>
      </trkpt>
      <trkpt lat="47.73081" lon="-3.36919">
        <ele>-27.3</ele>
        <time>2022-04-11T13:57:51Z</time>
      </trkpt>
      <trkpt lat="47.73079" lon="-3.3693">
        <ele>-28.2</ele>
        <time>2022-04-11T13:57:53Z</time>
      </trkpt>
      <trkpt lat="47.73077" lon="-3.3694">
        <ele>-30.4</ele>
        <time>2022-04-11T13:57:55Z</time>
      </trkpt>
      <trkpt lat="47.73074" lon="-3.36949">
        <ele>-31.3</ele>
        <time>2022-04-11T13:57:57Z</time>
      </trkpt>
      <trkpt lat="47.73069" lon="-3.36959">
        <ele>-32.8</ele>
        <time>2022-04-11T13:57:59Z</time>
      </trkpt>
      <trkpt lat="47.73065" lon="-3.36969">
        <ele>-33.6</ele>
        <time>2022-04-11T13:58:01Z</time>
      </trkpt>
      <trkpt lat="47.73063" lon="-3.36977">
        <ele>-35.4</ele>
        <time>2022-04-11T13:58:03Z</time>
      </trkpt>
      <trkpt lat="47.73062" lon="-3.36987">
        <ele>-39</ele>
        <time>2022-04-11T13:58:06Z</time>
      </trkpt>
      <trkpt lat="47.73059" lon="-3.36995">
        <ele>-39.6</ele>
        <time>2022-04-11T13:58:09Z</time>
      </trkpt>
      <trkpt lat="47.73054" lon="-3.37">
        <ele>-39.6</ele>
        <time>2022-04-11T13:58:11Z</time>
      </trkpt>
      <trkpt lat="47.73049" lon="-3.37006">
        <ele>-40.6</ele>
        <time>2022-04-11T13:58:13Z</time>
      </trkpt>
      <trkpt lat="47.73044" lon="-3.37013">
        <ele>-41.7</ele>
        <time>2022-04-11T13:58:15Z</time>
      </trkpt>
      <trkpt lat="47.73042" lon="-3.3702">
        <ele>-43.8</ele>
        <time>2022-04-11T13:58:17Z</time>
      </trkpt>
      <trkpt lat="47.7304" lon="-3.37029">
        <ele>-44.6</ele>
        <time>2022-04-11T13:58:19Z</time>
      </trkpt>
      <trkpt lat="47.73039" lon="-3.37037">
        <ele>-45.7</ele>
        <time>2022-04-11T13:58:21Z</time>
      </trkpt>
      <trkpt lat="47.73035" lon="-3.37047">
        <ele>-46.8</ele>
        <time>2022-04-11T13:58:23Z</time>
      </trkpt>
      <trkpt lat="47.73032" lon="-3.37058">
        <ele>-47.9</ele>
        <time>2022-04-11T13:58:25Z</time>
      </trkpt>
      <trkpt lat="47.73029" lon="-3.37066">
        <ele>-47.6</ele>
        <time>2022-04-11T13:58:27Z</time>
      </trkpt>
      <trkpt lat="47.73025" lon="-3.37073">
        <ele>-47.6</ele>
        <time>2022-04-11T13:58:29Z</time>
      </trkpt>
      <trkpt lat="47.73022" lon="-3.37082">
        <ele>-48.1</ele>
        <time>2022-04-11T13:58:31Z</time>
      </trkpt>
      <trkpt lat="47.7302" lon="-3.3709">
        <ele>-47.5</ele>
        <time>2022-04-11T13:58:33Z</time>
      </trkpt>
      <trkpt lat="47.73016" lon="-3.371">
        <ele>-46.8</ele>
        <time>2022-04-11T13:58:35Z</time>
      </trkpt>
      <trkpt lat="47.7301" lon="-3.3711">
        <ele>-45.7</ele>
        <time>2022-04-11T13:58:37Z</time>
      </trkpt>
      <trkpt lat="47.73003" lon="-3.37118">
        <ele>-40.9</ele>
        <time>2022-04-11T13:58:39Z</time>
      </trkpt>
      <trkpt lat="47.73" lon="-3.37123">
        <ele>-40.5</ele>
        <time>2022-04-11T13:58:40Z</time>
      </trkpt>
      <trkpt lat="47.72995" lon="-3.37132">
        <ele>-41.7</ele>
        <time>2022-04-11T13:58:42Z</time>
      </trkpt>
      <trkpt lat="47.72991" lon="-3.37141">
        <ele>-42.1</ele>
        <time>2022-04-11T13:58:44Z</time>
      </trkpt>
      <trkpt lat="47.72984" lon="-3.37149">
        <ele>-39.7</ele>
        <time>2022-04-11T13:58:46Z</time>
      </trkpt>
      <trkpt lat="47.72979" lon="-3.37153">
        <ele>-40.4</ele>
        <time>2022-04-11T13:58:48Z</time>
      </trkpt>
      <trkpt lat="47.72974" lon="-3.3716">
        <ele>-43.5</ele>
        <time>2022-04-11T13:58:51Z</time>
      </trkpt>
      <trkpt lat="47.72972" lon="-3.37168">
        <ele>-47.9</ele>
        <time>2022-04-11T13:58:53Z</time>
      </trkpt>
      <trkpt lat="47.72971" lon="-3.37176">
        <ele>-61.7</ele>
        <time>2022-04-11T13:58:56Z</time>
      </trkpt>
      <trkpt lat="47.72974" lon="-3.37182">
        <ele>-68.9</ele>
        <time>2022-04-11T13:58:58Z</time>
      </trkpt>
      <trkpt lat="47.72976" lon="-3.37191">
        <ele>-72.2</ele>
        <time>2022-04-11T13:59:00Z</time>
      </trkpt>
      <trkpt lat="47.72978" lon="-3.37201">
        <ele>-72.8</ele>
        <time>2022-04-11T13:59:02Z</time>
      </trkpt>
      <trkpt lat="47.72979" lon="-3.37214">
        <ele>-72.2</ele>
        <time>2022-04-11T13:59:04Z</time>
      </trkpt>
      <trkpt lat="47.72978" lon="-3.37225">
        <ele>-71.5</ele>
        <time>2022-04-11T13:59:06Z</time>
      </trkpt>
      <trkpt lat="47.72976" lon="-3.37232">
        <ele>-71</ele>
        <time>2022-04-11T13:59:07Z</time>
      </trkpt>
      <trkpt lat="47.72974" lon="-3.37245">
        <ele>-69.1</ele>
        <time>2022-04-11T13:59:09Z</time>
      </trkpt>
      <trkpt lat="47.72972" lon="-3.37257">
        <ele>-68.4</ele>
        <time>2022-04-11T13:59:11Z</time>
      </trkpt>
      <trkpt lat="47.72971" lon="-3.37263">
        <ele>-66.4</ele>
        <time>2022-04-11T13:59:12Z</time>
      </trkpt>
      <trkpt lat="47.72971" lon="-3.37275">
        <ele>-64.9</ele>
        <time>2022-04-11T13:59:14Z</time>
      </trkpt>
      <trkpt lat="47.72972" lon="-3.37286">
        <ele>-65.5</ele>
        <time>2022-04-11T13:59:16Z</time>
      </trkpt>
      <trkpt lat="47.72974" lon="-3.37296">
        <ele>-65.6</ele>
        <time>2022-04-11T13:59:18Z</time>
      </trkpt>
      <trkpt lat="47.72978" lon="-3.37305">
        <ele>-65.9</ele>
        <time>2022-04-11T13:59:20Z</time>
      </trkpt>
      <trkpt lat="47.72983" lon="-3.37313">
        <ele>-66.6</ele>
        <time>2022-04-11T13:59:22Z</time>
      </trkpt>
      <trkpt lat="47.72987" lon="-3.37321">
        <ele>-66.3</ele>
        <time>2022-04-11T13:59:24Z</time>
      </trkpt>
      <trkpt lat="47.72993" lon="-3.37329">
        <ele>-66.1</ele>
        <time>2022-04-11T13:59:26Z</time>
      </trkpt>
      <trkpt lat="47.72998" lon="-3.37337">
        <ele>-65.1</ele>
        <time>2022-04-11T13:59:28Z</time>
      </trkpt>
      <trkpt lat="47.73004" lon="-3.37346">
        <ele>-64</ele>
        <time>2022-04-11T13:59:30Z</time>
      </trkpt>
      <trkpt lat="47.73009" lon="-3.37354">
        <ele>-60.5</ele>
        <time>2022-04-11T13:59:32Z</time>
      </trkpt>
      <trkpt lat="47.73013" lon="-3.37363">
        <ele>-57.8</ele>
        <time>2022-04-11T13:59:34Z</time>
      </trkpt>
      <trkpt lat="47.73017" lon="-3.37371">
        <ele>-56.7</ele>
        <time>2022-04-11T13:59:36Z</time>
      </trkpt>
      <trkpt lat="47.73022" lon="-3.3738">
        <ele>-55.4</ele>
        <time>2022-04-11T13:59:38Z</time>
      </trkpt>
      <trkpt lat="47.73025" lon="-3.3739">
        <ele>-54.8</ele>
        <time>2022-04-11T13:59:40Z</time>
      </trkpt>
      <trkpt lat="47.73028" lon="-3.37397">
        <ele>-55.8</ele>
        <time>2022-04-11T13:59:42Z</time>
      </trkpt>
      <trkpt lat="47.73032" lon="-3.37404">
        <ele>-54.8</ele>
        <time>2022-04-11T13:59:44Z</time>
      </trkpt>
      <trkpt lat="47.73037" lon="-3.37412">
        <ele>-53.9</ele>
        <time>2022-04-11T13:59:46Z</time>
      </trkpt>
      <trkpt lat="47.73041" lon="-3.37418">
        <ele>-53.4</ele>
        <time>2022-04-11T13:59:48Z</time>
      </trkpt>
      <trkpt lat="47.73047" lon="-3.37427">
        <ele>-50.7</ele>
        <time>2022-04-11T13:59:50Z</time>
      </trkpt>
      <trkpt lat="47.73052" lon="-3.37437">
        <ele>-47.8</ele>
        <time>2022-04-11T13:59:52Z</time>
      </trkpt>
      <trkpt lat="47.73057" lon="-3.37447">
        <ele>-45.1</ele>
        <time>2022-04-11T13:59:54Z</time>
      </trkpt>
      <trkpt lat="47.73063" lon="-3.37454">
        <ele>-43</ele>
        <time>2022-04-11T13:59:56Z</time>
      </trkpt>
      <trkpt lat="47.73068" lon="-3.37462">
        <ele>-41.9</ele>
        <time>2022-04-11T13:59:58Z</time>
      </trkpt>
      <trkpt lat="47.73074" lon="-3.37467">
        <ele>-40.9</ele>
        <time>2022-04-11T14:00:00Z</time>
      </trkpt>
      <trkpt lat="47.7308" lon="-3.37469">
        <ele>-38.7</ele>
        <time>2022-04-11T14:00:02Z</time>
      </trkpt>
      <trkpt lat="47.73085" lon="-3.37467">
        <ele>-34</ele>
        <time>2022-04-11T14:00:05Z</time>
      </trkpt>
      <trkpt lat="47.73091" lon="-3.37465">
        <ele>-31.9</ele>
        <time>2022-04-11T14:00:07Z</time>
      </trkpt>
      <trkpt lat="47.73096" lon="-3.37469">
        <ele>-31.1</ele>
        <time>2022-04-11T14:00:09Z</time>
      </trkpt>
      <trkpt lat="47.73101" lon="-3.37481">
        <ele>-31.2</ele>
        <time>2022-04-11T14:00:11Z</time>
      </trkpt>
      <trkpt lat="47.73103" lon="-3.37487">
        <ele>-30.5</ele>
        <time>2022-04-11T14:00:12Z</time>
      </trkpt>
      <trkpt lat="47.73105" lon="-3.37493">
        <ele>-30.3</ele>
        <time>2022-04-11T14:00:13Z</time>
      </trkpt>
      <trkpt lat="47.73107" lon="-3.37499">
        <ele>-29.9</ele>
        <time>2022-04-11T14:00:14Z</time>
      </trkpt>
      <trkpt lat="47.73109" lon="-3.37505">
        <ele>-29.7</ele>
        <time>2022-04-11T14:00:15Z</time>
      </trkpt>
      <trkpt lat="47.73112" lon="-3.37512">
        <ele>-29.5</ele>
        <time>2022-04-11T14:00:16Z</time>
      </trkpt>
      <trkpt lat="47.73114" lon="-3.37517">
        <ele>-29.3</ele>
        <time>2022-04-11T14:00:17Z</time>
      </trkpt>
      <trkpt lat="47.73117" lon="-3.37523">
        <ele>-29.2</ele>
        <time>2022-04-11T14:00:18Z</time>
      </trkpt>
      <trkpt lat="47.73122" lon="-3.37533">
        <ele>-28.9</ele>
        <time>2022-04-11T14:00:20Z</time>
      </trkpt>
      <trkpt lat="47.73127" lon="-3.37544">
        <ele>-28.6</ele>
        <time>2022-04-11T14:00:22Z</time>
      </trkpt>
      <trkpt lat="47.73133" lon="-3.37553">
        <ele>-29</ele>
        <time>2022-04-11T14:00:24Z</time>
      </trkpt>
      <trkpt lat="47.73137" lon="-3.37564">
        <ele>-28.6</ele>
        <time>2022-04-11T14:00:26Z</time>
      </trkpt>
      <trkpt lat="47.73142" lon="-3.37574">
        <ele>-28.3</ele>
        <time>2022-04-11T14:00:28Z</time>
      </trkpt>
      <trkpt lat="47.73147" lon="-3.37583">
        <ele>-28.4</ele>
        <time>2022-04-11T14:00:30Z</time>
      </trkpt>
      <trkpt lat="47.73151" lon="-3.37592">
        <ele>-28.7</ele>
        <time>2022-04-11T14:00:32Z</time>
      </trkpt>
      <trkpt lat="47.73156" lon="-3.376">
        <ele>-29.6</ele>
        <time>2022-04-11T14:00:34Z</time>
      </trkpt>
      <trkpt lat="47.73161" lon="-3.37607">
        <ele>-31.6</ele>
        <time>2022-04-11T14:00:36Z</time>
      </trkpt>
      <trkpt lat="47.73165" lon="-3.37615">
        <ele>-32.1</ele>
        <time>2022-04-11T14:00:38Z</time>
      </trkpt>
      <trkpt lat="47.7317" lon="-3.37623">
        <ele>-32.6</ele>
        <time>2022-04-11T14:00:40Z</time>
      </trkpt>
      <trkpt lat="47.73175" lon="-3.37632">
        <ele>-32.8</ele>
        <time>2022-04-11T14:00:42Z</time>
      </trkpt>
      <trkpt lat="47.73179" lon="-3.37641">
        <ele>-32.7</ele>
        <time>2022-04-11T14:00:44Z</time>
      </trkpt>
      <trkpt lat="47.73184" lon="-3.37649">
        <ele>-33</ele>
        <time>2022-04-11T14:00:46Z</time>
      </trkpt>
      <trkpt lat="47.73188" lon="-3.37655">
        <ele>-33.4</ele>
        <time>2022-04-11T14:00:48Z</time>
      </trkpt>
      <trkpt lat="47.73191" lon="-3.37664">
        <ele>-33.2</ele>
        <time>2022-04-11T14:00:50Z</time>
      </trkpt>
      <trkpt lat="47.73188" lon="-3.37672">
        <ele>-34.1</ele>
        <time>2022-04-11T14:00:52Z</time>
      </trkpt>
      <trkpt lat="47.73184" lon="-3.37679">
        <ele>-32.4</ele>
        <time>2022-04-11T14:00:54Z</time>
      </trkpt>
      <trkpt lat="47.73177" lon="-3.37684">
        <ele>-31.3</ele>
        <time>2022-04-11T14:00:56Z</time>
      </trkpt>
      <trkpt lat="47.73171" lon="-3.3769">
        <ele>-27.6</ele>
        <time>2022-04-11T14:00:58Z</time>
      </trkpt>
      <trkpt lat="47.73168" lon="-3.377">
        <ele>-27.3</ele>
        <time>2022-04-11T14:01:00Z</time>
      </trkpt>
      <trkpt lat="47.73171" lon="-3.37711">
        <ele>-26.8</ele>
        <time>2022-04-11T14:01:02Z</time>
      </trkpt>
      <trkpt lat="47.73174" lon="-3.37721">
        <ele>-27.6</ele>
        <time>2022-04-11T14:01:04Z</time>
      </trkpt>
      <trkpt lat="47.73177" lon="-3.37732">
        <ele>-27.3</ele>
        <time>2022-04-11T14:01:06Z</time>
      </trkpt>
      <trkpt lat="47.73178" lon="-3.37743">
        <ele>-26.8</ele>
        <time>2022-04-11T14:01:08Z</time>
      </trkpt>
      <trkpt lat="47.73177" lon="-3.37755">
        <ele>-25.1</ele>
        <time>2022-04-11T14:01:10Z</time>
      </trkpt>
      <trkpt lat="47.73175" lon="-3.37765">
        <ele>-23.9</ele>
        <time>2022-04-11T14:01:12Z</time>
      </trkpt>
      <trkpt lat="47.73169" lon="-3.37773">
        <ele>-23.7</ele>
        <time>2022-04-11T14:01:14Z</time>
      </trkpt>
      <trkpt lat="47.73166" lon="-3.37779">
        <ele>-24.5</ele>
        <time>2022-04-11T14:01:16Z</time>
      </trkpt>
      <trkpt lat="47.73163" lon="-3.37788">
        <ele>-23.6</ele>
        <time>2022-04-11T14:01:18Z</time>
      </trkpt>
      <trkpt lat="47.7316" lon="-3.37797">
        <ele>-23.2</ele>
        <time>2022-04-11T14:01:20Z</time>
      </trkpt>
      <trkpt lat="47.73157" lon="-3.37806">
        <ele>-22.8</ele>
        <time>2022-04-11T14:01:22Z</time>
      </trkpt>
      <trkpt lat="47.73152" lon="-3.37813">
        <ele>-22.2</ele>
        <time>2022-04-11T14:01:24Z</time>
      </trkpt>
      <trkpt lat="47.73147" lon="-3.37822">
        <ele>-21.8</ele>
        <time>2022-04-11T14:01:26Z</time>
      </trkpt>
      <trkpt lat="47.73142" lon="-3.3783">
        <ele>-21.3</ele>
        <time>2022-04-11T14:01:28Z</time>
      </trkpt>
      <trkpt lat="47.73139" lon="-3.37838">
        <ele>-20.8</ele>
        <time>2022-04-11T14:01:30Z</time>
      </trkpt>
      <trkpt lat="47.73139" lon="-3.37847">
        <ele>-20.6</ele>
        <time>2022-04-11T14:01:32Z</time>
      </trkpt>
      <trkpt lat="47.73143" lon="-3.37855">
        <ele>-20.7</ele>
        <time>2022-04-11T14:01:34Z</time>
      </trkpt>
      <trkpt lat="47.73145" lon="-3.37865">
        <ele>-21.2</ele>
        <time>2022-04-11T14:01:36Z</time>
      </trkpt>
      <trkpt lat="47.73148" lon="-3.37874">
        <ele>-21.7</ele>
        <time>2022-04-11T14:01:38Z</time>
      </trkpt>
      <trkpt lat="47.73151" lon="-3.37882">
        <ele>-22.1</ele>
        <time>2022-04-11T14:01:40Z</time>
      </trkpt>
      <trkpt lat="47.73152" lon="-3.3789">
        <ele>-22.4</ele>
        <time>2022-04-11T14:01:42Z</time>
      </trkpt>
      <trkpt lat="47.73154" lon="-3.379">
        <ele>-22.4</ele>
        <time>2022-04-11T14:01:44Z</time>
      </trkpt>
      <trkpt lat="47.73155" lon="-3.37911">
        <ele>-22</ele>
        <time>2022-04-11T14:01:46Z</time>
      </trkpt>
      <trkpt lat="47.73157" lon="-3.37921">
        <ele>-21.6</ele>
        <time>2022-04-11T14:01:48Z</time>
      </trkpt>
      <trkpt lat="47.73159" lon="-3.3793">
        <ele>-20.8</ele>
        <time>2022-04-11T14:01:50Z</time>
      </trkpt>
      <trkpt lat="47.73161" lon="-3.3794">
        <ele>-20.5</ele>
        <time>2022-04-11T14:01:52Z</time>
      </trkpt>
      <trkpt lat="47.73164" lon="-3.37948">
        <ele>-20.5</ele>
        <time>2022-04-11T14:01:54Z</time>
      </trkpt>
      <trkpt lat="47.73169" lon="-3.37954">
        <ele>-20.4</ele>
        <time>2022-04-11T14:01:56Z</time>
      </trkpt>
      <trkpt lat="47.73172" lon="-3.37961">
        <ele>-19.8</ele>
        <time>2022-04-11T14:01:58Z</time>
      </trkpt>
      <trkpt lat="47.73176" lon="-3.37964">
        <ele>-19.5</ele>
        <time>2022-04-11T14:02:00Z</time>
      </trkpt>
      <trkpt lat="47.73182" lon="-3.3797">
        <ele>-19.4</ele>
        <time>2022-04-11T14:02:03Z</time>
      </trkpt>
      <trkpt lat="47.73186" lon="-3.37978">
        <ele>-20.9</ele>
        <time>2022-04-11T14:02:05Z</time>
      </trkpt>
      <trkpt lat="47.73187" lon="-3.37989">
        <ele>-20.1</ele>
        <time>2022-04-11T14:02:07Z</time>
      </trkpt>
      <trkpt lat="47.73186" lon="-3.38">
        <ele>-21.3</ele>
        <time>2022-04-11T14:02:09Z</time>
      </trkpt>
      <trkpt lat="47.73185" lon="-3.38006">
        <ele>-20.9</ele>
        <time>2022-04-11T14:02:10Z</time>
      </trkpt>
      <trkpt lat="47.73182" lon="-3.38013">
        <ele>-20.7</ele>
        <time>2022-04-11T14:02:11Z</time>
      </trkpt>
      <trkpt lat="47.73181" lon="-3.38019">
        <ele>-20.6</ele>
        <time>2022-04-11T14:02:12Z</time>
      </trkpt>
      <trkpt lat="47.7318" lon="-3.38027">
        <ele>-21.3</ele>
        <time>2022-04-11T14:02:13Z</time>
      </trkpt>
      <trkpt lat="47.7318" lon="-3.38035">
        <ele>-21.9</ele>
        <time>2022-04-11T14:02:14Z</time>
      </trkpt>
      <trkpt lat="47.7318" lon="-3.38043">
        <ele>-22.3</ele>
        <time>2022-04-11T14:02:15Z</time>
      </trkpt>
      <trkpt lat="47.7318" lon="-3.3805">
        <ele>-22.2</ele>
        <time>2022-04-11T14:02:16Z</time>
      </trkpt>
      <trkpt lat="47.73181" lon="-3.38057">
        <ele>-22.1</ele>
        <time>2022-04-11T14:02:17Z</time>
      </trkpt>
      <trkpt lat="47.73182" lon="-3.38064">
        <ele>-22.1</ele>
        <time>2022-04-11T14:02:18Z</time>
      </trkpt>
      <trkpt lat="47.73183" lon="-3.38071">
        <ele>-22</ele>
        <time>2022-04-11T14:02:19Z</time>
      </trkpt>
      <trkpt lat="47.73186" lon="-3.38083">
        <ele>-22.4</ele>
        <time>2022-04-11T14:02:21Z</time>
      </trkpt>
      <trkpt lat="47.7319" lon="-3.38091">
        <ele>-22.8</ele>
        <time>2022-04-11T14:02:23Z</time>
      </trkpt>
      <trkpt lat="47.73193" lon="-3.38098">
        <ele>-21.6</ele>
        <time>2022-04-11T14:02:25Z</time>
      </trkpt>
      <trkpt lat="47.73193" lon="-3.38105">
        <ele>-20.6</ele>
        <time>2022-04-11T14:02:37Z</time>
      </trkpt>
      <trkpt lat="47.73194" lon="-3.38112">
        <ele>-18.9</ele>
        <time>2022-04-11T14:02:40Z</time>
      </trkpt>
      <trkpt lat="47.73194" lon="-3.3812">
        <ele>-18.5</ele>
        <time>2022-04-11T14:02:42Z</time>
      </trkpt>
      <trkpt lat="47.73193" lon="-3.38128">
        <ele>-18.9</ele>
        <time>2022-04-11T14:02:44Z</time>
      </trkpt>
      <trkpt lat="47.73193" lon="-3.38136">
        <ele>-19</ele>
        <time>2022-04-11T14:02:46Z</time>
      </trkpt>
      <trkpt lat="47.73194" lon="-3.38145">
        <ele>-18.5</ele>
        <time>2022-04-11T14:02:48Z</time>
      </trkpt>
      <trkpt lat="47.73194" lon="-3.38153">
        <ele>-18.4</ele>
        <time>2022-04-11T14:02:50Z</time>
      </trkpt>
      <trkpt lat="47.73195" lon="-3.38161">
        <ele>-18.2</ele>
        <time>2022-04-11T14:02:52Z</time>
      </trkpt>
      <trkpt lat="47.73196" lon="-3.38168">
        <ele>-18.2</ele>
        <time>2022-04-11T14:02:54Z</time>
      </trkpt>
      <trkpt lat="47.73196" lon="-3.38175">
        <ele>-17.6</ele>
        <time>2022-04-11T14:02:56Z</time>
      </trkpt>
      <trkpt lat="47.73195" lon="-3.38184">
        <ele>-17.1</ele>
        <time>2022-04-11T14:02:59Z</time>
      </trkpt>
      <trkpt lat="47.73193" lon="-3.38193">
        <ele>-17.3</ele>
        <time>2022-04-11T14:03:02Z</time>
      </trkpt>
      <trkpt lat="47.73191" lon="-3.38199">
        <ele>-17.4</ele>
        <time>2022-04-11T14:03:04Z</time>
      </trkpt>
      <trkpt lat="47.73189" lon="-3.38207">
        <ele>-17.1</ele>
        <time>2022-04-11T14:03:06Z</time>
      </trkpt>
      <trkpt lat="47.73187" lon="-3.38215">
        <ele>-16.9</ele>
        <time>2022-04-11T14:03:08Z</time>
      </trkpt>
      <trkpt lat="47.73186" lon="-3.38223">
        <ele>-16</ele>
        <time>2022-04-11T14:03:10Z</time>
      </trkpt>
      <trkpt lat="47.73183" lon="-3.38232">
        <ele>-15.4</ele>
        <time>2022-04-11T14:03:12Z</time>
      </trkpt>
      <trkpt lat="47.73181" lon="-3.38242">
        <ele>-15.3</ele>
        <time>2022-04-11T14:03:14Z</time>
      </trkpt>
      <trkpt lat="47.7318" lon="-3.38251">
        <ele>-14.9</ele>
        <time>2022-04-11T14:03:16Z</time>
      </trkpt>
      <trkpt lat="47.73178" lon="-3.38258">
        <ele>-14.9</ele>
        <time>2022-04-11T14:03:18Z</time>
      </trkpt>
      <trkpt lat="47.73178" lon="-3.38267">
        <ele>-13.8</ele>
        <time>2022-04-11T14:03:21Z</time>
      </trkpt>
      <trkpt lat="47.73181" lon="-3.38273">
        <ele>-11.8</ele>
        <time>2022-04-11T14:03:32Z</time>
      </trkpt>
      <trkpt lat="47.73186" lon="-3.38277">
        <ele>-12.4</ele>
        <time>2022-04-11T14:03:39Z</time>
      </trkpt>
      <trkpt lat="47.73188" lon="-3.38286">
        <ele>-11.4</ele>
        <time>2022-04-11T14:03:50Z</time>
      </trkpt>
      <trkpt lat="47.73189" lon="-3.38294">
        <ele>-12.2</ele>
        <time>2022-04-11T14:03:53Z</time>
      </trkpt>
      <trkpt lat="47.73192" lon="-3.383">
        <ele>-12.8</ele>
        <time>2022-04-11T14:03:55Z</time>
      </trkpt>
      <trkpt lat="47.73194" lon="-3.3831">
        <ele>-11.9</ele>
        <time>2022-04-11T14:03:58Z</time>
      </trkpt>
      <trkpt lat="47.73194" lon="-3.38317">
        <ele>-11.8</ele>
        <time>2022-04-11T14:04:00Z</time>
      </trkpt>
      <trkpt lat="47.73192" lon="-3.38323">
        <ele>-11.8</ele>
        <time>2022-04-11T14:04:02Z</time>
      </trkpt>
      <trkpt lat="47.73193" lon="-3.38334">
        <ele>-12.7</ele>
        <time>2022-04-11T14:04:05Z</time>
      </trkpt>
      <trkpt lat="47.73194" lon="-3.38342">
        <ele>-13.8</ele>
        <time>2022-04-11T14:04:07Z</time>
      </trkpt>
      <trkpt lat="47.73196" lon="-3.38348">
        <ele>-15.2</ele>
        <time>2022-04-11T14:04:09Z</time>
      </trkpt>
      <trkpt lat="47.73197" lon="-3.38356">
        <ele>-14.9</ele>
        <time>2022-04-11T14:04:12Z</time>
      </trkpt>
      <trkpt lat="47.73197" lon="-3.38365">
        <ele>-11.6</ele>
        <time>2022-04-11T14:04:15Z</time>
      </trkpt>
      <trkpt lat="47.73196" lon="-3.38372">
        <ele>-11.5</ele>
        <time>2022-04-11T14:04:22Z</time>
      </trkpt>
      <trkpt lat="47.73197" lon="-3.38379">
        <ele>-12.1</ele>
        <time>2022-04-11T14:04:25Z</time>
      </trkpt>
      <trkpt lat="47.732" lon="-3.38388">
        <ele>-11.1</ele>
        <time>2022-04-11T14:04:28Z</time>
      </trkpt>
      <trkpt lat="47.73201" lon="-3.38395">
        <ele>-10.2</ele>
        <time>2022-04-11T14:04:30Z</time>
      </trkpt>
      <trkpt lat="47.73202" lon="-3.38402">
        <ele>-10</ele>
        <time>2022-04-11T14:04:32Z</time>
      </trkpt>
      <trkpt lat="47.73202" lon="-3.38411">
        <ele>-10</ele>
        <time>2022-04-11T14:04:34Z</time>
      </trkpt>
      <trkpt lat="47.73202" lon="-3.38421">
        <ele>-11.3</ele>
        <time>2022-04-11T14:04:36Z</time>
      </trkpt>
      <trkpt lat="47.73202" lon="-3.38434">
        <ele>-13.1</ele>
        <time>2022-04-11T14:04:38Z</time>
      </trkpt>
      <trkpt lat="47.73202" lon="-3.38442">
        <ele>-12.9</ele>
        <time>2022-04-11T14:04:39Z</time>
      </trkpt>
      <trkpt lat="47.73204" lon="-3.38453">
        <ele>-12.6</ele>
        <time>2022-04-11T14:04:41Z</time>
      </trkpt>
      <trkpt lat="47.73207" lon="-3.38464">
        <ele>-12.7</ele>
        <time>2022-04-11T14:04:43Z</time>
      </trkpt>
      <trkpt lat="47.73209" lon="-3.38472">
        <ele>-13.3</ele>
        <time>2022-04-11T14:04:45Z</time>
      </trkpt>
      <trkpt lat="47.73212" lon="-3.38481">
        <ele>-13.7</ele>
        <time>2022-04-11T14:04:47Z</time>
      </trkpt>
      <trkpt lat="47.73214" lon="-3.38492">
        <ele>-14.4</ele>
        <time>2022-04-11T14:04:49Z</time>
      </trkpt>
      <trkpt lat="47.73216" lon="-3.38503">
        <ele>-14.6</ele>
        <time>2022-04-11T14:04:51Z</time>
      </trkpt>
      <trkpt lat="47.73221" lon="-3.38512">
        <ele>-14.4</ele>
        <time>2022-04-11T14:04:53Z</time>
      </trkpt>
      <trkpt lat="47.73225" lon="-3.38521">
        <ele>-13.9</ele>
        <time>2022-04-11T14:04:55Z</time>
      </trkpt>
      <trkpt lat="47.73228" lon="-3.3853">
        <ele>-14.5</ele>
        <time>2022-04-11T14:04:57Z</time>
      </trkpt>
      <trkpt lat="47.73231" lon="-3.38539">
        <ele>-15.1</ele>
        <time>2022-04-11T14:04:59Z</time>
      </trkpt>
      <trkpt lat="47.73235" lon="-3.38547">
        <ele>-15.6</ele>
        <time>2022-04-11T14:05:01Z</time>
      </trkpt>
      <trkpt lat="47.73238" lon="-3.38554">
        <ele>-16.1</ele>
        <time>2022-04-11T14:05:03Z</time>
      </trkpt>
      <trkpt lat="47.73239" lon="-3.38562">
        <ele>-14.6</ele>
        <time>2022-04-11T14:05:05Z</time>
      </trkpt>
      <trkpt lat="47.73238" lon="-3.38569">
        <ele>-12.7</ele>
        <time>2022-04-11T14:05:06Z</time>
      </trkpt>
      <trkpt lat="47.73235" lon="-3.38575">
        <ele>-12.4</ele>
        <time>2022-04-11T14:05:07Z</time>
      </trkpt>
      <trkpt lat="47.73229" lon="-3.38584">
        <ele>-11.7</ele>
        <time>2022-04-11T14:05:09Z</time>
      </trkpt>
      <trkpt lat="47.73223" lon="-3.38591">
        <ele>-11.8</ele>
        <time>2022-04-11T14:05:11Z</time>
      </trkpt>
      <trkpt lat="47.73217" lon="-3.38597">
        <ele>-10.9</ele>
        <time>2022-04-11T14:05:13Z</time>
      </trkpt>
      <trkpt lat="47.73213" lon="-3.386">
        <ele>-10.1</ele>
        <time>2022-04-11T14:05:14Z</time>
      </trkpt>
      <trkpt lat="47.73209" lon="-3.38602">
        <ele>-9.8</ele>
        <time>2022-04-11T14:05:15Z</time>
      </trkpt>
      <trkpt lat="47.73201" lon="-3.38605">
        <ele>-10.2</ele>
        <time>2022-04-11T14:05:17Z</time>
      </trkpt>
      <trkpt lat="47.73193" lon="-3.38608">
        <ele>-10.7</ele>
        <time>2022-04-11T14:05:19Z</time>
      </trkpt>
      <trkpt lat="47.73184" lon="-3.38608">
        <ele>-10.6</ele>
        <time>2022-04-11T14:05:21Z</time>
      </trkpt>
      <trkpt lat="47.7318" lon="-3.38608">
        <ele>-10.7</ele>
        <time>2022-04-11T14:05:22Z</time>
      </trkpt>
      <trkpt lat="47.73175" lon="-3.38609">
        <ele>-10.5</ele>
        <time>2022-04-11T14:05:23Z</time>
      </trkpt>
      <trkpt lat="47.7317" lon="-3.38609">
        <ele>-10.4</ele>
        <time>2022-04-11T14:05:24Z</time>
      </trkpt>
      <trkpt lat="47.73166" lon="-3.38609">
        <ele>-10.3</ele>
        <time>2022-04-11T14:05:25Z</time>
      </trkpt>
      <trkpt lat="47.73161" lon="-3.3861">
        <ele>-10.1</ele>
        <time>2022-04-11T14:05:26Z</time>
      </trkpt>
      <trkpt lat="47.73156" lon="-3.38611">
        <ele>-10.2</ele>
        <time>2022-04-11T14:05:27Z</time>
      </trkpt>
      <trkpt lat="47.73147" lon="-3.38611">
        <ele>-10.7</ele>
        <time>2022-04-11T14:05:29Z</time>
      </trkpt>
      <trkpt lat="47.73142" lon="-3.3861">
        <ele>-11</ele>
        <time>2022-04-11T14:05:30Z</time>
      </trkpt>
      <trkpt lat="47.73137" lon="-3.38609">
        <ele>-11.2</ele>
        <time>2022-04-11T14:05:31Z</time>
      </trkpt>
      <trkpt lat="47.73132" lon="-3.38607">
        <ele>-11.4</ele>
        <time>2022-04-11T14:05:32Z</time>
      </trkpt>
      <trkpt lat="47.73127" lon="-3.38607">
        <ele>-11.3</ele>
        <time>2022-04-11T14:05:33Z</time>
      </trkpt>
      <trkpt lat="47.73122" lon="-3.38607">
        <ele>-11.4</ele>
        <time>2022-04-11T14:05:34Z</time>
      </trkpt>
      <trkpt lat="47.73117" lon="-3.38607">
        <ele>-11.4</ele>
        <time>2022-04-11T14:05:35Z</time>
      </trkpt>
      <trkpt lat="47.73111" lon="-3.38607">
        <ele>-11.1</ele>
        <time>2022-04-11T14:05:36Z</time>
      </trkpt>
      <trkpt lat="47.73105" lon="-3.38607">
        <ele>-11</ele>
        <time>2022-04-11T14:05:37Z</time>
      </trkpt>
      <trkpt lat="47.731" lon="-3.38607">
        <ele>-11</ele>
        <time>2022-04-11T14:05:38Z</time>
      </trkpt>
      <trkpt lat="47.73094" lon="-3.38606">
        <ele>-10.7</ele>
        <time>2022-04-11T14:05:39Z</time>
      </trkpt>
      <trkpt lat="47.73089" lon="-3.38605">
        <ele>-10.4</ele>
        <time>2022-04-11T14:05:40Z</time>
      </trkpt>
      <trkpt lat="47.73083" lon="-3.38605">
        <ele>-10</ele>
        <time>2022-04-11T14:05:41Z</time>
      </trkpt>
      <trkpt lat="47.73078" lon="-3.38604">
        <ele>-9.8</ele>
        <time>2022-04-11T14:05:42Z</time>
      </trkpt>
      <trkpt lat="47.73073" lon="-3.38603">
        <ele>-9.1</ele>
        <time>2022-04-11T14:05:43Z</time>
      </trkpt>
      <trkpt lat="47.73067" lon="-3.38602">
        <ele>-8.9</ele>
        <time>2022-04-11T14:05:44Z</time>
      </trkpt>
      <trkpt lat="47.73062" lon="-3.38601">
        <ele>-8.5</ele>
        <time>2022-04-11T14:05:45Z</time>
      </trkpt>
      <trkpt lat="47.73057" lon="-3.386">
        <ele>-8</ele>
        <time>2022-04-11T14:05:46Z</time>
      </trkpt>
      <trkpt lat="47.73052" lon="-3.38598">
        <ele>-7.7</ele>
        <time>2022-04-11T14:05:47Z</time>
      </trkpt>
      <trkpt lat="47.73048" lon="-3.38596">
        <ele>-7.3</ele>
        <time>2022-04-11T14:05:48Z</time>
      </trkpt>
      <trkpt lat="47.73043" lon="-3.38594">
        <ele>-7.1</ele>
        <time>2022-04-11T14:05:49Z</time>
      </trkpt>
      <trkpt lat="47.73035" lon="-3.38588">
        <ele>-6.5</ele>
        <time>2022-04-11T14:05:51Z</time>
      </trkpt>
      <trkpt lat="47.73032" lon="-3.38583">
        <ele>-6.6</ele>
        <time>2022-04-11T14:05:52Z</time>
      </trkpt>
      <trkpt lat="47.73029" lon="-3.38573">
        <ele>-5.8</ele>
        <time>2022-04-11T14:05:54Z</time>
      </trkpt>
      <trkpt lat="47.73025" lon="-3.38563">
        <ele>-5.1</ele>
        <time>2022-04-11T14:05:56Z</time>
      </trkpt>
      <trkpt lat="47.7302" lon="-3.38553">
        <ele>-3.7</ele>
        <time>2022-04-11T14:05:58Z</time>
      </trkpt>
      <trkpt lat="47.73015" lon="-3.38547">
        <ele>-3.3</ele>
        <time>2022-04-11T14:06:00Z</time>
      </trkpt>
      <trkpt lat="47.7301" lon="-3.38544">
        <ele>-3.1</ele>
        <time>2022-04-11T14:06:02Z</time>
      </trkpt>
      <trkpt lat="47.73005" lon="-3.38543">
        <ele>-2.2</ele>
        <time>2022-04-11T14:06:04Z</time>
      </trkpt>
      <trkpt lat="47.73" lon="-3.38542">
        <ele>-1.7</ele>
        <time>2022-04-11T14:06:06Z</time>
      </trkpt>
      <trkpt lat="47.72996" lon="-3.38539">
        <ele>-1.8</ele>
        <time>2022-04-11T14:06:08Z</time>
      </trkpt>
      <trkpt lat="47.72991" lon="-3.38534">
        <ele>-1.5</ele>
        <time>2022-04-11T14:06:10Z</time>
      </trkpt>
      <trkpt lat="47.72986" lon="-3.38529">
        <ele>-1.7</ele>
        <time>2022-04-11T14:06:12Z</time>
      </trkpt>
      <trkpt lat="47.72982" lon="-3.38523">
        <ele>-1.4</ele>
        <time>2022-04-11T14:06:14Z</time>
      </trkpt>
      <trkpt lat="47.72978" lon="-3.38517">
        <ele>-1.5</ele>
        <time>2022-04-11T14:06:16Z</time>
      </trkpt>
      <trkpt lat="47.72973" lon="-3.3851">
        <ele>-2.5</ele>
        <time>2022-04-11T14:06:18Z</time>
      </trkpt>
      <trkpt lat="47.72969" lon="-3.38505">
        <ele>-2.6</ele>
        <time>2022-04-11T14:06:20Z</time>
      </trkpt>
      <trkpt lat="47.72964" lon="-3.38501">
        <ele>-1.9</ele>
        <time>2022-04-11T14:06:22Z</time>
      </trkpt>
      <trkpt lat="47.7296" lon="-3.38496">
        <ele>-1.8</ele>
        <time>2022-04-11T14:06:24Z</time>
      </trkpt>
      <trkpt lat="47.72956" lon="-3.3849">
        <ele>-1.6</ele>
        <time>2022-04-11T14:06:26Z</time>
      </trkpt>
      <trkpt lat="47.72954" lon="-3.38484">
        <ele>-1</ele>
        <time>2022-04-11T14:06:28Z</time>
      </trkpt>
      <trkpt lat="47.72953" lon="-3.38476">
        <ele>-0.7</ele>
        <time>2022-04-11T14:06:30Z</time>
      </trkpt>
      <trkpt lat="47.72954" lon="-3.38468">
        <ele>-0.2</ele>
        <time>2022-04-11T14:06:32Z</time>
      </trkpt>
      <trkpt lat="47.72956" lon="-3.38458">
        <ele>-0.2</ele>
        <time>2022-04-11T14:06:34Z</time>
      </trkpt>
      <trkpt lat="47.72957" lon="-3.38446">
        <ele>-0.6</ele>
        <time>2022-04-11T14:06:36Z</time>
      </trkpt>
      <trkpt lat="47.72958" lon="-3.38439">
        <ele>-0.3</ele>
        <time>2022-04-11T14:06:37Z</time>
      </trkpt>
      <trkpt lat="47.72958" lon="-3.38432">
        <ele>-0.3</ele>
        <time>2022-04-11T14:06:38Z</time>
      </trkpt>
      <trkpt lat="47.72958" lon="-3.38425">
        <ele>0.3</ele>
        <time>2022-04-11T14:06:39Z</time>
      </trkpt>
      <trkpt lat="47.72958" lon="-3.38418">
        <ele>0.4</ele>
        <time>2022-04-11T14:06:40Z</time>
      </trkpt>
      <trkpt lat="47.72959" lon="-3.38411">
        <ele>0.7</ele>
        <time>2022-04-11T14:06:41Z</time>
      </trkpt>
      <trkpt lat="47.72959" lon="-3.38404">
        <ele>1</ele>
        <time>2022-04-11T14:06:42Z</time>
      </trkpt>
      <trkpt lat="47.7296" lon="-3.38397">
        <ele>1.1</ele>
        <time>2022-04-11T14:06:43Z</time>
      </trkpt>
      <trkpt lat="47.7296" lon="-3.3839">
        <ele>1.2</ele>
        <time>2022-04-11T14:06:44Z</time>
      </trkpt>
      <trkpt lat="47.72961" lon="-3.38382">
        <ele>1.3</ele>
        <time>2022-04-11T14:06:45Z</time>
      </trkpt>
      <trkpt lat="47.72962" lon="-3.38375">
        <ele>1.4</ele>
        <time>2022-04-11T14:06:46Z</time>
      </trkpt>
      <trkpt lat="47.72963" lon="-3.38368">
        <ele>1.4</ele>
        <time>2022-04-11T14:06:47Z</time>
      </trkpt>
      <trkpt lat="47.72965" lon="-3.38361">
        <ele>1.4</ele>
        <time>2022-04-11T14:06:48Z</time>
      </trkpt>
      <trkpt lat="47.72967" lon="-3.38355">
        <ele>1.5</ele>
        <time>2022-04-11T14:06:49Z</time>
      </trkpt>
      <trkpt lat="47.72969" lon="-3.38348">
        <ele>1.7</ele>
        <time>2022-04-11T14:06:50Z</time>
      </trkpt>
      <trkpt lat="47.72972" lon="-3.38342">
        <ele>1.9</ele>
        <time>2022-04-11T14:06:51Z</time>
      </trkpt>
      <trkpt lat="47.72974" lon="-3.38335">
        <ele>2.1</ele>
        <time>2022-04-11T14:06:52Z</time>
      </trkpt>
      <trkpt lat="47.72976" lon="-3.38329">
        <ele>2.2</ele>
        <time>2022-04-11T14:06:53Z</time>
      </trkpt>
      <trkpt lat="47.72978" lon="-3.38322">
        <ele>2</ele>
        <time>2022-04-11T14:06:54Z</time>
      </trkpt>
      <trkpt lat="47.7298" lon="-3.38314">
        <ele>1.9</ele>
        <time>2022-04-11T14:06:55Z</time>
      </trkpt>
      <trkpt lat="47.72981" lon="-3.38306">
        <ele>2</ele>
        <time>2022-04-11T14:06:56Z</time>
      </trkpt>
      <trkpt lat="47.72982" lon="-3.38297">
        <ele>2</ele>
        <time>2022-04-11T14:06:57Z</time>
      </trkpt>
      <trkpt lat="47.72983" lon="-3.38289">
        <ele>1.9</ele>
        <time>2022-04-11T14:06:58Z</time>
      </trkpt>
      <trkpt lat="47.72982" lon="-3.38281">
        <ele>1.6</ele>
        <time>2022-04-11T14:06:59Z</time>
      </trkpt>
      <trkpt lat="47.72982" lon="-3.38274">
        <ele>1.5</ele>
        <time>2022-04-11T14:07:00Z</time>
      </trkpt>
      <trkpt lat="47.72979" lon="-3.38263">
        <ele>1.7</ele>
        <time>2022-04-11T14:07:02Z</time>
      </trkpt>
      <trkpt lat="47.72973" lon="-3.38254">
        <ele>2.1</ele>
        <time>2022-04-11T14:07:04Z</time>
      </trkpt>
      <trkpt lat="47.72967" lon="-3.38245">
        <ele>2.4</ele>
        <time>2022-04-11T14:07:06Z</time>
      </trkpt>
      <trkpt lat="47.72961" lon="-3.38236">
        <ele>2.5</ele>
        <time>2022-04-11T14:07:08Z</time>
      </trkpt>
      <trkpt lat="47.72957" lon="-3.38227">
        <ele>1.7</ele>
        <time>2022-04-11T14:07:10Z</time>
      </trkpt>
      <trkpt lat="47.72952" lon="-3.38218">
        <ele>1.5</ele>
        <time>2022-04-11T14:07:12Z</time>
      </trkpt>
      <trkpt lat="47.72948" lon="-3.38209">
        <ele>0.9</ele>
        <time>2022-04-11T14:07:14Z</time>
      </trkpt>
      <trkpt lat="47.72943" lon="-3.38201">
        <ele>0.3</ele>
        <time>2022-04-11T14:07:16Z</time>
      </trkpt>
      <trkpt lat="47.72937" lon="-3.38197">
        <ele>-0.4</ele>
        <time>2022-04-11T14:07:18Z</time>
      </trkpt>
      <trkpt lat="47.7293" lon="-3.38193">
        <ele>0.6</ele>
        <time>2022-04-11T14:07:20Z</time>
      </trkpt>
      <trkpt lat="47.72923" lon="-3.38188">
        <ele>1</ele>
        <time>2022-04-11T14:07:22Z</time>
      </trkpt>
      <trkpt lat="47.72917" lon="-3.38181">
        <ele>0.2</ele>
        <time>2022-04-11T14:07:24Z</time>
      </trkpt>
      <trkpt lat="47.72912" lon="-3.38174">
        <ele>-0.1</ele>
        <time>2022-04-11T14:07:26Z</time>
      </trkpt>
      <trkpt lat="47.72907" lon="-3.38165">
        <ele>0.1</ele>
        <time>2022-04-11T14:07:28Z</time>
      </trkpt>
      <trkpt lat="47.72904" lon="-3.3816">
        <ele>-0.1</ele>
        <time>2022-04-11T14:07:29Z</time>
      </trkpt>
      <trkpt lat="47.729" lon="-3.38154">
        <ele>-0.5</ele>
        <time>2022-04-11T14:07:30Z</time>
      </trkpt>
      <trkpt lat="47.72897" lon="-3.38149">
        <ele>-0.8</ele>
        <time>2022-04-11T14:07:31Z</time>
      </trkpt>
      <trkpt lat="47.72893" lon="-3.38144">
        <ele>-1</ele>
        <time>2022-04-11T14:07:32Z</time>
      </trkpt>
      <trkpt lat="47.7289" lon="-3.3814">
        <ele>-1.8</ele>
        <time>2022-04-11T14:07:33Z</time>
      </trkpt>
      <trkpt lat="47.72883" lon="-3.38133">
        <ele>-2.8</ele>
        <time>2022-04-11T14:07:35Z</time>
      </trkpt>
      <trkpt lat="47.72876" lon="-3.38128">
        <ele>-3.5</ele>
        <time>2022-04-11T14:07:37Z</time>
      </trkpt>
      <trkpt lat="47.72868" lon="-3.38123">
        <ele>-4.5</ele>
        <time>2022-04-11T14:07:39Z</time>
      </trkpt>
      <trkpt lat="47.72859" lon="-3.3812">
        <ele>-5.5</ele>
        <time>2022-04-11T14:07:41Z</time>
      </trkpt>
      <trkpt lat="47.72855" lon="-3.38118">
        <ele>-5.7</ele>
        <time>2022-04-11T14:07:42Z</time>
      </trkpt>
      <trkpt lat="47.7285" lon="-3.38117">
        <ele>-6</ele>
        <time>2022-04-11T14:07:43Z</time>
      </trkpt>
      <trkpt lat="47.72845" lon="-3.38116">
        <ele>-6.4</ele>
        <time>2022-04-11T14:07:44Z</time>
      </trkpt>
      <trkpt lat="47.7284" lon="-3.38116">
        <ele>-6.6</ele>
        <time>2022-04-11T14:07:45Z</time>
      </trkpt>
      <trkpt lat="47.72836" lon="-3.38117">
        <ele>-7.4</ele>
        <time>2022-04-11T14:07:46Z</time>
      </trkpt>
      <trkpt lat="47.7283" lon="-3.38115">
        <ele>-7.8</ele>
        <time>2022-04-11T14:07:47Z</time>
      </trkpt>
      <trkpt lat="47.72825" lon="-3.38111">
        <ele>-7.3</ele>
        <time>2022-04-11T14:07:48Z</time>
      </trkpt>
      <trkpt lat="47.72821" lon="-3.38105">
        <ele>-7.2</ele>
        <time>2022-04-11T14:07:49Z</time>
      </trkpt>
      <trkpt lat="47.72817" lon="-3.38099">
        <ele>-8.1</ele>
        <time>2022-04-11T14:07:50Z</time>
      </trkpt>
      <trkpt lat="47.72812" lon="-3.38094">
        <ele>-8.7</ele>
        <time>2022-04-11T14:07:51Z</time>
      </trkpt>
      <trkpt lat="47.72807" lon="-3.3809">
        <ele>-8.9</ele>
        <time>2022-04-11T14:07:52Z</time>
      </trkpt>
      <trkpt lat="47.72802" lon="-3.38087">
        <ele>-9</ele>
        <time>2022-04-11T14:07:53Z</time>
      </trkpt>
      <trkpt lat="47.72798" lon="-3.38084">
        <ele>-8.9</ele>
        <time>2022-04-11T14:07:54Z</time>
      </trkpt>
      <trkpt lat="47.72793" lon="-3.38082">
        <ele>-8.9</ele>
        <time>2022-04-11T14:07:55Z</time>
      </trkpt>
      <trkpt lat="47.72788" lon="-3.38083">
        <ele>-9</ele>
        <time>2022-04-11T14:07:56Z</time>
      </trkpt>
      <trkpt lat="47.7278" lon="-3.38082">
        <ele>-7.7</ele>
        <time>2022-04-11T14:07:58Z</time>
      </trkpt>
      <trkpt lat="47.72774" lon="-3.38079">
        <ele>-7.6</ele>
        <time>2022-04-11T14:08:00Z</time>
      </trkpt>
      <trkpt lat="47.72768" lon="-3.38074">
        <ele>-7.3</ele>
        <time>2022-04-11T14:08:02Z</time>
      </trkpt>
      <trkpt lat="47.72766" lon="-3.38066">
        <ele>-5.8</ele>
        <time>2022-04-11T14:08:04Z</time>
      </trkpt>
      <trkpt lat="47.72764" lon="-3.38057">
        <ele>-5.2</ele>
        <time>2022-04-11T14:08:06Z</time>
      </trkpt>
      <trkpt lat="47.72762" lon="-3.38047">
        <ele>-4.9</ele>
        <time>2022-04-11T14:08:08Z</time>
      </trkpt>
      <trkpt lat="47.7276" lon="-3.38038">
        <ele>-4.2</ele>
        <time>2022-04-11T14:08:10Z</time>
      </trkpt>
      <trkpt lat="47.7276" lon="-3.3803">
        <ele>-3.6</ele>
        <time>2022-04-11T14:08:12Z</time>
      </trkpt>
      <trkpt lat="47.7276" lon="-3.3802">
        <ele>-3.6</ele>
        <time>2022-04-11T14:08:14Z</time>
      </trkpt>
      <trkpt lat="47.7276" lon="-3.38012">
        <ele>-3.5</ele>
        <time>2022-04-11T14:08:16Z</time>
      </trkpt>
      <trkpt lat="47.72761" lon="-3.38002">
        <ele>-3.4</ele>
        <time>2022-04-11T14:08:18Z</time>
      </trkpt>
      <trkpt lat="47.72762" lon="-3.3799">
        <ele>-3.4</ele>
        <time>2022-04-11T14:08:20Z</time>
      </trkpt>
      <trkpt lat="47.72764" lon="-3.37978">
        <ele>-2.9</ele>
        <time>2022-04-11T14:08:22Z</time>
      </trkpt>
      <trkpt lat="47.72766" lon="-3.37965">
        <ele>-1.8</ele>
        <time>2022-04-11T14:08:24Z</time>
      </trkpt>
      <trkpt lat="47.72766" lon="-3.37955">
        <ele>-1.9</ele>
        <time>2022-04-11T14:08:26Z</time>
      </trkpt>
      <trkpt lat="47.72764" lon="-3.37945">
        <ele>-1.5</ele>
        <time>2022-04-11T14:08:28Z</time>
      </trkpt>
      <trkpt lat="47.72762" lon="-3.37932">
        <ele>-1.7</ele>
        <time>2022-04-11T14:08:30Z</time>
      </trkpt>
      <trkpt lat="47.72761" lon="-3.37925">
        <ele>-1.5</ele>
        <time>2022-04-11T14:08:31Z</time>
      </trkpt>
      <trkpt lat="47.7276" lon="-3.37918">
        <ele>-1.4</ele>
        <time>2022-04-11T14:08:32Z</time>
      </trkpt>
      <trkpt lat="47.72758" lon="-3.37911">
        <ele>-1.5</ele>
        <time>2022-04-11T14:08:33Z</time>
      </trkpt>
      <trkpt lat="47.72756" lon="-3.37905">
        <ele>-1.7</ele>
        <time>2022-04-11T14:08:34Z</time>
      </trkpt>
      <trkpt lat="47.72753" lon="-3.37899">
        <ele>-1.5</ele>
        <time>2022-04-11T14:08:35Z</time>
      </trkpt>
      <trkpt lat="47.72751" lon="-3.37893">
        <ele>-1.8</ele>
        <time>2022-04-11T14:08:36Z</time>
      </trkpt>
      <trkpt lat="47.72748" lon="-3.37887">
        <ele>-1.9</ele>
        <time>2022-04-11T14:08:37Z</time>
      </trkpt>
      <trkpt lat="47.72745" lon="-3.37881">
        <ele>-1.9</ele>
        <time>2022-04-11T14:08:38Z</time>
      </trkpt>
      <trkpt lat="47.72743" lon="-3.37876">
        <ele>-2</ele>
        <time>2022-04-11T14:08:39Z</time>
      </trkpt>
      <trkpt lat="47.7274" lon="-3.3787">
        <ele>-2.1</ele>
        <time>2022-04-11T14:08:40Z</time>
      </trkpt>
      <trkpt lat="47.72737" lon="-3.37864">
        <ele>-1.7</ele>
        <time>2022-04-11T14:08:41Z</time>
      </trkpt>
      <trkpt lat="47.72735" lon="-3.37859">
        <ele>-1.5</ele>
        <time>2022-04-11T14:08:42Z</time>
      </trkpt>
      <trkpt lat="47.72733" lon="-3.37852">
        <ele>-1.5</ele>
        <time>2022-04-11T14:08:43Z</time>
      </trkpt>
      <trkpt lat="47.7273" lon="-3.37846">
        <ele>-1.3</ele>
        <time>2022-04-11T14:08:44Z</time>
      </trkpt>
      <trkpt lat="47.72728" lon="-3.3784">
        <ele>-1.5</ele>
        <time>2022-04-11T14:08:45Z</time>
      </trkpt>
      <trkpt lat="47.72724" lon="-3.37829">
        <ele>-1.9</ele>
        <time>2022-04-11T14:08:47Z</time>
      </trkpt>
      <trkpt lat="47.72719" lon="-3.37818">
        <ele>-1.9</ele>
        <time>2022-04-11T14:08:49Z</time>
      </trkpt>
      <trkpt lat="47.72715" lon="-3.37807">
        <ele>-1.5</ele>
        <time>2022-04-11T14:08:51Z</time>
      </trkpt>
      <trkpt lat="47.72711" lon="-3.37795">
        <ele>-1.3</ele>
        <time>2022-04-11T14:08:53Z</time>
      </trkpt>
      <trkpt lat="47.72707" lon="-3.37785">
        <ele>-1.1</ele>
        <time>2022-04-11T14:08:55Z</time>
      </trkpt>
      <trkpt lat="47.72703" lon="-3.37774">
        <ele>-0.5</ele>
        <time>2022-04-11T14:08:57Z</time>
      </trkpt>
      <trkpt lat="47.72698" lon="-3.37764">
        <ele>0.1</ele>
        <time>2022-04-11T14:08:59Z</time>
      </trkpt>
      <trkpt lat="47.72694" lon="-3.37753">
        <ele>0.4</ele>
        <time>2022-04-11T14:09:01Z</time>
      </trkpt>
      <trkpt lat="47.7269" lon="-3.37743">
        <ele>-0.4</ele>
        <time>2022-04-11T14:09:03Z</time>
      </trkpt>
      <trkpt lat="47.72686" lon="-3.37733">
        <ele>-0.4</ele>
        <time>2022-04-11T14:09:05Z</time>
      </trkpt>
      <trkpt lat="47.72682" lon="-3.37723">
        <ele>-0.1</ele>
        <time>2022-04-11T14:09:07Z</time>
      </trkpt>
      <trkpt lat="47.72679" lon="-3.37713">
        <ele>0.2</ele>
        <time>2022-04-11T14:09:09Z</time>
      </trkpt>
      <trkpt lat="47.72677" lon="-3.37702">
        <ele>-0.3</ele>
        <time>2022-04-11T14:09:11Z</time>
      </trkpt>
      <trkpt lat="47.72673" lon="-3.37692">
        <ele>0.4</ele>
        <time>2022-04-11T14:09:13Z</time>
      </trkpt>
      <trkpt lat="47.72671" lon="-3.37686">
        <ele>0.4</ele>
        <time>2022-04-11T14:09:14Z</time>
      </trkpt>
      <trkpt lat="47.72666" lon="-3.37675">
        <ele>-0.2</ele>
        <time>2022-04-11T14:09:16Z</time>
      </trkpt>
      <trkpt lat="47.72661" lon="-3.37665">
        <ele>0.8</ele>
        <time>2022-04-11T14:09:18Z</time>
      </trkpt>
      <trkpt lat="47.72656" lon="-3.37656">
        <ele>2.2</ele>
        <time>2022-04-11T14:09:20Z</time>
      </trkpt>
      <trkpt lat="47.72649" lon="-3.37651">
        <ele>2.5</ele>
        <time>2022-04-11T14:09:22Z</time>
      </trkpt>
      <trkpt lat="47.72642" lon="-3.37647">
        <ele>2.4</ele>
        <time>2022-04-11T14:09:24Z</time>
      </trkpt>
      <trkpt lat="47.72635" lon="-3.37643">
        <ele>2.3</ele>
        <time>2022-04-11T14:09:26Z</time>
      </trkpt>
      <trkpt lat="47.72629" lon="-3.3764">
        <ele>2.8</ele>
        <time>2022-04-11T14:09:28Z</time>
      </trkpt>
      <trkpt lat="47.72622" lon="-3.37638">
        <ele>3.4</ele>
        <time>2022-04-11T14:09:30Z</time>
      </trkpt>
      <trkpt lat="47.72615" lon="-3.37637">
        <ele>3.7</ele>
        <time>2022-04-11T14:09:32Z</time>
      </trkpt>
      <trkpt lat="47.72607" lon="-3.37638">
        <ele>4</ele>
        <time>2022-04-11T14:09:34Z</time>
      </trkpt>
      <trkpt lat="47.726" lon="-3.37638">
        <ele>4.6</ele>
        <time>2022-04-11T14:09:36Z</time>
      </trkpt>
      <trkpt lat="47.72592" lon="-3.37638">
        <ele>4.4</ele>
        <time>2022-04-11T14:09:38Z</time>
      </trkpt>
      <trkpt lat="47.72585" lon="-3.3764">
        <ele>4.1</ele>
        <time>2022-04-11T14:09:40Z</time>
      </trkpt>
      <trkpt lat="47.72577" lon="-3.37643">
        <ele>3.4</ele>
        <time>2022-04-11T14:09:42Z</time>
      </trkpt>
      <trkpt lat="47.7257" lon="-3.37647">
        <ele>3.1</ele>
        <time>2022-04-11T14:09:44Z</time>
      </trkpt>
      <trkpt lat="47.72561" lon="-3.3765">
        <ele>3.4</ele>
        <time>2022-04-11T14:09:46Z</time>
      </trkpt>
      <trkpt lat="47.72553" lon="-3.37652">
        <ele>3.6</ele>
        <time>2022-04-11T14:09:48Z</time>
      </trkpt>
      <trkpt lat="47.72545" lon="-3.37655">
        <ele>3.3</ele>
        <time>2022-04-11T14:09:50Z</time>
      </trkpt>
      <trkpt lat="47.72536" lon="-3.37656">
        <ele>3.4</ele>
        <time>2022-04-11T14:09:52Z</time>
      </trkpt>
      <trkpt lat="47.72528" lon="-3.37657">
        <ele>3.4</ele>
        <time>2022-04-11T14:09:54Z</time>
      </trkpt>
      <trkpt lat="47.7252" lon="-3.37657">
        <ele>3.3</ele>
        <time>2022-04-11T14:09:56Z</time>
      </trkpt>
      <trkpt lat="47.72512" lon="-3.37657">
        <ele>2.8</ele>
        <time>2022-04-11T14:09:58Z</time>
      </trkpt>
      <trkpt lat="47.72504" lon="-3.3766">
        <ele>2.6</ele>
        <time>2022-04-11T14:10:00Z</time>
      </trkpt>
      <trkpt lat="47.72496" lon="-3.37662">
        <ele>2</ele>
        <time>2022-04-11T14:10:02Z</time>
      </trkpt>
      <trkpt lat="47.72487" lon="-3.37664">
        <ele>1.4</ele>
        <time>2022-04-11T14:10:04Z</time>
      </trkpt>
      <trkpt lat="47.7248" lon="-3.37667">
        <ele>0.5</ele>
        <time>2022-04-11T14:10:06Z</time>
      </trkpt>
      <trkpt lat="47.72473" lon="-3.3767">
        <ele>0.8</ele>
        <time>2022-04-11T14:10:08Z</time>
      </trkpt>
      <trkpt lat="47.72466" lon="-3.37677">
        <ele>1.3</ele>
        <time>2022-04-11T14:10:10Z</time>
      </trkpt>
      <trkpt lat="47.72458" lon="-3.37684">
        <ele>0.9</ele>
        <time>2022-04-11T14:10:12Z</time>
      </trkpt>
      <trkpt lat="47.72451" lon="-3.37691">
        <ele>0.1</ele>
        <time>2022-04-11T14:10:14Z</time>
      </trkpt>
      <trkpt lat="47.72443" lon="-3.37697">
        <ele>-0.2</ele>
        <time>2022-04-11T14:10:16Z</time>
      </trkpt>
      <trkpt lat="47.72439" lon="-3.377">
        <ele>-0.6</ele>
        <time>2022-04-11T14:10:17Z</time>
      </trkpt>
      <trkpt lat="47.72435" lon="-3.37702">
        <ele>-0.2</ele>
        <time>2022-04-11T14:10:18Z</time>
      </trkpt>
      <trkpt lat="47.7243" lon="-3.37703">
        <ele>-0.2</ele>
        <time>2022-04-11T14:10:19Z</time>
      </trkpt>
      <trkpt lat="47.72422" lon="-3.37707">
        <ele>-0.4</ele>
        <time>2022-04-11T14:10:21Z</time>
      </trkpt>
      <trkpt lat="47.72413" lon="-3.3771">
        <ele>-1.2</ele>
        <time>2022-04-11T14:10:23Z</time>
      </trkpt>
      <trkpt lat="47.72405" lon="-3.37713">
        <ele>-2.3</ele>
        <time>2022-04-11T14:10:25Z</time>
      </trkpt>
      <trkpt lat="47.72397" lon="-3.37717">
        <ele>-3.1</ele>
        <time>2022-04-11T14:10:27Z</time>
      </trkpt>
      <trkpt lat="47.72389" lon="-3.3772">
        <ele>-3.4</ele>
        <time>2022-04-11T14:10:29Z</time>
      </trkpt>
      <trkpt lat="47.7238" lon="-3.37723">
        <ele>-3.6</ele>
        <time>2022-04-11T14:10:31Z</time>
      </trkpt>
      <trkpt lat="47.72375" lon="-3.37725">
        <ele>-3.5</ele>
        <time>2022-04-11T14:10:32Z</time>
      </trkpt>
      <trkpt lat="47.72371" lon="-3.37726">
        <ele>-3.5</ele>
        <time>2022-04-11T14:10:33Z</time>
      </trkpt>
      <trkpt lat="47.72367" lon="-3.37728">
        <ele>-3.3</ele>
        <time>2022-04-11T14:10:34Z</time>
      </trkpt>
      <trkpt lat="47.72359" lon="-3.37734">
        <ele>-3.6</ele>
        <time>2022-04-11T14:10:36Z</time>
      </trkpt>
      <trkpt lat="47.72352" lon="-3.3774">
        <ele>-3.5</ele>
        <time>2022-04-11T14:10:38Z</time>
      </trkpt>
      <trkpt lat="47.72345" lon="-3.37744">
        <ele>-4.1</ele>
        <time>2022-04-11T14:10:40Z</time>
      </trkpt>
      <trkpt lat="47.72339" lon="-3.37745">
        <ele>-4.6</ele>
        <time>2022-04-11T14:10:42Z</time>
      </trkpt>
      <trkpt lat="47.72332" lon="-3.37743">
        <ele>-4.2</ele>
        <time>2022-04-11T14:10:44Z</time>
      </trkpt>
      <trkpt lat="47.72325" lon="-3.3774">
        <ele>-4.1</ele>
        <time>2022-04-11T14:10:46Z</time>
      </trkpt>
      <trkpt lat="47.72317" lon="-3.37738">
        <ele>-4.8</ele>
        <time>2022-04-11T14:10:48Z</time>
      </trkpt>
      <trkpt lat="47.72309" lon="-3.37736">
        <ele>-5</ele>
        <time>2022-04-11T14:10:50Z</time>
      </trkpt>
      <trkpt lat="47.72302" lon="-3.37733">
        <ele>-4.9</ele>
        <time>2022-04-11T14:10:52Z</time>
      </trkpt>
      <trkpt lat="47.72296" lon="-3.3773">
        <ele>-5.1</ele>
        <time>2022-04-11T14:10:54Z</time>
      </trkpt>
      <trkpt lat="47.72289" lon="-3.37725">
        <ele>-5.8</ele>
        <time>2022-04-11T14:10:56Z</time>
      </trkpt>
      <trkpt lat="47.72283" lon="-3.37721">
        <ele>-5.9</ele>
        <time>2022-04-11T14:10:58Z</time>
      </trkpt>
      <trkpt lat="47.72276" lon="-3.37716">
        <ele>-6.9</ele>
        <time>2022-04-11T14:11:00Z</time>
      </trkpt>
      <trkpt lat="47.72269" lon="-3.37711">
        <ele>-7.5</ele>
        <time>2022-04-11T14:11:02Z</time>
      </trkpt>
      <trkpt lat="47.72261" lon="-3.37704">
        <ele>-7</ele>
        <time>2022-04-11T14:11:04Z</time>
      </trkpt>
      <trkpt lat="47.72257" lon="-3.377">
        <ele>-6.8</ele>
        <time>2022-04-11T14:11:05Z</time>
      </trkpt>
      <trkpt lat="47.72254" lon="-3.37697">
        <ele>-6.7</ele>
        <time>2022-04-11T14:11:06Z</time>
      </trkpt>
      <trkpt lat="47.72246" lon="-3.37691">
        <ele>-6.3</ele>
        <time>2022-04-11T14:11:08Z</time>
      </trkpt>
      <trkpt lat="47.72242" lon="-3.37687">
        <ele>-6.2</ele>
        <time>2022-04-11T14:11:09Z</time>
      </trkpt>
      <trkpt lat="47.72234" lon="-3.3768">
        <ele>-6.1</ele>
        <time>2022-04-11T14:11:11Z</time>
      </trkpt>
      <trkpt lat="47.72228" lon="-3.37673">
        <ele>-6.3</ele>
        <time>2022-04-11T14:11:13Z</time>
      </trkpt>
      <trkpt lat="47.72221" lon="-3.37666">
        <ele>-6.4</ele>
        <time>2022-04-11T14:11:15Z</time>
      </trkpt>
      <trkpt lat="47.72215" lon="-3.37658">
        <ele>-6</ele>
        <time>2022-04-11T14:11:17Z</time>
      </trkpt>
      <trkpt lat="47.72211" lon="-3.3765">
        <ele>-5.7</ele>
        <time>2022-04-11T14:11:19Z</time>
      </trkpt>
      <trkpt lat="47.72206" lon="-3.37646">
        <ele>-5.6</ele>
        <time>2022-04-11T14:11:21Z</time>
      </trkpt>
      <trkpt lat="47.722" lon="-3.37639">
        <ele>-5.3</ele>
        <time>2022-04-11T14:11:23Z</time>
      </trkpt>
      <trkpt lat="47.72193" lon="-3.37634">
        <ele>-5.2</ele>
        <time>2022-04-11T14:11:25Z</time>
      </trkpt>
      <trkpt lat="47.72187" lon="-3.37634">
        <ele>-6.1</ele>
        <time>2022-04-11T14:11:27Z</time>
      </trkpt>
      <trkpt lat="47.72181" lon="-3.37634">
        <ele>-6.5</ele>
        <time>2022-04-11T14:11:29Z</time>
      </trkpt>
      <trkpt lat="47.72175" lon="-3.37633">
        <ele>-7.1</ele>
        <time>2022-04-11T14:11:31Z</time>
      </trkpt>
      <trkpt lat="47.72168" lon="-3.37633">
        <ele>-7.6</ele>
        <time>2022-04-11T14:11:33Z</time>
      </trkpt>
      <trkpt lat="47.7216" lon="-3.3763">
        <ele>-7.6</ele>
        <time>2022-04-11T14:11:35Z</time>
      </trkpt>
      <trkpt lat="47.72153" lon="-3.37624">
        <ele>-7.7</ele>
        <time>2022-04-11T14:11:37Z</time>
      </trkpt>
      <trkpt lat="47.72146" lon="-3.37619">
        <ele>-7.8</ele>
        <time>2022-04-11T14:11:39Z</time>
      </trkpt>
      <trkpt lat="47.72139" lon="-3.37615">
        <ele>-8.2</ele>
        <time>2022-04-11T14:11:41Z</time>
      </trkpt>
      <trkpt lat="47.72133" lon="-3.37612">
        <ele>-8.8</ele>
        <time>2022-04-11T14:11:43Z</time>
      </trkpt>
      <trkpt lat="47.72127" lon="-3.37608">
        <ele>-9.5</ele>
        <time>2022-04-11T14:11:45Z</time>
      </trkpt>
      <trkpt lat="47.72121" lon="-3.37602">
        <ele>-9.9</ele>
        <time>2022-04-11T14:11:47Z</time>
      </trkpt>
      <trkpt lat="47.72114" lon="-3.37596">
        <ele>-10.3</ele>
        <time>2022-04-11T14:11:49Z</time>
      </trkpt>
      <trkpt lat="47.72108" lon="-3.37592">
        <ele>-11.1</ele>
        <time>2022-04-11T14:11:51Z</time>
      </trkpt>
      <trkpt lat="47.72102" lon="-3.37587">
        <ele>-11.3</ele>
        <time>2022-04-11T14:11:53Z</time>
      </trkpt>
      <trkpt lat="47.72095" lon="-3.37582">
        <ele>-11.7</ele>
        <time>2022-04-11T14:11:55Z</time>
      </trkpt>
      <trkpt lat="47.72089" lon="-3.37579">
        <ele>-11.4</ele>
        <time>2022-04-11T14:11:57Z</time>
      </trkpt>
      <trkpt lat="47.72083" lon="-3.37575">
        <ele>-11.3</ele>
        <time>2022-04-11T14:11:59Z</time>
      </trkpt>
      <trkpt lat="47.72078" lon="-3.37569">
        <ele>-12.1</ele>
        <time>2022-04-11T14:12:01Z</time>
      </trkpt>
      <trkpt lat="47.72073" lon="-3.37565">
        <ele>-12.6</ele>
        <time>2022-04-11T14:12:03Z</time>
      </trkpt>
      <trkpt lat="47.72067" lon="-3.37562">
        <ele>-13.1</ele>
        <time>2022-04-11T14:12:05Z</time>
      </trkpt>
      <trkpt lat="47.72061" lon="-3.3756">
        <ele>-12.8</ele>
        <time>2022-04-11T14:12:07Z</time>
      </trkpt>
      <trkpt lat="47.72056" lon="-3.37556">
        <ele>-14.4</ele>
        <time>2022-04-11T14:12:09Z</time>
      </trkpt>
      <trkpt lat="47.7205" lon="-3.37552">
        <ele>-15.7</ele>
        <time>2022-04-11T14:12:11Z</time>
      </trkpt>
      <trkpt lat="47.72043" lon="-3.37547">
        <ele>-16.5</ele>
        <time>2022-04-11T14:12:13Z</time>
      </trkpt>
      <trkpt lat="47.72036" lon="-3.37542">
        <ele>-17</ele>
        <time>2022-04-11T14:12:15Z</time>
      </trkpt>
      <trkpt lat="47.72029" lon="-3.37539">
        <ele>-17</ele>
        <time>2022-04-11T14:12:17Z</time>
      </trkpt>
      <trkpt lat="47.72022" lon="-3.37536">
        <ele>-17.4</ele>
        <time>2022-04-11T14:12:19Z</time>
      </trkpt>
      <trkpt lat="47.72016" lon="-3.37533">
        <ele>-17.8</ele>
        <time>2022-04-11T14:12:21Z</time>
      </trkpt>
      <trkpt lat="47.7201" lon="-3.3753">
        <ele>-19.1</ele>
        <time>2022-04-11T14:12:23Z</time>
      </trkpt>
      <trkpt lat="47.72004" lon="-3.37525">
        <ele>-20</ele>
        <time>2022-04-11T14:12:25Z</time>
      </trkpt>
      <trkpt lat="47.71996" lon="-3.37521">
        <ele>-20.3</ele>
        <time>2022-04-11T14:12:27Z</time>
      </trkpt>
      <trkpt lat="47.71992" lon="-3.37518">
        <ele>-20.3</ele>
        <time>2022-04-11T14:12:28Z</time>
      </trkpt>
      <trkpt lat="47.71988" lon="-3.37514">
        <ele>-20.2</ele>
        <time>2022-04-11T14:12:29Z</time>
      </trkpt>
      <trkpt lat="47.71984" lon="-3.3751">
        <ele>-20.2</ele>
        <time>2022-04-11T14:12:30Z</time>
      </trkpt>
      <trkpt lat="47.71981" lon="-3.37506">
        <ele>-20.2</ele>
        <time>2022-04-11T14:12:31Z</time>
      </trkpt>
      <trkpt lat="47.71974" lon="-3.37497">
        <ele>-21.3</ele>
        <time>2022-04-11T14:12:33Z</time>
      </trkpt>
      <trkpt lat="47.71968" lon="-3.37491">
        <ele>-21.8</ele>
        <time>2022-04-11T14:12:35Z</time>
      </trkpt>
      <trkpt lat="47.71961" lon="-3.37486">
        <ele>-22.3</ele>
        <time>2022-04-11T14:12:37Z</time>
      </trkpt>
      <trkpt lat="47.71954" lon="-3.37481">
        <ele>-22.9</ele>
        <time>2022-04-11T14:12:39Z</time>
      </trkpt>
      <trkpt lat="47.71946" lon="-3.37475">
        <ele>-22.9</ele>
        <time>2022-04-11T14:12:41Z</time>
      </trkpt>
      <trkpt lat="47.71939" lon="-3.37469">
        <ele>-24</ele>
        <time>2022-04-11T14:12:43Z</time>
      </trkpt>
      <trkpt lat="47.71932" lon="-3.37462">
        <ele>-24.2</ele>
        <time>2022-04-11T14:12:45Z</time>
      </trkpt>
      <trkpt lat="47.71928" lon="-3.37458">
        <ele>-24.4</ele>
        <time>2022-04-11T14:12:46Z</time>
      </trkpt>
      <trkpt lat="47.71923" lon="-3.37454">
        <ele>-24.7</ele>
        <time>2022-04-11T14:12:47Z</time>
      </trkpt>
      <trkpt lat="47.71919" lon="-3.3745">
        <ele>-25.2</ele>
        <time>2022-04-11T14:12:48Z</time>
      </trkpt>
      <trkpt lat="47.71915" lon="-3.37446">
        <ele>-25.8</ele>
        <time>2022-04-11T14:12:49Z</time>
      </trkpt>
      <trkpt lat="47.71912" lon="-3.37442">
        <ele>-26.2</ele>
        <time>2022-04-11T14:12:50Z</time>
      </trkpt>
      <trkpt lat="47.71908" lon="-3.37438">
        <ele>-26.6</ele>
        <time>2022-04-11T14:12:51Z</time>
      </trkpt>
      <trkpt lat="47.71899" lon="-3.37433">
        <ele>-26.9</ele>
        <time>2022-04-11T14:12:53Z</time>
      </trkpt>
      <trkpt lat="47.71894" lon="-3.37431">
        <ele>-26.1</ele>
        <time>2022-04-11T14:12:54Z</time>
      </trkpt>
      <trkpt lat="47.7189" lon="-3.37429">
        <ele>-25.5</ele>
        <time>2022-04-11T14:12:55Z</time>
      </trkpt>
      <trkpt lat="47.71885" lon="-3.37427">
        <ele>-24.9</ele>
        <time>2022-04-11T14:12:56Z</time>
      </trkpt>
      <trkpt lat="47.7188" lon="-3.37425">
        <ele>-23.9</ele>
        <time>2022-04-11T14:12:57Z</time>
      </trkpt>
      <trkpt lat="47.71875" lon="-3.37422">
        <ele>-23.1</ele>
        <time>2022-04-11T14:12:58Z</time>
      </trkpt>
      <trkpt lat="47.71867" lon="-3.37419">
        <ele>-21.9</ele>
        <time>2022-04-11T14:13:00Z</time>
      </trkpt>
      <trkpt lat="47.71863" lon="-3.37417">
        <ele>-21.6</ele>
        <time>2022-04-11T14:13:01Z</time>
      </trkpt>
      <trkpt lat="47.71858" lon="-3.37414">
        <ele>-21.4</ele>
        <time>2022-04-11T14:13:02Z</time>
      </trkpt>
      <trkpt lat="47.71853" lon="-3.3741">
        <ele>-21</ele>
        <time>2022-04-11T14:13:03Z</time>
      </trkpt>
      <trkpt lat="47.71849" lon="-3.37406">
        <ele>-20.8</ele>
        <time>2022-04-11T14:13:04Z</time>
      </trkpt>
      <trkpt lat="47.71845" lon="-3.37402">
        <ele>-20.7</ele>
        <time>2022-04-11T14:13:05Z</time>
      </trkpt>
      <trkpt lat="47.71841" lon="-3.37399">
        <ele>-20.7</ele>
        <time>2022-04-11T14:13:06Z</time>
      </trkpt>
      <trkpt lat="47.71837" lon="-3.37395">
        <ele>-21</ele>
        <time>2022-04-11T14:13:07Z</time>
      </trkpt>
      <trkpt lat="47.71833" lon="-3.37392">
        <ele>-20.8</ele>
        <time>2022-04-11T14:13:08Z</time>
      </trkpt>
      <trkpt lat="47.71826" lon="-3.37385">
        <ele>-20.5</ele>
        <time>2022-04-11T14:13:10Z</time>
      </trkpt>
      <trkpt lat="47.71818" lon="-3.37379">
        <ele>-20.8</ele>
        <time>2022-04-11T14:13:12Z</time>
      </trkpt>
      <trkpt lat="47.7181" lon="-3.37375">
        <ele>-20</ele>
        <time>2022-04-11T14:13:14Z</time>
      </trkpt>
      <trkpt lat="47.71802" lon="-3.37373">
        <ele>-19</ele>
        <time>2022-04-11T14:13:16Z</time>
      </trkpt>
      <trkpt lat="47.71794" lon="-3.3737">
        <ele>-19.1</ele>
        <time>2022-04-11T14:13:18Z</time>
      </trkpt>
      <trkpt lat="47.71787" lon="-3.37368">
        <ele>-19.1</ele>
        <time>2022-04-11T14:13:20Z</time>
      </trkpt>
      <trkpt lat="47.71779" lon="-3.37363">
        <ele>-19.6</ele>
        <time>2022-04-11T14:13:22Z</time>
      </trkpt>
      <trkpt lat="47.71771" lon="-3.37358">
        <ele>-19.6</ele>
        <time>2022-04-11T14:13:24Z</time>
      </trkpt>
      <trkpt lat="47.71764" lon="-3.37355">
        <ele>-20.3</ele>
        <time>2022-04-11T14:13:26Z</time>
      </trkpt>
      <trkpt lat="47.71757" lon="-3.37351">
        <ele>-21.4</ele>
        <time>2022-04-11T14:13:28Z</time>
      </trkpt>
      <trkpt lat="47.71749" lon="-3.37346">
        <ele>-21.9</ele>
        <time>2022-04-11T14:13:30Z</time>
      </trkpt>
      <trkpt lat="47.71745" lon="-3.37344">
        <ele>-21.9</ele>
        <time>2022-04-11T14:13:31Z</time>
      </trkpt>
      <trkpt lat="47.71737" lon="-3.3734">
        <ele>-21.9</ele>
        <time>2022-04-11T14:13:33Z</time>
      </trkpt>
      <trkpt lat="47.71731" lon="-3.37335">
        <ele>-21.7</ele>
        <time>2022-04-11T14:13:35Z</time>
      </trkpt>
      <trkpt lat="47.71726" lon="-3.37334">
        <ele>-22.3</ele>
        <time>2022-04-11T14:13:37Z</time>
      </trkpt>
      <trkpt lat="47.71719" lon="-3.37333">
        <ele>-24.5</ele>
        <time>2022-04-11T14:13:39Z</time>
      </trkpt>
      <trkpt lat="47.71714" lon="-3.37336">
        <ele>-27</ele>
        <time>2022-04-11T14:13:41Z</time>
      </trkpt>
      <trkpt lat="47.71705" lon="-3.37339">
        <ele>-28.7</ele>
        <time>2022-04-11T14:13:43Z</time>
      </trkpt>
      <trkpt lat="47.71701" lon="-3.37337">
        <ele>-29.4</ele>
        <time>2022-04-11T14:13:44Z</time>
      </trkpt>
      <trkpt lat="47.71696" lon="-3.37336">
        <ele>-28.5</ele>
        <time>2022-04-11T14:13:45Z</time>
      </trkpt>
      <trkpt lat="47.7169" lon="-3.37335">
        <ele>-28</ele>
        <time>2022-04-11T14:13:46Z</time>
      </trkpt>
      <trkpt lat="47.71685" lon="-3.37335">
        <ele>-27.6</ele>
        <time>2022-04-11T14:13:47Z</time>
      </trkpt>
      <trkpt lat="47.71681" lon="-3.37335">
        <ele>-27.2</ele>
        <time>2022-04-11T14:13:48Z</time>
      </trkpt>
      <trkpt lat="47.71675" lon="-3.37335">
        <ele>-26.3</ele>
        <time>2022-04-11T14:13:49Z</time>
      </trkpt>
      <trkpt lat="47.7167" lon="-3.37334">
        <ele>-24.6</ele>
        <time>2022-04-11T14:13:50Z</time>
      </trkpt>
      <trkpt lat="47.71664" lon="-3.37333">
        <ele>-23.6</ele>
        <time>2022-04-11T14:13:51Z</time>
      </trkpt>
      <trkpt lat="47.71659" lon="-3.37332">
        <ele>-22.5</ele>
        <time>2022-04-11T14:13:52Z</time>
      </trkpt>
      <trkpt lat="47.71653" lon="-3.37331">
        <ele>-21.6</ele>
        <time>2022-04-11T14:13:53Z</time>
      </trkpt>
      <trkpt lat="47.71648" lon="-3.37331">
        <ele>-20.7</ele>
        <time>2022-04-11T14:13:54Z</time>
      </trkpt>
      <trkpt lat="47.71644" lon="-3.3733">
        <ele>-20.2</ele>
        <time>2022-04-11T14:13:55Z</time>
      </trkpt>
      <trkpt lat="47.71639" lon="-3.37329">
        <ele>-20</ele>
        <time>2022-04-11T14:13:56Z</time>
      </trkpt>
      <trkpt lat="47.7163" lon="-3.37329">
        <ele>-18.8</ele>
        <time>2022-04-11T14:13:58Z</time>
      </trkpt>
      <trkpt lat="47.71622" lon="-3.37328">
        <ele>-17.3</ele>
        <time>2022-04-11T14:14:00Z</time>
      </trkpt>
      <trkpt lat="47.71613" lon="-3.37329">
        <ele>-16.4</ele>
        <time>2022-04-11T14:14:02Z</time>
      </trkpt>
      <trkpt lat="47.71606" lon="-3.3733">
        <ele>-16.1</ele>
        <time>2022-04-11T14:14:04Z</time>
      </trkpt>
      <trkpt lat="47.71598" lon="-3.37331">
        <ele>-16</ele>
        <time>2022-04-11T14:14:06Z</time>
      </trkpt>
      <trkpt lat="47.7159" lon="-3.37334">
        <ele>-16</ele>
        <time>2022-04-11T14:14:08Z</time>
      </trkpt>
      <trkpt lat="47.71582" lon="-3.37335">
        <ele>-15.9</ele>
        <time>2022-04-11T14:14:10Z</time>
      </trkpt>
      <trkpt lat="47.71575" lon="-3.37336">
        <ele>-16.3</ele>
        <time>2022-04-11T14:14:12Z</time>
      </trkpt>
      <trkpt lat="47.71567" lon="-3.37336">
        <ele>-16.2</ele>
        <time>2022-04-11T14:14:14Z</time>
      </trkpt>
      <trkpt lat="47.71559" lon="-3.37335">
        <ele>-16.1</ele>
        <time>2022-04-11T14:14:16Z</time>
      </trkpt>
      <trkpt lat="47.71552" lon="-3.37338">
        <ele>-15.9</ele>
        <time>2022-04-11T14:14:18Z</time>
      </trkpt>
      <trkpt lat="47.71545" lon="-3.37341">
        <ele>-15.8</ele>
        <time>2022-04-11T14:14:20Z</time>
      </trkpt>
      <trkpt lat="47.71538" lon="-3.37341">
        <ele>-15.8</ele>
        <time>2022-04-11T14:14:22Z</time>
      </trkpt>
      <trkpt lat="47.71531" lon="-3.37342">
        <ele>-15.8</ele>
        <time>2022-04-11T14:14:24Z</time>
      </trkpt>
      <trkpt lat="47.71525" lon="-3.37343">
        <ele>-15.7</ele>
        <time>2022-04-11T14:14:26Z</time>
      </trkpt>
      <trkpt lat="47.71518" lon="-3.37343">
        <ele>-15.9</ele>
        <time>2022-04-11T14:14:28Z</time>
      </trkpt>
      <trkpt lat="47.7151" lon="-3.37345">
        <ele>-15</ele>
        <time>2022-04-11T14:14:30Z</time>
      </trkpt>
      <trkpt lat="47.71503" lon="-3.37345">
        <ele>-14.2</ele>
        <time>2022-04-11T14:14:32Z</time>
      </trkpt>
      <trkpt lat="47.71497" lon="-3.37347">
        <ele>-14.2</ele>
        <time>2022-04-11T14:14:34Z</time>
      </trkpt>
      <trkpt lat="47.71491" lon="-3.37348">
        <ele>-14.4</ele>
        <time>2022-04-11T14:14:36Z</time>
      </trkpt>
      <trkpt lat="47.71485" lon="-3.3735">
        <ele>-14.5</ele>
        <time>2022-04-11T14:14:38Z</time>
      </trkpt>
      <trkpt lat="47.71479" lon="-3.37352">
        <ele>-14.1</ele>
        <time>2022-04-11T14:14:40Z</time>
      </trkpt>
      <trkpt lat="47.71473" lon="-3.37355">
        <ele>-13.9</ele>
        <time>2022-04-11T14:14:42Z</time>
      </trkpt>
      <trkpt lat="47.71466" lon="-3.37359">
        <ele>-14</ele>
        <time>2022-04-11T14:14:44Z</time>
      </trkpt>
      <trkpt lat="47.7146" lon="-3.37364">
        <ele>-13.6</ele>
        <time>2022-04-11T14:14:46Z</time>
      </trkpt>
      <trkpt lat="47.71453" lon="-3.3737">
        <ele>-13.3</ele>
        <time>2022-04-11T14:14:48Z</time>
      </trkpt>
      <trkpt lat="47.71447" lon="-3.37376">
        <ele>-13.5</ele>
        <time>2022-04-11T14:14:50Z</time>
      </trkpt>
      <trkpt lat="47.71442" lon="-3.37383">
        <ele>-13.7</ele>
        <time>2022-04-11T14:14:52Z</time>
      </trkpt>
      <trkpt lat="47.71437" lon="-3.37389">
        <ele>-14.4</ele>
        <time>2022-04-11T14:14:54Z</time>
      </trkpt>
      <trkpt lat="47.71433" lon="-3.37395">
        <ele>-15.2</ele>
        <time>2022-04-11T14:14:56Z</time>
      </trkpt>
      <trkpt lat="47.71429" lon="-3.37402">
        <ele>-15.9</ele>
        <time>2022-04-11T14:14:58Z</time>
      </trkpt>
      <trkpt lat="47.71426" lon="-3.3741">
        <ele>-16.2</ele>
        <time>2022-04-11T14:15:00Z</time>
      </trkpt>
      <trkpt lat="47.71422" lon="-3.37418">
        <ele>-16.5</ele>
        <time>2022-04-11T14:15:02Z</time>
      </trkpt>
      <trkpt lat="47.71419" lon="-3.37426">
        <ele>-16.1</ele>
        <time>2022-04-11T14:15:04Z</time>
      </trkpt>
      <trkpt lat="47.71415" lon="-3.37434">
        <ele>-16.5</ele>
        <time>2022-04-11T14:15:06Z</time>
      </trkpt>
      <trkpt lat="47.71413" lon="-3.3744">
        <ele>-17.5</ele>
        <time>2022-04-11T14:15:08Z</time>
      </trkpt>
      <trkpt lat="47.71411" lon="-3.37449">
        <ele>-19.4</ele>
        <time>2022-04-11T14:15:11Z</time>
      </trkpt>
      <trkpt lat="47.7141" lon="-3.37457">
        <ele>-20.3</ele>
        <time>2022-04-11T14:15:13Z</time>
      </trkpt>
      <trkpt lat="47.71408" lon="-3.37464">
        <ele>-21.7</ele>
        <time>2022-04-11T14:15:15Z</time>
      </trkpt>
      <trkpt lat="47.71407" lon="-3.37472">
        <ele>-23.2</ele>
        <time>2022-04-11T14:15:17Z</time>
      </trkpt>
      <trkpt lat="47.71405" lon="-3.37479">
        <ele>-24.4</ele>
        <time>2022-04-11T14:15:19Z</time>
      </trkpt>
      <trkpt lat="47.71402" lon="-3.37487">
        <ele>-23.7</ele>
        <time>2022-04-11T14:15:21Z</time>
      </trkpt>
      <trkpt lat="47.714" lon="-3.37495">
        <ele>-24.7</ele>
        <time>2022-04-11T14:15:23Z</time>
      </trkpt>
      <trkpt lat="47.71399" lon="-3.37504">
        <ele>-25.2</ele>
        <time>2022-04-11T14:15:25Z</time>
      </trkpt>
      <trkpt lat="47.71398" lon="-3.37511">
        <ele>-26.3</ele>
        <time>2022-04-11T14:15:27Z</time>
      </trkpt>
      <trkpt lat="47.71395" lon="-3.37519">
        <ele>-27.4</ele>
        <time>2022-04-11T14:15:29Z</time>
      </trkpt>
      <trkpt lat="47.7139" lon="-3.37526">
        <ele>-29.7</ele>
        <time>2022-04-11T14:15:31Z</time>
      </trkpt>
      <trkpt lat="47.71387" lon="-3.37533">
        <ele>-31</ele>
        <time>2022-04-11T14:15:33Z</time>
      </trkpt>
      <trkpt lat="47.71386" lon="-3.37541">
        <ele>-30.6</ele>
        <time>2022-04-11T14:15:35Z</time>
      </trkpt>
      <trkpt lat="47.71384" lon="-3.37549">
        <ele>-30.8</ele>
        <time>2022-04-11T14:15:37Z</time>
      </trkpt>
      <trkpt lat="47.71382" lon="-3.37556">
        <ele>-31.9</ele>
        <time>2022-04-11T14:15:39Z</time>
      </trkpt>
      <trkpt lat="47.7138" lon="-3.37563">
        <ele>-32.5</ele>
        <time>2022-04-11T14:15:41Z</time>
      </trkpt>
      <trkpt lat="47.71378" lon="-3.3757">
        <ele>-32.7</ele>
        <time>2022-04-11T14:15:43Z</time>
      </trkpt>
      <trkpt lat="47.71374" lon="-3.37578">
        <ele>-31.7</ele>
        <time>2022-04-11T14:15:45Z</time>
      </trkpt>
      <trkpt lat="47.71369" lon="-3.37583">
        <ele>-30.5</ele>
        <time>2022-04-11T14:15:47Z</time>
      </trkpt>
      <trkpt lat="47.71362" lon="-3.37588">
        <ele>-28.1</ele>
        <time>2022-04-11T14:15:49Z</time>
      </trkpt>
      <trkpt lat="47.71355" lon="-3.37587">
        <ele>-27.8</ele>
        <time>2022-04-11T14:15:51Z</time>
      </trkpt>
      <trkpt lat="47.7135" lon="-3.37584">
        <ele>-28.3</ele>
        <time>2022-04-11T14:15:53Z</time>
      </trkpt>
      <trkpt lat="47.71344" lon="-3.3758">
        <ele>-29.1</ele>
        <time>2022-04-11T14:15:56Z</time>
      </trkpt>
      <trkpt lat="47.71339" lon="-3.3758">
        <ele>-30.9</ele>
        <time>2022-04-11T14:15:58Z</time>
      </trkpt>
      <trkpt lat="47.71335" lon="-3.37582">
        <ele>-30.1</ele>
        <time>2022-04-11T14:16:00Z</time>
      </trkpt>
      <trkpt lat="47.71328" lon="-3.37583">
        <ele>-29.9</ele>
        <time>2022-04-11T14:16:02Z</time>
      </trkpt>
      <trkpt lat="47.71323" lon="-3.37582">
        <ele>-30.3</ele>
        <time>2022-04-11T14:16:04Z</time>
      </trkpt>
      <trkpt lat="47.71317" lon="-3.3758">
        <ele>-30.6</ele>
        <time>2022-04-11T14:16:06Z</time>
      </trkpt>
      <trkpt lat="47.71312" lon="-3.37579">
        <ele>-30.8</ele>
        <time>2022-04-11T14:16:08Z</time>
      </trkpt>
      <trkpt lat="47.71307" lon="-3.37578">
        <ele>-31.2</ele>
        <time>2022-04-11T14:16:10Z</time>
      </trkpt>
      <trkpt lat="47.71301" lon="-3.37577">
        <ele>-31</ele>
        <time>2022-04-11T14:16:12Z</time>
      </trkpt>
      <trkpt lat="47.71295" lon="-3.37574">
        <ele>-30.6</ele>
        <time>2022-04-11T14:16:14Z</time>
      </trkpt>
      <trkpt lat="47.7129" lon="-3.3757">
        <ele>-30.3</ele>
        <time>2022-04-11T14:16:16Z</time>
      </trkpt>
      <trkpt lat="47.71285" lon="-3.37565">
        <ele>-29.8</ele>
        <time>2022-04-11T14:16:18Z</time>
      </trkpt>
      <trkpt lat="47.71279" lon="-3.3756">
        <ele>-28.8</ele>
        <time>2022-04-11T14:16:20Z</time>
      </trkpt>
      <trkpt lat="47.71274" lon="-3.37553">
        <ele>-29</ele>
        <time>2022-04-11T14:16:22Z</time>
      </trkpt>
      <trkpt lat="47.71269" lon="-3.37547">
        <ele>-28.6</ele>
        <time>2022-04-11T14:16:24Z</time>
      </trkpt>
      <trkpt lat="47.71264" lon="-3.37546">
        <ele>-28.1</ele>
        <time>2022-04-11T14:16:27Z</time>
      </trkpt>
      <trkpt lat="47.7126" lon="-3.37544">
        <ele>-26.3</ele>
        <time>2022-04-11T14:16:30Z</time>
      </trkpt>
      <trkpt lat="47.71255" lon="-3.37539">
        <ele>-25</ele>
        <time>2022-04-11T14:16:33Z</time>
      </trkpt>
      <trkpt lat="47.71251" lon="-3.37535">
        <ele>-20.8</ele>
        <time>2022-04-11T14:17:13Z</time>
      </trkpt>
      <trkpt lat="47.71253" lon="-3.37528">
        <ele>-20.7</ele>
        <time>2022-04-11T14:17:16Z</time>
      </trkpt>
      <trkpt lat="47.71256" lon="-3.3752">
        <ele>-18.6</ele>
        <time>2022-04-11T14:17:19Z</time>
      </trkpt>
      <trkpt lat="47.71259" lon="-3.37514">
        <ele>-18</ele>
        <time>2022-04-11T14:17:21Z</time>
      </trkpt>
      <trkpt lat="47.71264" lon="-3.37508">
        <ele>-17</ele>
        <time>2022-04-11T14:17:24Z</time>
      </trkpt>
      <trkpt lat="47.71268" lon="-3.37501">
        <ele>-16.2</ele>
        <time>2022-04-11T14:17:26Z</time>
      </trkpt>
      <trkpt lat="47.71272" lon="-3.37494">
        <ele>-15.4</ele>
        <time>2022-04-11T14:17:28Z</time>
      </trkpt>
      <trkpt lat="47.71277" lon="-3.37488">
        <ele>-15.4</ele>
        <time>2022-04-11T14:17:30Z</time>
      </trkpt>
      <trkpt lat="47.71281" lon="-3.37483">
        <ele>-14.5</ele>
        <time>2022-04-11T14:17:32Z</time>
      </trkpt>
      <trkpt lat="47.71284" lon="-3.37477">
        <ele>-14.4</ele>
        <time>2022-04-11T14:17:34Z</time>
      </trkpt>
      <trkpt lat="47.71287" lon="-3.37472">
        <ele>-14.2</ele>
        <time>2022-04-11T14:17:36Z</time>
      </trkpt>
      <trkpt lat="47.71292" lon="-3.37465">
        <ele>-14.6</ele>
        <time>2022-04-11T14:17:39Z</time>
      </trkpt>
      <trkpt lat="47.71296" lon="-3.3746">
        <ele>-13.7</ele>
        <time>2022-04-11T14:17:41Z</time>
      </trkpt>
      <trkpt lat="47.713" lon="-3.37456">
        <ele>-12.8</ele>
        <time>2022-04-11T14:17:43Z</time>
      </trkpt>
      <trkpt lat="47.71304" lon="-3.37453">
        <ele>-12.4</ele>
        <time>2022-04-11T14:17:46Z</time>
      </trkpt>
      <trkpt lat="47.71308" lon="-3.37447">
        <ele>-11.6</ele>
        <time>2022-04-11T14:17:48Z</time>
      </trkpt>
      <trkpt lat="47.71312" lon="-3.37441">
        <ele>-10.9</ele>
        <time>2022-04-11T14:17:50Z</time>
      </trkpt>
      <trkpt lat="47.71315" lon="-3.37434">
        <ele>-10.6</ele>
        <time>2022-04-11T14:17:52Z</time>
      </trkpt>
      <trkpt lat="47.71318" lon="-3.37428">
        <ele>-10.3</ele>
        <time>2022-04-11T14:17:54Z</time>
      </trkpt>
      <trkpt lat="47.71321" lon="-3.37422">
        <ele>-10</ele>
        <time>2022-04-11T14:17:56Z</time>
      </trkpt>
      <trkpt lat="47.71324" lon="-3.37415">
        <ele>-9.5</ele>
        <time>2022-04-11T14:17:58Z</time>
      </trkpt>
      <trkpt lat="47.71327" lon="-3.37408">
        <ele>-8.6</ele>
        <time>2022-04-11T14:18:00Z</time>
      </trkpt>
      <trkpt lat="47.71332" lon="-3.37399">
        <ele>-7.8</ele>
        <time>2022-04-11T14:18:02Z</time>
      </trkpt>
      <trkpt lat="47.71336" lon="-3.3739">
        <ele>-6.9</ele>
        <time>2022-04-11T14:18:04Z</time>
      </trkpt>
      <trkpt lat="47.7134" lon="-3.37381">
        <ele>-6.4</ele>
        <time>2022-04-11T14:18:06Z</time>
      </trkpt>
      <trkpt lat="47.71343" lon="-3.37371">
        <ele>-6.1</ele>
        <time>2022-04-11T14:18:08Z</time>
      </trkpt>
      <trkpt lat="47.71347" lon="-3.37361">
        <ele>-4.9</ele>
        <time>2022-04-11T14:18:10Z</time>
      </trkpt>
      <trkpt lat="47.71351" lon="-3.37352">
        <ele>-4</ele>
        <time>2022-04-11T14:18:12Z</time>
      </trkpt>
      <trkpt lat="47.71355" lon="-3.37342">
        <ele>-3.5</ele>
        <time>2022-04-11T14:18:14Z</time>
      </trkpt>
      <trkpt lat="47.71359" lon="-3.37333">
        <ele>-3.2</ele>
        <time>2022-04-11T14:18:16Z</time>
      </trkpt>
      <trkpt lat="47.71363" lon="-3.37325">
        <ele>-3</ele>
        <time>2022-04-11T14:18:18Z</time>
      </trkpt>
      <trkpt lat="47.71368" lon="-3.37316">
        <ele>-2.9</ele>
        <time>2022-04-11T14:18:20Z</time>
      </trkpt>
      <trkpt lat="47.71372" lon="-3.37308">
        <ele>-2.1</ele>
        <time>2022-04-11T14:18:22Z</time>
      </trkpt>
      <trkpt lat="47.71377" lon="-3.37298">
        <ele>-1.4</ele>
        <time>2022-04-11T14:18:24Z</time>
      </trkpt>
      <trkpt lat="47.71381" lon="-3.37289">
        <ele>-1.1</ele>
        <time>2022-04-11T14:18:26Z</time>
      </trkpt>
      <trkpt lat="47.71386" lon="-3.3728">
        <ele>-0.9</ele>
        <time>2022-04-11T14:18:28Z</time>
      </trkpt>
      <trkpt lat="47.7139" lon="-3.37272">
        <ele>-0.7</ele>
        <time>2022-04-11T14:18:30Z</time>
      </trkpt>
      <trkpt lat="47.71394" lon="-3.37263">
        <ele>-0.4</ele>
        <time>2022-04-11T14:18:32Z</time>
      </trkpt>
      <trkpt lat="47.71398" lon="-3.37254">
        <ele>-0.1</ele>
        <time>2022-04-11T14:18:34Z</time>
      </trkpt>
      <trkpt lat="47.71401" lon="-3.37245">
        <ele>5.3</ele>
        <time>2022-04-11T14:18:36Z</time>
      </trkpt>
      <trkpt lat="47.71405" lon="-3.37238">
        <ele>-0.1</ele>
        <time>2022-04-11T14:18:38Z</time>
      </trkpt>
      <trkpt lat="47.71409" lon="-3.37231">
        <ele>-0.2</ele>
        <time>2022-04-11T14:18:40Z</time>
      </trkpt>
      <trkpt lat="47.71412" lon="-3.37225">
        <ele>-0.1</ele>
        <time>2022-04-11T14:18:42Z</time>
      </trkpt>
      <trkpt lat="47.71416" lon="-3.37218">
        <ele>-0.1</ele>
        <time>2022-04-11T14:18:44Z</time>
      </trkpt>
      <trkpt lat="47.71419" lon="-3.37211">
        <ele>0.2</ele>
        <time>2022-04-11T14:18:46Z</time>
      </trkpt>
      <trkpt lat="47.71425" lon="-3.37209">
        <ele>0.3</ele>
        <time>2022-04-11T14:18:49Z</time>
      </trkpt>
      <trkpt lat="47.71431" lon="-3.37213">
        <ele>-0.3</ele>
        <time>2022-04-11T14:18:51Z</time>
      </trkpt>
      <trkpt lat="47.71437" lon="-3.37221">
        <ele>-2.7</ele>
        <time>2022-04-11T14:18:53Z</time>
      </trkpt>
      <trkpt lat="47.71444" lon="-3.37227">
        <ele>-4</ele>
        <time>2022-04-11T14:18:55Z</time>
      </trkpt>
      <trkpt lat="47.7145" lon="-3.37232">
        <ele>-6.1</ele>
        <time>2022-04-11T14:18:57Z</time>
      </trkpt>
      <trkpt lat="47.71456" lon="-3.37236">
        <ele>-4.8</ele>
        <time>2022-04-11T14:18:59Z</time>
      </trkpt>
      <trkpt lat="47.71461" lon="-3.37241">
        <ele>-5.8</ele>
        <time>2022-04-11T14:19:01Z</time>
      </trkpt>
      <trkpt lat="47.71468" lon="-3.37246">
        <ele>-7.2</ele>
        <time>2022-04-11T14:19:03Z</time>
      </trkpt>
      <trkpt lat="47.71473" lon="-3.37249">
        <ele>-8.4</ele>
        <time>2022-04-11T14:19:05Z</time>
      </trkpt>
      <trkpt lat="47.71479" lon="-3.37252">
        <ele>-10.7</ele>
        <time>2022-04-11T14:19:07Z</time>
      </trkpt>
      <trkpt lat="47.71484" lon="-3.37256">
        <ele>-12.8</ele>
        <time>2022-04-11T14:19:09Z</time>
      </trkpt>
      <trkpt lat="47.71489" lon="-3.37258">
        <ele>-14.8</ele>
        <time>2022-04-11T14:19:11Z</time>
      </trkpt>
      <trkpt lat="47.71495" lon="-3.37258">
        <ele>-18.3</ele>
        <time>2022-04-11T14:19:14Z</time>
      </trkpt>
      <trkpt lat="47.715" lon="-3.37249">
        <ele>-18.1</ele>
        <time>2022-04-11T14:19:16Z</time>
      </trkpt>
      <trkpt lat="47.71506" lon="-3.3724">
        <ele>-17.4</ele>
        <time>2022-04-11T14:19:18Z</time>
      </trkpt>
      <trkpt lat="47.71511" lon="-3.37232">
        <ele>-18.1</ele>
        <time>2022-04-11T14:19:20Z</time>
      </trkpt>
      <trkpt lat="47.71516" lon="-3.37225">
        <ele>-17.6</ele>
        <time>2022-04-11T14:19:22Z</time>
      </trkpt>
      <trkpt lat="47.71522" lon="-3.37218">
        <ele>-17.5</ele>
        <time>2022-04-11T14:19:24Z</time>
      </trkpt>
      <trkpt lat="47.71528" lon="-3.37212">
        <ele>-18.6</ele>
        <time>2022-04-11T14:19:26Z</time>
      </trkpt>
      <trkpt lat="47.71534" lon="-3.37205">
        <ele>-19.4</ele>
        <time>2022-04-11T14:19:28Z</time>
      </trkpt>
      <trkpt lat="47.71541" lon="-3.37197">
        <ele>-19.5</ele>
        <time>2022-04-11T14:19:30Z</time>
      </trkpt>
      <trkpt lat="47.71546" lon="-3.3719">
        <ele>-19.9</ele>
        <time>2022-04-11T14:19:32Z</time>
      </trkpt>
      <trkpt lat="47.71551" lon="-3.37183">
        <ele>-19.5</ele>
        <time>2022-04-11T14:19:34Z</time>
      </trkpt>
      <trkpt lat="47.71556" lon="-3.37176">
        <ele>-19.4</ele>
        <time>2022-04-11T14:19:36Z</time>
      </trkpt>
      <trkpt lat="47.7156" lon="-3.37168">
        <ele>-19.8</ele>
        <time>2022-04-11T14:19:38Z</time>
      </trkpt>
      <trkpt lat="47.71565" lon="-3.37159">
        <ele>-20</ele>
        <time>2022-04-11T14:19:40Z</time>
      </trkpt>
      <trkpt lat="47.7157" lon="-3.37149">
        <ele>-19.1</ele>
        <time>2022-04-11T14:19:42Z</time>
      </trkpt>
      <trkpt lat="47.71575" lon="-3.37138">
        <ele>-16.8</ele>
        <time>2022-04-11T14:19:44Z</time>
      </trkpt>
      <trkpt lat="47.7158" lon="-3.37127">
        <ele>-14.5</ele>
        <time>2022-04-11T14:19:46Z</time>
      </trkpt>
      <trkpt lat="47.71582" lon="-3.37121">
        <ele>-13.2</ele>
        <time>2022-04-11T14:19:47Z</time>
      </trkpt>
      <trkpt lat="47.71585" lon="-3.37116">
        <ele>-12</ele>
        <time>2022-04-11T14:19:48Z</time>
      </trkpt>
      <trkpt lat="47.7159" lon="-3.37105">
        <ele>-11</ele>
        <time>2022-04-11T14:19:50Z</time>
      </trkpt>
      <trkpt lat="47.71594" lon="-3.37094">
        <ele>-9.5</ele>
        <time>2022-04-11T14:19:52Z</time>
      </trkpt>
      <trkpt lat="47.71597" lon="-3.37083">
        <ele>-8.5</ele>
        <time>2022-04-11T14:19:54Z</time>
      </trkpt>
      <trkpt lat="47.716" lon="-3.37073">
        <ele>-7.3</ele>
        <time>2022-04-11T14:19:56Z</time>
      </trkpt>
      <trkpt lat="47.71604" lon="-3.37068">
        <ele>-6.4</ele>
        <time>2022-04-11T14:19:57Z</time>
      </trkpt>
      <trkpt lat="47.71608" lon="-3.37057">
        <ele>-5.1</ele>
        <time>2022-04-11T14:19:59Z</time>
      </trkpt>
      <trkpt lat="47.71612" lon="-3.37046">
        <ele>-3.4</ele>
        <time>2022-04-11T14:20:01Z</time>
      </trkpt>
      <trkpt lat="47.71614" lon="-3.37036">
        <ele>-2.4</ele>
        <time>2022-04-11T14:20:03Z</time>
      </trkpt>
      <trkpt lat="47.71617" lon="-3.37027">
        <ele>-1.8</ele>
        <time>2022-04-11T14:20:05Z</time>
      </trkpt>
      <trkpt lat="47.71621" lon="-3.37019">
        <ele>-1.3</ele>
        <time>2022-04-11T14:20:07Z</time>
      </trkpt>
      <trkpt lat="47.71626" lon="-3.37011">
        <ele>-0.4</ele>
        <time>2022-04-11T14:20:09Z</time>
      </trkpt>
      <trkpt lat="47.7163" lon="-3.37002">
        <ele>0.6</ele>
        <time>2022-04-11T14:20:11Z</time>
      </trkpt>
      <trkpt lat="47.71633" lon="-3.36992">
        <ele>1.1</ele>
        <time>2022-04-11T14:20:13Z</time>
      </trkpt>
      <trkpt lat="47.71636" lon="-3.36983">
        <ele>1.2</ele>
        <time>2022-04-11T14:20:15Z</time>
      </trkpt>
      <trkpt lat="47.71638" lon="-3.36972">
        <ele>1.6</ele>
        <time>2022-04-11T14:20:17Z</time>
      </trkpt>
      <trkpt lat="47.7164" lon="-3.36961">
        <ele>1.9</ele>
        <time>2022-04-11T14:20:19Z</time>
      </trkpt>
      <trkpt lat="47.71642" lon="-3.36951">
        <ele>2.6</ele>
        <time>2022-04-11T14:20:21Z</time>
      </trkpt>
      <trkpt lat="47.71645" lon="-3.3694">
        <ele>3.8</ele>
        <time>2022-04-11T14:20:23Z</time>
      </trkpt>
      <trkpt lat="47.71645" lon="-3.36931">
        <ele>4.7</ele>
        <time>2022-04-11T14:20:25Z</time>
      </trkpt>
      <trkpt lat="47.7164" lon="-3.36925">
        <ele>4.6</ele>
        <time>2022-04-11T14:20:27Z</time>
      </trkpt>
      <trkpt lat="47.71633" lon="-3.36922">
        <ele>3.4</ele>
        <time>2022-04-11T14:20:29Z</time>
      </trkpt>
      <trkpt lat="47.71627" lon="-3.36916">
        <ele>3.9</ele>
        <time>2022-04-11T14:20:31Z</time>
      </trkpt>
      <trkpt lat="47.71622" lon="-3.36909">
        <ele>4.3</ele>
        <time>2022-04-11T14:20:33Z</time>
      </trkpt>
      <trkpt lat="47.71619" lon="-3.36899">
        <ele>4.8</ele>
        <time>2022-04-11T14:20:35Z</time>
      </trkpt>
      <trkpt lat="47.71621" lon="-3.36889">
        <ele>5</ele>
        <time>2022-04-11T14:20:37Z</time>
      </trkpt>
      <trkpt lat="47.71624" lon="-3.36879">
        <ele>5.4</ele>
        <time>2022-04-11T14:20:39Z</time>
      </trkpt>
      <trkpt lat="47.71627" lon="-3.36865">
        <ele>4.9</ele>
        <time>2022-04-11T14:20:41Z</time>
      </trkpt>
      <trkpt lat="47.71628" lon="-3.36858">
        <ele>4.8</ele>
        <time>2022-04-11T14:20:42Z</time>
      </trkpt>
      <trkpt lat="47.71629" lon="-3.36851">
        <ele>4.9</ele>
        <time>2022-04-11T14:20:43Z</time>
      </trkpt>
      <trkpt lat="47.7163" lon="-3.36844">
        <ele>4.9</ele>
        <time>2022-04-11T14:20:44Z</time>
      </trkpt>
      <trkpt lat="47.71632" lon="-3.36837">
        <ele>3.3</ele>
        <time>2022-04-11T14:20:45Z</time>
      </trkpt>
      <trkpt lat="47.71634" lon="-3.36826">
        <ele>2</ele>
        <time>2022-04-11T14:20:47Z</time>
      </trkpt>
      <trkpt lat="47.71637" lon="-3.3682">
        <ele>1.8</ele>
        <time>2022-04-11T14:20:49Z</time>
      </trkpt>
      <trkpt lat="47.71637" lon="-3.36809">
        <ele>5.7</ele>
        <time>2022-04-11T14:20:52Z</time>
      </trkpt>
      <trkpt lat="47.7164" lon="-3.368">
        <ele>5.4</ele>
        <time>2022-04-11T14:20:54Z</time>
      </trkpt>
      <trkpt lat="47.71644" lon="-3.36791">
        <ele>4.8</ele>
        <time>2022-04-11T14:20:56Z</time>
      </trkpt>
      <trkpt lat="47.71648" lon="-3.36782">
        <ele>2.8</ele>
        <time>2022-04-11T14:20:58Z</time>
      </trkpt>
      <trkpt lat="47.71651" lon="-3.36776">
        <ele>1.7</ele>
        <time>2022-04-11T14:21:00Z</time>
      </trkpt>
      <trkpt lat="47.71656" lon="-3.36767">
        <ele>2.1</ele>
        <time>2022-04-11T14:21:02Z</time>
      </trkpt>
      <trkpt lat="47.71658" lon="-3.36759">
        <ele>2.8</ele>
        <time>2022-04-11T14:21:04Z</time>
      </trkpt>
      <trkpt lat="47.71662" lon="-3.36753">
        <ele>2.9</ele>
        <time>2022-04-11T14:21:06Z</time>
      </trkpt>
      <trkpt lat="47.71666" lon="-3.36747">
        <ele>1.7</ele>
        <time>2022-04-11T14:21:08Z</time>
      </trkpt>
      <trkpt lat="47.71671" lon="-3.36742">
        <ele>1.4</ele>
        <time>2022-04-11T14:21:10Z</time>
      </trkpt>
      <trkpt lat="47.71675" lon="-3.36738">
        <ele>1.9</ele>
        <time>2022-04-11T14:21:12Z</time>
      </trkpt>
      <trkpt lat="47.71684" lon="-3.36737">
        <ele>2.3</ele>
        <time>2022-04-11T14:21:14Z</time>
      </trkpt>
      <trkpt lat="47.71689" lon="-3.36737">
        <ele>2.5</ele>
        <time>2022-04-11T14:21:15Z</time>
      </trkpt>
      <trkpt lat="47.71697" lon="-3.36739">
        <ele>2.7</ele>
        <time>2022-04-11T14:21:17Z</time>
      </trkpt>
      <trkpt lat="47.71702" lon="-3.36741">
        <ele>2.8</ele>
        <time>2022-04-11T14:21:18Z</time>
      </trkpt>
      <trkpt lat="47.71706" lon="-3.36744">
        <ele>2.8</ele>
        <time>2022-04-11T14:21:19Z</time>
      </trkpt>
      <trkpt lat="47.71711" lon="-3.36748">
        <ele>2.8</ele>
        <time>2022-04-11T14:21:20Z</time>
      </trkpt>
      <trkpt lat="47.71715" lon="-3.36751">
        <ele>2.7</ele>
        <time>2022-04-11T14:21:21Z</time>
      </trkpt>
      <trkpt lat="47.7172" lon="-3.36754">
        <ele>2.4</ele>
        <time>2022-04-11T14:21:22Z</time>
      </trkpt>
      <trkpt lat="47.71724" lon="-3.36757">
        <ele>2</ele>
        <time>2022-04-11T14:21:23Z</time>
      </trkpt>
      <trkpt lat="47.71728" lon="-3.36761">
        <ele>2.1</ele>
        <time>2022-04-11T14:21:24Z</time>
      </trkpt>
      <trkpt lat="47.71733" lon="-3.36764">
        <ele>1.9</ele>
        <time>2022-04-11T14:21:25Z</time>
      </trkpt>
      <trkpt lat="47.71739" lon="-3.3677">
        <ele>0.4</ele>
        <time>2022-04-11T14:21:27Z</time>
      </trkpt>
      <trkpt lat="47.71745" lon="-3.36776">
        <ele>-0.6</ele>
        <time>2022-04-11T14:21:29Z</time>
      </trkpt>
      <trkpt lat="47.71751" lon="-3.3678">
        <ele>-1.1</ele>
        <time>2022-04-11T14:21:31Z</time>
      </trkpt>
      <trkpt lat="47.71756" lon="-3.36784">
        <ele>-1.8</ele>
        <time>2022-04-11T14:21:33Z</time>
      </trkpt>
      <trkpt lat="47.71761" lon="-3.3679">
        <ele>-3.2</ele>
        <time>2022-04-11T14:21:35Z</time>
      </trkpt>
      <trkpt lat="47.71766" lon="-3.36799">
        <ele>-5.8</ele>
        <time>2022-04-11T14:21:37Z</time>
      </trkpt>
      <trkpt lat="47.71769" lon="-3.36804">
        <ele>-8.1</ele>
        <time>2022-04-11T14:21:39Z</time>
      </trkpt>
      <trkpt lat="47.71771" lon="-3.3681">
        <ele>-9.5</ele>
        <time>2022-04-11T14:21:41Z</time>
      </trkpt>
      <trkpt lat="47.71777" lon="-3.36818">
        <ele>-10.4</ele>
        <time>2022-04-11T14:21:43Z</time>
      </trkpt>
      <trkpt lat="47.71783" lon="-3.36826">
        <ele>-10.6</ele>
        <time>2022-04-11T14:21:45Z</time>
      </trkpt>
      <trkpt lat="47.71787" lon="-3.36834">
        <ele>-10.9</ele>
        <time>2022-04-11T14:21:47Z</time>
      </trkpt>
      <trkpt lat="47.71792" lon="-3.3684">
        <ele>-11.6</ele>
        <time>2022-04-11T14:21:49Z</time>
      </trkpt>
      <trkpt lat="47.71798" lon="-3.36845">
        <ele>-12.7</ele>
        <time>2022-04-11T14:21:51Z</time>
      </trkpt>
      <trkpt lat="47.71802" lon="-3.36853">
        <ele>-13</ele>
        <time>2022-04-11T14:21:53Z</time>
      </trkpt>
      <trkpt lat="47.71807" lon="-3.3686">
        <ele>-12.9</ele>
        <time>2022-04-11T14:21:55Z</time>
      </trkpt>
      <trkpt lat="47.71812" lon="-3.36867">
        <ele>-13.1</ele>
        <time>2022-04-11T14:21:57Z</time>
      </trkpt>
      <trkpt lat="47.71815" lon="-3.36873">
        <ele>-12.5</ele>
        <time>2022-04-11T14:21:59Z</time>
      </trkpt>
      <trkpt lat="47.71819" lon="-3.36879">
        <ele>-12.6</ele>
        <time>2022-04-11T14:22:01Z</time>
      </trkpt>
      <trkpt lat="47.71823" lon="-3.36885">
        <ele>-12.5</ele>
        <time>2022-04-11T14:22:03Z</time>
      </trkpt>
      <trkpt lat="47.71826" lon="-3.36891">
        <ele>-12</ele>
        <time>2022-04-11T14:22:05Z</time>
      </trkpt>
      <trkpt lat="47.7183" lon="-3.36896">
        <ele>-12.5</ele>
        <time>2022-04-11T14:22:07Z</time>
      </trkpt>
      <trkpt lat="47.71834" lon="-3.36901">
        <ele>-12.8</ele>
        <time>2022-04-11T14:22:09Z</time>
      </trkpt>
      <trkpt lat="47.71838" lon="-3.36908">
        <ele>-13</ele>
        <time>2022-04-11T14:22:12Z</time>
      </trkpt>
      <trkpt lat="47.71842" lon="-3.36914">
        <ele>-13.9</ele>
        <time>2022-04-11T14:22:15Z</time>
      </trkpt>
      <trkpt lat="47.7184" lon="-3.36921">
        <ele>-13.3</ele>
        <time>2022-04-11T14:22:18Z</time>
      </trkpt>
      <trkpt lat="47.71834" lon="-3.36921">
        <ele>-13.3</ele>
        <time>2022-04-11T14:22:20Z</time>
      </trkpt>
      <trkpt lat="47.7183" lon="-3.36918">
        <ele>-13</ele>
        <time>2022-04-11T14:22:22Z</time>
      </trkpt>
      <trkpt lat="47.71826" lon="-3.36913">
        <ele>-12.8</ele>
        <time>2022-04-11T14:22:24Z</time>
      </trkpt>
      <trkpt lat="47.71823" lon="-3.36906">
        <ele>-12.8</ele>
        <time>2022-04-11T14:22:27Z</time>
      </trkpt>
      <trkpt lat="47.7182" lon="-3.36901">
        <ele>-12</ele>
        <time>2022-04-11T14:22:34Z</time>
      </trkpt>
      <trkpt lat="47.71815" lon="-3.36899">
        <ele>-10.2</ele>
        <time>2022-04-11T14:22:50Z</time>
      </trkpt>
      <trkpt lat="47.71811" lon="-3.36903">
        <ele>-6.7</ele>
        <time>2022-04-11T14:23:20Z</time>
      </trkpt>
      <trkpt lat="47.71805" lon="-3.36903">
        <ele>-5.4</ele>
        <time>2022-04-11T14:23:37Z</time>
      </trkpt>
      <trkpt lat="47.71824" lon="-3.36924">
        <ele>-1.7</ele>
        <time>2022-04-11T14:39:26Z</time>
      </trkpt>
      <trkpt lat="47.71821" lon="-3.3693">
        <ele>-0.7</ele>
        <time>2022-04-11T14:39:40Z</time>
      </trkpt>
      <trkpt lat="47.71818" lon="-3.36937">
        <ele>4</ele>
        <time>2022-04-11T14:39:44Z</time>
      </trkpt>
      <trkpt lat="47.71815" lon="-3.36942">
        <ele>4</ele>
        <time>2022-04-11T14:39:46Z</time>
      </trkpt>
      <trkpt lat="47.71811" lon="-3.36947">
        <ele>-0.5</ele>
        <time>2022-04-11T14:39:48Z</time>
      </trkpt>
      <trkpt lat="47.71805" lon="-3.36954">
        <ele>-0.7</ele>
        <time>2022-04-11T14:39:50Z</time>
      </trkpt>
      <trkpt lat="47.71801" lon="-3.36959">
        <ele>-0.7</ele>
        <time>2022-04-11T14:39:52Z</time>
      </trkpt>
      <trkpt lat="47.71798" lon="-3.36967">
        <ele>-1.4</ele>
        <time>2022-04-11T14:39:55Z</time>
      </trkpt>
      <trkpt lat="47.71796" lon="-3.36977">
        <ele>-2.8</ele>
        <time>2022-04-11T14:39:58Z</time>
      </trkpt>
      <trkpt lat="47.7179" lon="-3.36985">
        <ele>-3</ele>
        <time>2022-04-11T14:40:00Z</time>
      </trkpt>
      <trkpt lat="47.71784" lon="-3.36993">
        <ele>-3.4</ele>
        <time>2022-04-11T14:40:02Z</time>
      </trkpt>
      <trkpt lat="47.71779" lon="-3.37">
        <ele>-4.1</ele>
        <time>2022-04-11T14:40:04Z</time>
      </trkpt>
      <trkpt lat="47.71776" lon="-3.37008">
        <ele>-4.4</ele>
        <time>2022-04-11T14:40:06Z</time>
      </trkpt>
      <trkpt lat="47.71773" lon="-3.37017">
        <ele>-5.2</ele>
        <time>2022-04-11T14:40:08Z</time>
      </trkpt>
      <trkpt lat="47.71771" lon="-3.37025">
        <ele>-6.5</ele>
        <time>2022-04-11T14:40:10Z</time>
      </trkpt>
      <trkpt lat="47.71768" lon="-3.37032">
        <ele>-7.9</ele>
        <time>2022-04-11T14:40:12Z</time>
      </trkpt>
      <trkpt lat="47.71765" lon="-3.37041">
        <ele>-9</ele>
        <time>2022-04-11T14:40:14Z</time>
      </trkpt>
      <trkpt lat="47.7176" lon="-3.37052">
        <ele>-8.3</ele>
        <time>2022-04-11T14:40:16Z</time>
      </trkpt>
      <trkpt lat="47.71755" lon="-3.3706">
        <ele>-7.8</ele>
        <time>2022-04-11T14:40:17Z</time>
      </trkpt>
      <trkpt lat="47.71752" lon="-3.37066">
        <ele>-7.3</ele>
        <time>2022-04-11T14:40:18Z</time>
      </trkpt>
      <trkpt lat="47.71749" lon="-3.37072">
        <ele>-7</ele>
        <time>2022-04-11T14:40:19Z</time>
      </trkpt>
      <trkpt lat="47.71745" lon="-3.3708">
        <ele>-7.3</ele>
        <time>2022-04-11T14:40:21Z</time>
      </trkpt>
      <trkpt lat="47.71742" lon="-3.37086">
        <ele>-7.4</ele>
        <time>2022-04-11T14:40:23Z</time>
      </trkpt>
      <trkpt lat="47.71739" lon="-3.37094">
        <ele>-5.9</ele>
        <time>2022-04-11T14:40:25Z</time>
      </trkpt>
      <trkpt lat="47.71737" lon="-3.37106">
        <ele>-4.3</ele>
        <time>2022-04-11T14:40:27Z</time>
      </trkpt>
      <trkpt lat="47.71736" lon="-3.37114">
        <ele>-4</ele>
        <time>2022-04-11T14:40:28Z</time>
      </trkpt>
      <trkpt lat="47.71735" lon="-3.37122">
        <ele>-3.4</ele>
        <time>2022-04-11T14:40:29Z</time>
      </trkpt>
      <trkpt lat="47.71734" lon="-3.37129">
        <ele>-2.7</ele>
        <time>2022-04-11T14:40:30Z</time>
      </trkpt>
      <trkpt lat="47.71733" lon="-3.37138">
        <ele>-2.4</ele>
        <time>2022-04-11T14:40:31Z</time>
      </trkpt>
      <trkpt lat="47.71732" lon="-3.37147">
        <ele>-2.4</ele>
        <time>2022-04-11T14:40:32Z</time>
      </trkpt>
      <trkpt lat="47.71731" lon="-3.37154">
        <ele>-1.9</ele>
        <time>2022-04-11T14:40:33Z</time>
      </trkpt>
      <trkpt lat="47.71727" lon="-3.37163">
        <ele>-1.8</ele>
        <time>2022-04-11T14:40:35Z</time>
      </trkpt>
      <trkpt lat="47.71721" lon="-3.37172">
        <ele>0.3</ele>
        <time>2022-04-11T14:40:37Z</time>
      </trkpt>
      <trkpt lat="47.71718" lon="-3.37179">
        <ele>2.3</ele>
        <time>2022-04-11T14:40:38Z</time>
      </trkpt>
      <trkpt lat="47.71716" lon="-3.37187">
        <ele>2.8</ele>
        <time>2022-04-11T14:40:39Z</time>
      </trkpt>
      <trkpt lat="47.71714" lon="-3.37196">
        <ele>3.1</ele>
        <time>2022-04-11T14:40:40Z</time>
      </trkpt>
      <trkpt lat="47.71712" lon="-3.37204">
        <ele>2.9</ele>
        <time>2022-04-11T14:40:41Z</time>
      </trkpt>
      <trkpt lat="47.7171" lon="-3.37212">
        <ele>2.7</ele>
        <time>2022-04-11T14:40:42Z</time>
      </trkpt>
      <trkpt lat="47.71709" lon="-3.37219">
        <ele>2.6</ele>
        <time>2022-04-11T14:40:43Z</time>
      </trkpt>
      <trkpt lat="47.71707" lon="-3.37225">
        <ele>1.9</ele>
        <time>2022-04-11T14:40:44Z</time>
      </trkpt>
      <trkpt lat="47.71706" lon="-3.37238">
        <ele>1.9</ele>
        <time>2022-04-11T14:40:46Z</time>
      </trkpt>
      <trkpt lat="47.71704" lon="-3.37251">
        <ele>1.8</ele>
        <time>2022-04-11T14:40:48Z</time>
      </trkpt>
      <trkpt lat="47.71704" lon="-3.37263">
        <ele>1.9</ele>
        <time>2022-04-11T14:40:50Z</time>
      </trkpt>
      <trkpt lat="47.71705" lon="-3.37274">
        <ele>2.4</ele>
        <time>2022-04-11T14:40:52Z</time>
      </trkpt>
      <trkpt lat="47.71707" lon="-3.37285">
        <ele>2.6</ele>
        <time>2022-04-11T14:40:54Z</time>
      </trkpt>
      <trkpt lat="47.71709" lon="-3.37295">
        <ele>2.9</ele>
        <time>2022-04-11T14:40:56Z</time>
      </trkpt>
      <trkpt lat="47.71711" lon="-3.37303">
        <ele>2.9</ele>
        <time>2022-04-11T14:40:58Z</time>
      </trkpt>
      <trkpt lat="47.71712" lon="-3.37311">
        <ele>3.2</ele>
        <time>2022-04-11T14:41:00Z</time>
      </trkpt>
      <trkpt lat="47.71717" lon="-3.37317">
        <ele>3.2</ele>
        <time>2022-04-11T14:41:02Z</time>
      </trkpt>
      <trkpt lat="47.71722" lon="-3.37321">
        <ele>2.5</ele>
        <time>2022-04-11T14:41:04Z</time>
      </trkpt>
      <trkpt lat="47.71729" lon="-3.37325">
        <ele>2.4</ele>
        <time>2022-04-11T14:41:06Z</time>
      </trkpt>
      <trkpt lat="47.71736" lon="-3.37329">
        <ele>2.3</ele>
        <time>2022-04-11T14:41:08Z</time>
      </trkpt>
      <trkpt lat="47.71744" lon="-3.37333">
        <ele>2.7</ele>
        <time>2022-04-11T14:41:10Z</time>
      </trkpt>
      <trkpt lat="47.71752" lon="-3.37337">
        <ele>2.7</ele>
        <time>2022-04-11T14:41:12Z</time>
      </trkpt>
      <trkpt lat="47.7176" lon="-3.37341">
        <ele>2.5</ele>
        <time>2022-04-11T14:41:14Z</time>
      </trkpt>
      <trkpt lat="47.71769" lon="-3.37345">
        <ele>2.9</ele>
        <time>2022-04-11T14:41:16Z</time>
      </trkpt>
      <trkpt lat="47.71773" lon="-3.37347">
        <ele>3.1</ele>
        <time>2022-04-11T14:41:17Z</time>
      </trkpt>
      <trkpt lat="47.71777" lon="-3.37349">
        <ele>3.3</ele>
        <time>2022-04-11T14:41:18Z</time>
      </trkpt>
      <trkpt lat="47.71785" lon="-3.37353">
        <ele>3.2</ele>
        <time>2022-04-11T14:41:20Z</time>
      </trkpt>
      <trkpt lat="47.71793" lon="-3.37358">
        <ele>2.9</ele>
        <time>2022-04-11T14:41:22Z</time>
      </trkpt>
      <trkpt lat="47.718" lon="-3.37363">
        <ele>2.2</ele>
        <time>2022-04-11T14:41:24Z</time>
      </trkpt>
      <trkpt lat="47.71808" lon="-3.37367">
        <ele>2</ele>
        <time>2022-04-11T14:41:26Z</time>
      </trkpt>
      <trkpt lat="47.71815" lon="-3.37372">
        <ele>1.1</ele>
        <time>2022-04-11T14:41:28Z</time>
      </trkpt>
      <trkpt lat="47.71821" lon="-3.37377">
        <ele>1.3</ele>
        <time>2022-04-11T14:41:30Z</time>
      </trkpt>
      <trkpt lat="47.71828" lon="-3.37383">
        <ele>1.2</ele>
        <time>2022-04-11T14:41:32Z</time>
      </trkpt>
      <trkpt lat="47.71834" lon="-3.37389">
        <ele>1.6</ele>
        <time>2022-04-11T14:41:34Z</time>
      </trkpt>
      <trkpt lat="47.7184" lon="-3.37394">
        <ele>2.1</ele>
        <time>2022-04-11T14:41:36Z</time>
      </trkpt>
      <trkpt lat="47.71847" lon="-3.37399">
        <ele>3.1</ele>
        <time>2022-04-11T14:41:38Z</time>
      </trkpt>
      <trkpt lat="47.71854" lon="-3.37404">
        <ele>3.6</ele>
        <time>2022-04-11T14:41:40Z</time>
      </trkpt>
      <trkpt lat="47.7186" lon="-3.37407">
        <ele>3.8</ele>
        <time>2022-04-11T14:41:42Z</time>
      </trkpt>
      <trkpt lat="47.71866" lon="-3.3741">
        <ele>3.5</ele>
        <time>2022-04-11T14:41:44Z</time>
      </trkpt>
      <trkpt lat="47.71873" lon="-3.37416">
        <ele>2.7</ele>
        <time>2022-04-11T14:41:46Z</time>
      </trkpt>
      <trkpt lat="47.71877" lon="-3.37419">
        <ele>2.6</ele>
        <time>2022-04-11T14:41:47Z</time>
      </trkpt>
      <trkpt lat="47.71882" lon="-3.37422">
        <ele>2.5</ele>
        <time>2022-04-11T14:41:48Z</time>
      </trkpt>
      <trkpt lat="47.71886" lon="-3.37424">
        <ele>2.4</ele>
        <time>2022-04-11T14:41:49Z</time>
      </trkpt>
      <trkpt lat="47.7189" lon="-3.37427">
        <ele>2.3</ele>
        <time>2022-04-11T14:41:50Z</time>
      </trkpt>
      <trkpt lat="47.71898" lon="-3.37431">
        <ele>2.2</ele>
        <time>2022-04-11T14:41:52Z</time>
      </trkpt>
      <trkpt lat="47.71905" lon="-3.37436">
        <ele>2.7</ele>
        <time>2022-04-11T14:41:54Z</time>
      </trkpt>
      <trkpt lat="47.71911" lon="-3.37441">
        <ele>3.3</ele>
        <time>2022-04-11T14:41:56Z</time>
      </trkpt>
      <trkpt lat="47.71918" lon="-3.37445">
        <ele>3.4</ele>
        <time>2022-04-11T14:41:58Z</time>
      </trkpt>
      <trkpt lat="47.71926" lon="-3.3745">
        <ele>3.3</ele>
        <time>2022-04-11T14:42:00Z</time>
      </trkpt>
      <trkpt lat="47.71933" lon="-3.37456">
        <ele>2.8</ele>
        <time>2022-04-11T14:42:02Z</time>
      </trkpt>
      <trkpt lat="47.7194" lon="-3.37461">
        <ele>2.9</ele>
        <time>2022-04-11T14:42:04Z</time>
      </trkpt>
      <trkpt lat="47.71947" lon="-3.37466">
        <ele>2.2</ele>
        <time>2022-04-11T14:42:06Z</time>
      </trkpt>
      <trkpt lat="47.71954" lon="-3.37474">
        <ele>1.5</ele>
        <time>2022-04-11T14:42:08Z</time>
      </trkpt>
      <trkpt lat="47.71961" lon="-3.37481">
        <ele>2.1</ele>
        <time>2022-04-11T14:42:10Z</time>
      </trkpt>
      <trkpt lat="47.71969" lon="-3.37487">
        <ele>2.3</ele>
        <time>2022-04-11T14:42:12Z</time>
      </trkpt>
      <trkpt lat="47.71975" lon="-3.37491">
        <ele>2</ele>
        <time>2022-04-11T14:42:14Z</time>
      </trkpt>
      <trkpt lat="47.71981" lon="-3.37496">
        <ele>1.7</ele>
        <time>2022-04-11T14:42:16Z</time>
      </trkpt>
      <trkpt lat="47.71986" lon="-3.375">
        <ele>0.7</ele>
        <time>2022-04-11T14:42:18Z</time>
      </trkpt>
      <trkpt lat="47.71991" lon="-3.37502">
        <ele>-0.1</ele>
        <time>2022-04-11T14:42:20Z</time>
      </trkpt>
      <trkpt lat="47.71996" lon="-3.37506">
        <ele>-0.8</ele>
        <time>2022-04-11T14:42:22Z</time>
      </trkpt>
      <trkpt lat="47.72" lon="-3.37509">
        <ele>-2.6</ele>
        <time>2022-04-11T14:42:24Z</time>
      </trkpt>
      <trkpt lat="47.72004" lon="-3.37512">
        <ele>-3.9</ele>
        <time>2022-04-11T14:42:26Z</time>
      </trkpt>
      <trkpt lat="47.72012" lon="-3.37517">
        <ele>-4.7</ele>
        <time>2022-04-11T14:42:28Z</time>
      </trkpt>
      <trkpt lat="47.72017" lon="-3.37521">
        <ele>-4.9</ele>
        <time>2022-04-11T14:42:29Z</time>
      </trkpt>
      <trkpt lat="47.72021" lon="-3.37524">
        <ele>-5</ele>
        <time>2022-04-11T14:42:30Z</time>
      </trkpt>
      <trkpt lat="47.72025" lon="-3.37528">
        <ele>-4.8</ele>
        <time>2022-04-11T14:42:31Z</time>
      </trkpt>
      <trkpt lat="47.72029" lon="-3.37531">
        <ele>-4.7</ele>
        <time>2022-04-11T14:42:32Z</time>
      </trkpt>
      <trkpt lat="47.72033" lon="-3.37535">
        <ele>-4.8</ele>
        <time>2022-04-11T14:42:33Z</time>
      </trkpt>
      <trkpt lat="47.72037" lon="-3.37538">
        <ele>-5.2</ele>
        <time>2022-04-11T14:42:34Z</time>
      </trkpt>
      <trkpt lat="47.72041" lon="-3.37542">
        <ele>-5.7</ele>
        <time>2022-04-11T14:42:35Z</time>
      </trkpt>
      <trkpt lat="47.72045" lon="-3.37545">
        <ele>-6.2</ele>
        <time>2022-04-11T14:42:36Z</time>
      </trkpt>
      <trkpt lat="47.72049" lon="-3.37549">
        <ele>-5.9</ele>
        <time>2022-04-11T14:42:37Z</time>
      </trkpt>
      <trkpt lat="47.72053" lon="-3.37552">
        <ele>-5.6</ele>
        <time>2022-04-11T14:42:38Z</time>
      </trkpt>
      <trkpt lat="47.72057" lon="-3.37556">
        <ele>-5.6</ele>
        <time>2022-04-11T14:42:39Z</time>
      </trkpt>
      <trkpt lat="47.72062" lon="-3.37559">
        <ele>-5.7</ele>
        <time>2022-04-11T14:42:40Z</time>
      </trkpt>
      <trkpt lat="47.72066" lon="-3.37563">
        <ele>-5.7</ele>
        <time>2022-04-11T14:42:41Z</time>
      </trkpt>
      <trkpt lat="47.72071" lon="-3.37567">
        <ele>-5.8</ele>
        <time>2022-04-11T14:42:42Z</time>
      </trkpt>
      <trkpt lat="47.72075" lon="-3.37571">
        <ele>-5.4</ele>
        <time>2022-04-11T14:42:43Z</time>
      </trkpt>
      <trkpt lat="47.72079" lon="-3.37575">
        <ele>-5.2</ele>
        <time>2022-04-11T14:42:44Z</time>
      </trkpt>
      <trkpt lat="47.72084" lon="-3.37579">
        <ele>-4.9</ele>
        <time>2022-04-11T14:42:45Z</time>
      </trkpt>
      <trkpt lat="47.72088" lon="-3.37584">
        <ele>-4.7</ele>
        <time>2022-04-11T14:42:46Z</time>
      </trkpt>
      <trkpt lat="47.72093" lon="-3.37588">
        <ele>-4.9</ele>
        <time>2022-04-11T14:42:47Z</time>
      </trkpt>
      <trkpt lat="47.72097" lon="-3.37591">
        <ele>-5.3</ele>
        <time>2022-04-11T14:42:48Z</time>
      </trkpt>
      <trkpt lat="47.72102" lon="-3.37595">
        <ele>-5.7</ele>
        <time>2022-04-11T14:42:49Z</time>
      </trkpt>
      <trkpt lat="47.72106" lon="-3.37598">
        <ele>-6</ele>
        <time>2022-04-11T14:42:50Z</time>
      </trkpt>
      <trkpt lat="47.7211" lon="-3.37601">
        <ele>-6.2</ele>
        <time>2022-04-11T14:42:51Z</time>
      </trkpt>
      <trkpt lat="47.72114" lon="-3.37604">
        <ele>-6.8</ele>
        <time>2022-04-11T14:42:52Z</time>
      </trkpt>
      <trkpt lat="47.72118" lon="-3.37608">
        <ele>-6.9</ele>
        <time>2022-04-11T14:42:53Z</time>
      </trkpt>
      <trkpt lat="47.72122" lon="-3.37611">
        <ele>-6.7</ele>
        <time>2022-04-11T14:42:54Z</time>
      </trkpt>
      <trkpt lat="47.72127" lon="-3.37614">
        <ele>-6.6</ele>
        <time>2022-04-11T14:42:55Z</time>
      </trkpt>
      <trkpt lat="47.72131" lon="-3.37617">
        <ele>-6.8</ele>
        <time>2022-04-11T14:42:56Z</time>
      </trkpt>
      <trkpt lat="47.72136" lon="-3.3762">
        <ele>-7.1</ele>
        <time>2022-04-11T14:42:57Z</time>
      </trkpt>
      <trkpt lat="47.7214" lon="-3.37622">
        <ele>-7.4</ele>
        <time>2022-04-11T14:42:58Z</time>
      </trkpt>
      <trkpt lat="47.72148" lon="-3.37627">
        <ele>-7.5</ele>
        <time>2022-04-11T14:43:00Z</time>
      </trkpt>
      <trkpt lat="47.72152" lon="-3.37629">
        <ele>-7.9</ele>
        <time>2022-04-11T14:43:01Z</time>
      </trkpt>
      <trkpt lat="47.72161" lon="-3.37631">
        <ele>-8.4</ele>
        <time>2022-04-11T14:43:03Z</time>
      </trkpt>
      <trkpt lat="47.72169" lon="-3.37631">
        <ele>-8.8</ele>
        <time>2022-04-11T14:43:05Z</time>
      </trkpt>
      <trkpt lat="47.72178" lon="-3.37632">
        <ele>-8.9</ele>
        <time>2022-04-11T14:43:07Z</time>
      </trkpt>
      <trkpt lat="47.72186" lon="-3.37635">
        <ele>-8.5</ele>
        <time>2022-04-11T14:43:09Z</time>
      </trkpt>
      <trkpt lat="47.72193" lon="-3.37644">
        <ele>-8</ele>
        <time>2022-04-11T14:43:11Z</time>
      </trkpt>
      <trkpt lat="47.72198" lon="-3.37649">
        <ele>-7.2</ele>
        <time>2022-04-11T14:43:12Z</time>
      </trkpt>
      <trkpt lat="47.72203" lon="-3.37653">
        <ele>-6.1</ele>
        <time>2022-04-11T14:43:13Z</time>
      </trkpt>
      <trkpt lat="47.72207" lon="-3.37658">
        <ele>-6.3</ele>
        <time>2022-04-11T14:43:14Z</time>
      </trkpt>
      <trkpt lat="47.72214" lon="-3.37666">
        <ele>-6.3</ele>
        <time>2022-04-11T14:43:16Z</time>
      </trkpt>
      <trkpt lat="47.72221" lon="-3.37673">
        <ele>-6.3</ele>
        <time>2022-04-11T14:43:18Z</time>
      </trkpt>
      <trkpt lat="47.72226" lon="-3.37676">
        <ele>-6.1</ele>
        <time>2022-04-11T14:43:19Z</time>
      </trkpt>
      <trkpt lat="47.7223" lon="-3.3768">
        <ele>-6</ele>
        <time>2022-04-11T14:43:20Z</time>
      </trkpt>
      <trkpt lat="47.72234" lon="-3.37683">
        <ele>-6.2</ele>
        <time>2022-04-11T14:43:21Z</time>
      </trkpt>
      <trkpt lat="47.72242" lon="-3.3769">
        <ele>-6.5</ele>
        <time>2022-04-11T14:43:23Z</time>
      </trkpt>
      <trkpt lat="47.7225" lon="-3.37696">
        <ele>-6.9</ele>
        <time>2022-04-11T14:43:25Z</time>
      </trkpt>
      <trkpt lat="47.72257" lon="-3.37702">
        <ele>-6.9</ele>
        <time>2022-04-11T14:43:27Z</time>
      </trkpt>
      <trkpt lat="47.72265" lon="-3.37707">
        <ele>-7.1</ele>
        <time>2022-04-11T14:43:29Z</time>
      </trkpt>
      <trkpt lat="47.72272" lon="-3.37713">
        <ele>-7.7</ele>
        <time>2022-04-11T14:43:31Z</time>
      </trkpt>
      <trkpt lat="47.72279" lon="-3.37719">
        <ele>-7.9</ele>
        <time>2022-04-11T14:43:33Z</time>
      </trkpt>
      <trkpt lat="47.72285" lon="-3.37727">
        <ele>-9.1</ele>
        <time>2022-04-11T14:43:35Z</time>
      </trkpt>
      <trkpt lat="47.72291" lon="-3.37732">
        <ele>-9.5</ele>
        <time>2022-04-11T14:43:37Z</time>
      </trkpt>
      <trkpt lat="47.72299" lon="-3.37736">
        <ele>-9.9</ele>
        <time>2022-04-11T14:43:39Z</time>
      </trkpt>
      <trkpt lat="47.72307" lon="-3.3774">
        <ele>-10.7</ele>
        <time>2022-04-11T14:43:41Z</time>
      </trkpt>
      <trkpt lat="47.72312" lon="-3.37742">
        <ele>-11.1</ele>
        <time>2022-04-11T14:43:42Z</time>
      </trkpt>
      <trkpt lat="47.72316" lon="-3.37744">
        <ele>-11.2</ele>
        <time>2022-04-11T14:43:43Z</time>
      </trkpt>
      <trkpt lat="47.72325" lon="-3.37747">
        <ele>-11.6</ele>
        <time>2022-04-11T14:43:45Z</time>
      </trkpt>
      <trkpt lat="47.72334" lon="-3.37747">
        <ele>-9.3</ele>
        <time>2022-04-11T14:43:47Z</time>
      </trkpt>
      <trkpt lat="47.72343" lon="-3.37744">
        <ele>-7.7</ele>
        <time>2022-04-11T14:43:49Z</time>
      </trkpt>
      <trkpt lat="47.72347" lon="-3.37741">
        <ele>-6.8</ele>
        <time>2022-04-11T14:43:50Z</time>
      </trkpt>
      <trkpt lat="47.72352" lon="-3.37737">
        <ele>-6.1</ele>
        <time>2022-04-11T14:43:51Z</time>
      </trkpt>
      <trkpt lat="47.72356" lon="-3.37734">
        <ele>-6</ele>
        <time>2022-04-11T14:43:52Z</time>
      </trkpt>
      <trkpt lat="47.72361" lon="-3.37732">
        <ele>-4.9</ele>
        <time>2022-04-11T14:43:53Z</time>
      </trkpt>
      <trkpt lat="47.72366" lon="-3.3773">
        <ele>-4.1</ele>
        <time>2022-04-11T14:43:54Z</time>
      </trkpt>
      <trkpt lat="47.72371" lon="-3.37728">
        <ele>-3.4</ele>
        <time>2022-04-11T14:43:55Z</time>
      </trkpt>
      <trkpt lat="47.72379" lon="-3.37725">
        <ele>-2.6</ele>
        <time>2022-04-11T14:43:57Z</time>
      </trkpt>
      <trkpt lat="47.72387" lon="-3.37722">
        <ele>-2</ele>
        <time>2022-04-11T14:43:59Z</time>
      </trkpt>
      <trkpt lat="47.72394" lon="-3.37719">
        <ele>-1</ele>
        <time>2022-04-11T14:44:01Z</time>
      </trkpt>
      <trkpt lat="47.72402" lon="-3.37719">
        <ele>0.5</ele>
        <time>2022-04-11T14:44:03Z</time>
      </trkpt>
      <trkpt lat="47.7241" lon="-3.37716">
        <ele>2.3</ele>
        <time>2022-04-11T14:44:05Z</time>
      </trkpt>
      <trkpt lat="47.72417" lon="-3.37712">
        <ele>3.5</ele>
        <time>2022-04-11T14:44:07Z</time>
      </trkpt>
      <trkpt lat="47.72424" lon="-3.37709">
        <ele>4.4</ele>
        <time>2022-04-11T14:44:09Z</time>
      </trkpt>
      <trkpt lat="47.72431" lon="-3.37707">
        <ele>5.3</ele>
        <time>2022-04-11T14:44:11Z</time>
      </trkpt>
      <trkpt lat="47.72438" lon="-3.37703">
        <ele>6</ele>
        <time>2022-04-11T14:44:13Z</time>
      </trkpt>
      <trkpt lat="47.72445" lon="-3.377">
        <ele>8</ele>
        <time>2022-04-11T14:44:15Z</time>
      </trkpt>
      <trkpt lat="47.72453" lon="-3.37696">
        <ele>9.3</ele>
        <time>2022-04-11T14:44:17Z</time>
      </trkpt>
      <trkpt lat="47.72459" lon="-3.37692">
        <ele>10.3</ele>
        <time>2022-04-11T14:44:19Z</time>
      </trkpt>
      <trkpt lat="47.72465" lon="-3.37687">
        <ele>10.5</ele>
        <time>2022-04-11T14:44:21Z</time>
      </trkpt>
      <trkpt lat="47.72471" lon="-3.37681">
        <ele>11.2</ele>
        <time>2022-04-11T14:44:23Z</time>
      </trkpt>
      <trkpt lat="47.72478" lon="-3.37677">
        <ele>11.2</ele>
        <time>2022-04-11T14:44:25Z</time>
      </trkpt>
      <trkpt lat="47.72484" lon="-3.37674">
        <ele>11.4</ele>
        <time>2022-04-11T14:44:27Z</time>
      </trkpt>
      <trkpt lat="47.72491" lon="-3.37671">
        <ele>11.8</ele>
        <time>2022-04-11T14:44:29Z</time>
      </trkpt>
      <trkpt lat="47.72498" lon="-3.37669">
        <ele>12.5</ele>
        <time>2022-04-11T14:44:31Z</time>
      </trkpt>
      <trkpt lat="47.72505" lon="-3.37667">
        <ele>13</ele>
        <time>2022-04-11T14:44:33Z</time>
      </trkpt>
      <trkpt lat="47.72513" lon="-3.37665">
        <ele>13.3</ele>
        <time>2022-04-11T14:44:35Z</time>
      </trkpt>
      <trkpt lat="47.7252" lon="-3.37663">
        <ele>13.5</ele>
        <time>2022-04-11T14:44:37Z</time>
      </trkpt>
      <trkpt lat="47.72527" lon="-3.37663">
        <ele>13.6</ele>
        <time>2022-04-11T14:44:39Z</time>
      </trkpt>
      <trkpt lat="47.72535" lon="-3.37662">
        <ele>13.8</ele>
        <time>2022-04-11T14:44:41Z</time>
      </trkpt>
      <trkpt lat="47.72542" lon="-3.3766">
        <ele>13.8</ele>
        <time>2022-04-11T14:44:43Z</time>
      </trkpt>
      <trkpt lat="47.72549" lon="-3.37659">
        <ele>14.2</ele>
        <time>2022-04-11T14:44:45Z</time>
      </trkpt>
      <trkpt lat="47.72557" lon="-3.37657">
        <ele>14.3</ele>
        <time>2022-04-11T14:44:47Z</time>
      </trkpt>
      <trkpt lat="47.72564" lon="-3.37653">
        <ele>14</ele>
        <time>2022-04-11T14:44:49Z</time>
      </trkpt>
      <trkpt lat="47.72571" lon="-3.3765">
        <ele>13.6</ele>
        <time>2022-04-11T14:44:51Z</time>
      </trkpt>
      <trkpt lat="47.72578" lon="-3.37647">
        <ele>14</ele>
        <time>2022-04-11T14:44:53Z</time>
      </trkpt>
      <trkpt lat="47.72585" lon="-3.37644">
        <ele>14.3</ele>
        <time>2022-04-11T14:44:55Z</time>
      </trkpt>
      <trkpt lat="47.72592" lon="-3.37642">
        <ele>13.8</ele>
        <time>2022-04-11T14:44:57Z</time>
      </trkpt>
      <trkpt lat="47.726" lon="-3.37642">
        <ele>12.9</ele>
        <time>2022-04-11T14:44:59Z</time>
      </trkpt>
      <trkpt lat="47.72608" lon="-3.37643">
        <ele>11.9</ele>
        <time>2022-04-11T14:45:01Z</time>
      </trkpt>
      <trkpt lat="47.72616" lon="-3.37643">
        <ele>12.1</ele>
        <time>2022-04-11T14:45:03Z</time>
      </trkpt>
      <trkpt lat="47.72623" lon="-3.37645">
        <ele>11.9</ele>
        <time>2022-04-11T14:45:05Z</time>
      </trkpt>
      <trkpt lat="47.72631" lon="-3.37649">
        <ele>11.4</ele>
        <time>2022-04-11T14:45:07Z</time>
      </trkpt>
      <trkpt lat="47.72639" lon="-3.37654">
        <ele>11</ele>
        <time>2022-04-11T14:45:09Z</time>
      </trkpt>
      <trkpt lat="47.72643" lon="-3.37657">
        <ele>11.5</ele>
        <time>2022-04-11T14:45:10Z</time>
      </trkpt>
      <trkpt lat="47.72647" lon="-3.37659">
        <ele>11.3</ele>
        <time>2022-04-11T14:45:11Z</time>
      </trkpt>
      <trkpt lat="47.72651" lon="-3.37662">
        <ele>11.2</ele>
        <time>2022-04-11T14:45:12Z</time>
      </trkpt>
      <trkpt lat="47.72656" lon="-3.37665">
        <ele>11</ele>
        <time>2022-04-11T14:45:13Z</time>
      </trkpt>
      <trkpt lat="47.7266" lon="-3.37669">
        <ele>11.1</ele>
        <time>2022-04-11T14:45:14Z</time>
      </trkpt>
      <trkpt lat="47.72664" lon="-3.37674">
        <ele>11</ele>
        <time>2022-04-11T14:45:15Z</time>
      </trkpt>
      <trkpt lat="47.72668" lon="-3.37678">
        <ele>11.1</ele>
        <time>2022-04-11T14:45:16Z</time>
      </trkpt>
      <trkpt lat="47.72671" lon="-3.37684">
        <ele>10.8</ele>
        <time>2022-04-11T14:45:17Z</time>
      </trkpt>
      <trkpt lat="47.72674" lon="-3.3769">
        <ele>10.8</ele>
        <time>2022-04-11T14:45:18Z</time>
      </trkpt>
      <trkpt lat="47.72677" lon="-3.37697">
        <ele>10.8</ele>
        <time>2022-04-11T14:45:19Z</time>
      </trkpt>
      <trkpt lat="47.72679" lon="-3.37703">
        <ele>10.8</ele>
        <time>2022-04-11T14:45:20Z</time>
      </trkpt>
      <trkpt lat="47.72681" lon="-3.37709">
        <ele>11.4</ele>
        <time>2022-04-11T14:45:21Z</time>
      </trkpt>
      <trkpt lat="47.72685" lon="-3.37721">
        <ele>11.5</ele>
        <time>2022-04-11T14:45:23Z</time>
      </trkpt>
      <trkpt lat="47.72688" lon="-3.37733">
        <ele>10.7</ele>
        <time>2022-04-11T14:45:25Z</time>
      </trkpt>
      <trkpt lat="47.7269" lon="-3.37742">
        <ele>10.4</ele>
        <time>2022-04-11T14:45:27Z</time>
      </trkpt>
      <trkpt lat="47.72694" lon="-3.3775">
        <ele>10.1</ele>
        <time>2022-04-11T14:45:29Z</time>
      </trkpt>
      <trkpt lat="47.72697" lon="-3.37758">
        <ele>11.2</ele>
        <time>2022-04-11T14:45:31Z</time>
      </trkpt>
      <trkpt lat="47.72702" lon="-3.37766">
        <ele>11.7</ele>
        <time>2022-04-11T14:45:33Z</time>
      </trkpt>
      <trkpt lat="47.72706" lon="-3.37776">
        <ele>11.9</ele>
        <time>2022-04-11T14:45:35Z</time>
      </trkpt>
      <trkpt lat="47.72712" lon="-3.37786">
        <ele>12.8</ele>
        <time>2022-04-11T14:45:37Z</time>
      </trkpt>
      <trkpt lat="47.72715" lon="-3.37792">
        <ele>12.8</ele>
        <time>2022-04-11T14:45:38Z</time>
      </trkpt>
      <trkpt lat="47.72717" lon="-3.37797">
        <ele>12.7</ele>
        <time>2022-04-11T14:45:39Z</time>
      </trkpt>
      <trkpt lat="47.72719" lon="-3.37803">
        <ele>12.7</ele>
        <time>2022-04-11T14:45:40Z</time>
      </trkpt>
      <trkpt lat="47.72722" lon="-3.37809">
        <ele>12.8</ele>
        <time>2022-04-11T14:45:41Z</time>
      </trkpt>
      <trkpt lat="47.72726" lon="-3.3782">
        <ele>13.4</ele>
        <time>2022-04-11T14:45:43Z</time>
      </trkpt>
      <trkpt lat="47.7273" lon="-3.3783">
        <ele>13.7</ele>
        <time>2022-04-11T14:45:45Z</time>
      </trkpt>
      <trkpt lat="47.72734" lon="-3.3784">
        <ele>14.7</ele>
        <time>2022-04-11T14:45:47Z</time>
      </trkpt>
      <trkpt lat="47.72739" lon="-3.37849">
        <ele>14.7</ele>
        <time>2022-04-11T14:45:49Z</time>
      </trkpt>
      <trkpt lat="47.72743" lon="-3.3786">
        <ele>14</ele>
        <time>2022-04-11T14:45:51Z</time>
      </trkpt>
      <trkpt lat="47.72748" lon="-3.37871">
        <ele>14.1</ele>
        <time>2022-04-11T14:45:53Z</time>
      </trkpt>
      <trkpt lat="47.7275" lon="-3.37876">
        <ele>14.5</ele>
        <time>2022-04-11T14:45:54Z</time>
      </trkpt>
      <trkpt lat="47.72753" lon="-3.37881">
        <ele>14.4</ele>
        <time>2022-04-11T14:45:55Z</time>
      </trkpt>
      <trkpt lat="47.72756" lon="-3.37887">
        <ele>14.4</ele>
        <time>2022-04-11T14:45:56Z</time>
      </trkpt>
      <trkpt lat="47.72759" lon="-3.37893">
        <ele>13.9</ele>
        <time>2022-04-11T14:45:57Z</time>
      </trkpt>
      <trkpt lat="47.72761" lon="-3.379">
        <ele>13.6</ele>
        <time>2022-04-11T14:45:58Z</time>
      </trkpt>
      <trkpt lat="47.72764" lon="-3.37906">
        <ele>13.9</ele>
        <time>2022-04-11T14:45:59Z</time>
      </trkpt>
      <trkpt lat="47.72766" lon="-3.37912">
        <ele>14.1</ele>
        <time>2022-04-11T14:46:00Z</time>
      </trkpt>
      <trkpt lat="47.72768" lon="-3.37918">
        <ele>13.5</ele>
        <time>2022-04-11T14:46:01Z</time>
      </trkpt>
      <trkpt lat="47.7277" lon="-3.37925">
        <ele>13.3</ele>
        <time>2022-04-11T14:46:02Z</time>
      </trkpt>
      <trkpt lat="47.72772" lon="-3.37937">
        <ele>13.7</ele>
        <time>2022-04-11T14:46:04Z</time>
      </trkpt>
      <trkpt lat="47.72773" lon="-3.37949">
        <ele>13.7</ele>
        <time>2022-04-11T14:46:06Z</time>
      </trkpt>
      <trkpt lat="47.72773" lon="-3.37959">
        <ele>13.2</ele>
        <time>2022-04-11T14:46:08Z</time>
      </trkpt>
      <trkpt lat="47.72771" lon="-3.37969">
        <ele>12.4</ele>
        <time>2022-04-11T14:46:10Z</time>
      </trkpt>
      <trkpt lat="47.72769" lon="-3.37979">
        <ele>12.5</ele>
        <time>2022-04-11T14:46:12Z</time>
      </trkpt>
      <trkpt lat="47.72768" lon="-3.37989">
        <ele>12.3</ele>
        <time>2022-04-11T14:46:14Z</time>
      </trkpt>
      <trkpt lat="47.72766" lon="-3.37999">
        <ele>12.3</ele>
        <time>2022-04-11T14:46:16Z</time>
      </trkpt>
      <trkpt lat="47.72766" lon="-3.38009">
        <ele>12.8</ele>
        <time>2022-04-11T14:46:18Z</time>
      </trkpt>
      <trkpt lat="47.72766" lon="-3.3802">
        <ele>12.6</ele>
        <time>2022-04-11T14:46:20Z</time>
      </trkpt>
      <trkpt lat="47.72768" lon="-3.38031">
        <ele>12.7</ele>
        <time>2022-04-11T14:46:22Z</time>
      </trkpt>
      <trkpt lat="47.72769" lon="-3.38043">
        <ele>12.4</ele>
        <time>2022-04-11T14:46:24Z</time>
      </trkpt>
      <trkpt lat="47.72769" lon="-3.38055">
        <ele>11.4</ele>
        <time>2022-04-11T14:46:26Z</time>
      </trkpt>
      <trkpt lat="47.72769" lon="-3.38067">
        <ele>11.6</ele>
        <time>2022-04-11T14:46:28Z</time>
      </trkpt>
      <trkpt lat="47.72771" lon="-3.38074">
        <ele>11.9</ele>
        <time>2022-04-11T14:46:29Z</time>
      </trkpt>
      <trkpt lat="47.72775" lon="-3.3808">
        <ele>12.4</ele>
        <time>2022-04-11T14:46:30Z</time>
      </trkpt>
      <trkpt lat="47.7278" lon="-3.38086">
        <ele>12.8</ele>
        <time>2022-04-11T14:46:31Z</time>
      </trkpt>
      <trkpt lat="47.72785" lon="-3.3809">
        <ele>12.6</ele>
        <time>2022-04-11T14:46:32Z</time>
      </trkpt>
      <trkpt lat="47.72792" lon="-3.38093">
        <ele>12.2</ele>
        <time>2022-04-11T14:46:33Z</time>
      </trkpt>
      <trkpt lat="47.72798" lon="-3.38095">
        <ele>12.5</ele>
        <time>2022-04-11T14:46:34Z</time>
      </trkpt>
      <trkpt lat="47.72805" lon="-3.38096">
        <ele>12.7</ele>
        <time>2022-04-11T14:46:35Z</time>
      </trkpt>
      <trkpt lat="47.72811" lon="-3.38098">
        <ele>12.9</ele>
        <time>2022-04-11T14:46:36Z</time>
      </trkpt>
      <trkpt lat="47.72817" lon="-3.38101">
        <ele>12.8</ele>
        <time>2022-04-11T14:46:37Z</time>
      </trkpt>
      <trkpt lat="47.72822" lon="-3.38105">
        <ele>13</ele>
        <time>2022-04-11T14:46:38Z</time>
      </trkpt>
      <trkpt lat="47.72827" lon="-3.3811">
        <ele>12.6</ele>
        <time>2022-04-11T14:46:39Z</time>
      </trkpt>
      <trkpt lat="47.72832" lon="-3.38116">
        <ele>12.1</ele>
        <time>2022-04-11T14:46:40Z</time>
      </trkpt>
      <trkpt lat="47.72835" lon="-3.38121">
        <ele>11.8</ele>
        <time>2022-04-11T14:46:41Z</time>
      </trkpt>
      <trkpt lat="47.72843" lon="-3.38126">
        <ele>12.2</ele>
        <time>2022-04-11T14:46:43Z</time>
      </trkpt>
      <trkpt lat="47.7285" lon="-3.38127">
        <ele>12.4</ele>
        <time>2022-04-11T14:46:45Z</time>
      </trkpt>
      <trkpt lat="47.72858" lon="-3.38129">
        <ele>12.2</ele>
        <time>2022-04-11T14:46:47Z</time>
      </trkpt>
      <trkpt lat="47.72866" lon="-3.38131">
        <ele>12.1</ele>
        <time>2022-04-11T14:46:49Z</time>
      </trkpt>
      <trkpt lat="47.72873" lon="-3.38134">
        <ele>12.1</ele>
        <time>2022-04-11T14:46:51Z</time>
      </trkpt>
      <trkpt lat="47.72881" lon="-3.38139">
        <ele>11.9</ele>
        <time>2022-04-11T14:46:53Z</time>
      </trkpt>
      <trkpt lat="47.72885" lon="-3.38142">
        <ele>12</ele>
        <time>2022-04-11T14:46:54Z</time>
      </trkpt>
      <trkpt lat="47.72889" lon="-3.38146">
        <ele>12.3</ele>
        <time>2022-04-11T14:46:55Z</time>
      </trkpt>
      <trkpt lat="47.72893" lon="-3.3815">
        <ele>12.3</ele>
        <time>2022-04-11T14:46:56Z</time>
      </trkpt>
      <trkpt lat="47.72897" lon="-3.38153">
        <ele>12.2</ele>
        <time>2022-04-11T14:46:57Z</time>
      </trkpt>
      <trkpt lat="47.72901" lon="-3.38158">
        <ele>11.7</ele>
        <time>2022-04-11T14:46:58Z</time>
      </trkpt>
      <trkpt lat="47.72907" lon="-3.38167">
        <ele>11.1</ele>
        <time>2022-04-11T14:47:00Z</time>
      </trkpt>
      <trkpt lat="47.72912" lon="-3.38176">
        <ele>11.2</ele>
        <time>2022-04-11T14:47:02Z</time>
      </trkpt>
      <trkpt lat="47.72919" lon="-3.38183">
        <ele>10</ele>
        <time>2022-04-11T14:47:04Z</time>
      </trkpt>
      <trkpt lat="47.72924" lon="-3.38189">
        <ele>9.7</ele>
        <time>2022-04-11T14:47:06Z</time>
      </trkpt>
      <trkpt lat="47.7293" lon="-3.38194">
        <ele>9.5</ele>
        <time>2022-04-11T14:47:08Z</time>
      </trkpt>
      <trkpt lat="47.72936" lon="-3.38199">
        <ele>10.8</ele>
        <time>2022-04-11T14:47:10Z</time>
      </trkpt>
      <trkpt lat="47.72943" lon="-3.38206">
        <ele>10.2</ele>
        <time>2022-04-11T14:47:12Z</time>
      </trkpt>
      <trkpt lat="47.72947" lon="-3.38209">
        <ele>9.7</ele>
        <time>2022-04-11T14:47:13Z</time>
      </trkpt>
      <trkpt lat="47.72951" lon="-3.38214">
        <ele>9</ele>
        <time>2022-04-11T14:47:14Z</time>
      </trkpt>
      <trkpt lat="47.72954" lon="-3.3822">
        <ele>8.9</ele>
        <time>2022-04-11T14:47:15Z</time>
      </trkpt>
      <trkpt lat="47.72957" lon="-3.38225">
        <ele>8.9</ele>
        <time>2022-04-11T14:47:16Z</time>
      </trkpt>
      <trkpt lat="47.7296" lon="-3.3823">
        <ele>8.6</ele>
        <time>2022-04-11T14:47:17Z</time>
      </trkpt>
      <trkpt lat="47.72963" lon="-3.38236">
        <ele>8.5</ele>
        <time>2022-04-11T14:47:18Z</time>
      </trkpt>
      <trkpt lat="47.72967" lon="-3.38241">
        <ele>8.4</ele>
        <time>2022-04-11T14:47:19Z</time>
      </trkpt>
      <trkpt lat="47.72971" lon="-3.38246">
        <ele>8.6</ele>
        <time>2022-04-11T14:47:20Z</time>
      </trkpt>
      <trkpt lat="47.72975" lon="-3.38251">
        <ele>8.9</ele>
        <time>2022-04-11T14:47:21Z</time>
      </trkpt>
      <trkpt lat="47.72979" lon="-3.38256">
        <ele>8.8</ele>
        <time>2022-04-11T14:47:22Z</time>
      </trkpt>
      <trkpt lat="47.72982" lon="-3.38261">
        <ele>8.8</ele>
        <time>2022-04-11T14:47:23Z</time>
      </trkpt>
      <trkpt lat="47.72986" lon="-3.38268">
        <ele>9</ele>
        <time>2022-04-11T14:47:24Z</time>
      </trkpt>
      <trkpt lat="47.72989" lon="-3.38278">
        <ele>9</ele>
        <time>2022-04-11T14:47:25Z</time>
      </trkpt>
      <trkpt lat="47.7299" lon="-3.38286">
        <ele>8.9</ele>
        <time>2022-04-11T14:47:26Z</time>
      </trkpt>
      <trkpt lat="47.7299" lon="-3.38295">
        <ele>8.6</ele>
        <time>2022-04-11T14:47:27Z</time>
      </trkpt>
      <trkpt lat="47.72988" lon="-3.38303">
        <ele>8.3</ele>
        <time>2022-04-11T14:47:28Z</time>
      </trkpt>
      <trkpt lat="47.72987" lon="-3.38311">
        <ele>8.6</ele>
        <time>2022-04-11T14:47:29Z</time>
      </trkpt>
      <trkpt lat="47.72986" lon="-3.38319">
        <ele>9.3</ele>
        <time>2022-04-11T14:47:30Z</time>
      </trkpt>
      <trkpt lat="47.72985" lon="-3.38326">
        <ele>9.9</ele>
        <time>2022-04-11T14:47:31Z</time>
      </trkpt>
      <trkpt lat="47.72983" lon="-3.38336">
        <ele>10.6</ele>
        <time>2022-04-11T14:47:33Z</time>
      </trkpt>
      <trkpt lat="47.72979" lon="-3.38344">
        <ele>12.9</ele>
        <time>2022-04-11T14:47:35Z</time>
      </trkpt>
      <trkpt lat="47.72975" lon="-3.3835">
        <ele>13.8</ele>
        <time>2022-04-11T14:47:37Z</time>
      </trkpt>
      <trkpt lat="47.72971" lon="-3.38359">
        <ele>13.5</ele>
        <time>2022-04-11T14:47:39Z</time>
      </trkpt>
      <trkpt lat="47.72968" lon="-3.38371">
        <ele>13.6</ele>
        <time>2022-04-11T14:47:41Z</time>
      </trkpt>
      <trkpt lat="47.72965" lon="-3.38383">
        <ele>13.2</ele>
        <time>2022-04-11T14:47:43Z</time>
      </trkpt>
      <trkpt lat="47.72964" lon="-3.38395">
        <ele>13.3</ele>
        <time>2022-04-11T14:47:45Z</time>
      </trkpt>
      <trkpt lat="47.72962" lon="-3.38406">
        <ele>13.6</ele>
        <time>2022-04-11T14:47:47Z</time>
      </trkpt>
      <trkpt lat="47.72962" lon="-3.38416">
        <ele>13.5</ele>
        <time>2022-04-11T14:47:49Z</time>
      </trkpt>
      <trkpt lat="47.72962" lon="-3.38426">
        <ele>13.8</ele>
        <time>2022-04-11T14:47:51Z</time>
      </trkpt>
      <trkpt lat="47.72961" lon="-3.38435">
        <ele>14.1</ele>
        <time>2022-04-11T14:47:53Z</time>
      </trkpt>
      <trkpt lat="47.7296" lon="-3.38443">
        <ele>14.2</ele>
        <time>2022-04-11T14:47:55Z</time>
      </trkpt>
      <trkpt lat="47.72961" lon="-3.38453">
        <ele>12.9</ele>
        <time>2022-04-11T14:47:58Z</time>
      </trkpt>
      <trkpt lat="47.7296" lon="-3.38463">
        <ele>13</ele>
        <time>2022-04-11T14:48:01Z</time>
      </trkpt>
      <trkpt lat="47.72961" lon="-3.38471">
        <ele>13.2</ele>
        <time>2022-04-11T14:48:03Z</time>
      </trkpt>
      <trkpt lat="47.72962" lon="-3.38477">
        <ele>13.7</ele>
        <time>2022-04-11T14:48:05Z</time>
      </trkpt>
      <trkpt lat="47.72966" lon="-3.38482">
        <ele>13.8</ele>
        <time>2022-04-11T14:48:07Z</time>
      </trkpt>
      <trkpt lat="47.7297" lon="-3.38488">
        <ele>13.9</ele>
        <time>2022-04-11T14:48:09Z</time>
      </trkpt>
      <trkpt lat="47.72972" lon="-3.38494">
        <ele>13.9</ele>
        <time>2022-04-11T14:48:11Z</time>
      </trkpt>
      <trkpt lat="47.72973" lon="-3.385">
        <ele>13.6</ele>
        <time>2022-04-11T14:48:13Z</time>
      </trkpt>
      <trkpt lat="47.72975" lon="-3.38507">
        <ele>12.7</ele>
        <time>2022-04-11T14:48:15Z</time>
      </trkpt>
      <trkpt lat="47.7298" lon="-3.38515">
        <ele>12.1</ele>
        <time>2022-04-11T14:48:17Z</time>
      </trkpt>
      <trkpt lat="47.72984" lon="-3.38524">
        <ele>11.7</ele>
        <time>2022-04-11T14:48:19Z</time>
      </trkpt>
      <trkpt lat="47.72989" lon="-3.38532">
        <ele>10.6</ele>
        <time>2022-04-11T14:48:21Z</time>
      </trkpt>
      <trkpt lat="47.72995" lon="-3.38537">
        <ele>8.4</ele>
        <time>2022-04-11T14:48:23Z</time>
      </trkpt>
      <trkpt lat="47.73002" lon="-3.3854">
        <ele>7.9</ele>
        <time>2022-04-11T14:48:25Z</time>
      </trkpt>
      <trkpt lat="47.7301" lon="-3.38547">
        <ele>7.8</ele>
        <time>2022-04-11T14:48:27Z</time>
      </trkpt>
      <trkpt lat="47.73014" lon="-3.38551">
        <ele>7.8</ele>
        <time>2022-04-11T14:48:28Z</time>
      </trkpt>
      <trkpt lat="47.73018" lon="-3.38556">
        <ele>7.2</ele>
        <time>2022-04-11T14:48:29Z</time>
      </trkpt>
      <trkpt lat="47.73022" lon="-3.38562">
        <ele>6.7</ele>
        <time>2022-04-11T14:48:30Z</time>
      </trkpt>
      <trkpt lat="47.73026" lon="-3.38569">
        <ele>6.6</ele>
        <time>2022-04-11T14:48:31Z</time>
      </trkpt>
      <trkpt lat="47.73029" lon="-3.38577">
        <ele>6.2</ele>
        <time>2022-04-11T14:48:32Z</time>
      </trkpt>
      <trkpt lat="47.73031" lon="-3.38585">
        <ele>3.9</ele>
        <time>2022-04-11T14:48:33Z</time>
      </trkpt>
      <trkpt lat="47.73034" lon="-3.38592">
        <ele>1.8</ele>
        <time>2022-04-11T14:48:34Z</time>
      </trkpt>
      <trkpt lat="47.73038" lon="-3.38597">
        <ele>0.2</ele>
        <time>2022-04-11T14:48:35Z</time>
      </trkpt>
      <trkpt lat="47.73043" lon="-3.38602">
        <ele>7.9</ele>
        <time>2022-04-11T14:48:36Z</time>
      </trkpt>
      <trkpt lat="47.73049" lon="-3.38605">
        <ele>7.7</ele>
        <time>2022-04-11T14:48:37Z</time>
      </trkpt>
      <trkpt lat="47.73056" lon="-3.38607">
        <ele>0.8</ele>
        <time>2022-04-11T14:48:38Z</time>
      </trkpt>
      <trkpt lat="47.73062" lon="-3.38609">
        <ele>1.5</ele>
        <time>2022-04-11T14:48:39Z</time>
      </trkpt>
      <trkpt lat="47.73068" lon="-3.3861">
        <ele>1</ele>
        <time>2022-04-11T14:48:40Z</time>
      </trkpt>
      <trkpt lat="47.73075" lon="-3.38611">
        <ele>0.6</ele>
        <time>2022-04-11T14:48:41Z</time>
      </trkpt>
      <trkpt lat="47.73081" lon="-3.38611">
        <ele>0.3</ele>
        <time>2022-04-11T14:48:42Z</time>
      </trkpt>
      <trkpt lat="47.73087" lon="-3.38611">
        <ele>6.9</ele>
        <time>2022-04-11T14:48:43Z</time>
      </trkpt>
      <trkpt lat="47.73094" lon="-3.38611">
        <ele>-0.2</ele>
        <time>2022-04-11T14:48:44Z</time>
      </trkpt>
      <trkpt lat="47.731" lon="-3.38612">
        <ele>-0.6</ele>
        <time>2022-04-11T14:48:45Z</time>
      </trkpt>
      <trkpt lat="47.73106" lon="-3.38612">
        <ele>-0.9</ele>
        <time>2022-04-11T14:48:46Z</time>
      </trkpt>
      <trkpt lat="47.73112" lon="-3.38612">
        <ele>-0.7</ele>
        <time>2022-04-11T14:48:47Z</time>
      </trkpt>
      <trkpt lat="47.73117" lon="-3.38612">
        <ele>-0.8</ele>
        <time>2022-04-11T14:48:48Z</time>
      </trkpt>
      <trkpt lat="47.73123" lon="-3.38611">
        <ele>-0.5</ele>
        <time>2022-04-11T14:48:49Z</time>
      </trkpt>
      <trkpt lat="47.73128" lon="-3.3861">
        <ele>0.3</ele>
        <time>2022-04-11T14:48:50Z</time>
      </trkpt>
      <trkpt lat="47.73133" lon="-3.38609">
        <ele>1</ele>
        <time>2022-04-11T14:48:51Z</time>
      </trkpt>
      <trkpt lat="47.73138" lon="-3.38608">
        <ele>1.8</ele>
        <time>2022-04-11T14:48:52Z</time>
      </trkpt>
      <trkpt lat="47.73143" lon="-3.38607">
        <ele>2.2</ele>
        <time>2022-04-11T14:48:53Z</time>
      </trkpt>
      <trkpt lat="47.73148" lon="-3.38607">
        <ele>2.2</ele>
        <time>2022-04-11T14:48:54Z</time>
      </trkpt>
      <trkpt lat="47.73156" lon="-3.38606">
        <ele>1.5</ele>
        <time>2022-04-11T14:48:56Z</time>
      </trkpt>
      <trkpt lat="47.73164" lon="-3.38606">
        <ele>1.5</ele>
        <time>2022-04-11T14:48:58Z</time>
      </trkpt>
      <trkpt lat="47.73172" lon="-3.38605">
        <ele>1.5</ele>
        <time>2022-04-11T14:49:00Z</time>
      </trkpt>
      <trkpt lat="47.7318" lon="-3.38604">
        <ele>1.3</ele>
        <time>2022-04-11T14:49:02Z</time>
      </trkpt>
      <trkpt lat="47.73187" lon="-3.38604">
        <ele>1.2</ele>
        <time>2022-04-11T14:49:04Z</time>
      </trkpt>
      <trkpt lat="47.73193" lon="-3.38602">
        <ele>1.9</ele>
        <time>2022-04-11T14:49:06Z</time>
      </trkpt>
      <trkpt lat="47.73199" lon="-3.38599">
        <ele>2.7</ele>
        <time>2022-04-11T14:49:08Z</time>
      </trkpt>
      <trkpt lat="47.73204" lon="-3.38597">
        <ele>3.4</ele>
        <time>2022-04-11T14:49:10Z</time>
      </trkpt>
      <trkpt lat="47.7321" lon="-3.38594">
        <ele>3.4</ele>
        <time>2022-04-11T14:49:12Z</time>
      </trkpt>
      <trkpt lat="47.73216" lon="-3.38588">
        <ele>4.2</ele>
        <time>2022-04-11T14:49:14Z</time>
      </trkpt>
      <trkpt lat="47.73223" lon="-3.38581">
        <ele>4.5</ele>
        <time>2022-04-11T14:49:16Z</time>
      </trkpt>
      <trkpt lat="47.73228" lon="-3.38571">
        <ele>5.1</ele>
        <time>2022-04-11T14:49:18Z</time>
      </trkpt>
      <trkpt lat="47.73231" lon="-3.3856">
        <ele>5.7</ele>
        <time>2022-04-11T14:49:20Z</time>
      </trkpt>
      <trkpt lat="47.73235" lon="-3.3855">
        <ele>6.3</ele>
        <time>2022-04-11T14:49:22Z</time>
      </trkpt>
      <trkpt lat="47.7324" lon="-3.38541">
        <ele>7.2</ele>
        <time>2022-04-11T14:49:24Z</time>
      </trkpt>
      <trkpt lat="47.73244" lon="-3.38533">
        <ele>7.6</ele>
        <time>2022-04-11T14:49:26Z</time>
      </trkpt>
      <trkpt lat="47.73248" lon="-3.38526">
        <ele>9.4</ele>
        <time>2022-04-11T14:49:28Z</time>
      </trkpt>
      <trkpt lat="47.73252" lon="-3.38517">
        <ele>13</ele>
        <time>2022-04-11T14:49:30Z</time>
      </trkpt>
      <trkpt lat="47.73255" lon="-3.38508">
        <ele>15.8</ele>
        <time>2022-04-11T14:49:32Z</time>
      </trkpt>
      <trkpt lat="47.73257" lon="-3.385">
        <ele>17.1</ele>
        <time>2022-04-11T14:49:34Z</time>
      </trkpt>
      <trkpt lat="47.7326" lon="-3.38493">
        <ele>18</ele>
        <time>2022-04-11T14:49:36Z</time>
      </trkpt>
      <trkpt lat="47.73265" lon="-3.38485">
        <ele>19.4</ele>
        <time>2022-04-11T14:49:39Z</time>
      </trkpt>
      <trkpt lat="47.7327" lon="-3.3848">
        <ele>19.4</ele>
        <time>2022-04-11T14:49:41Z</time>
      </trkpt>
      <trkpt lat="47.73275" lon="-3.38478">
        <ele>19.6</ele>
        <time>2022-04-11T14:49:43Z</time>
      </trkpt>
      <trkpt lat="47.73281" lon="-3.38476">
        <ele>19.9</ele>
        <time>2022-04-11T14:49:45Z</time>
      </trkpt>
      <trkpt lat="47.73287" lon="-3.38473">
        <ele>19</ele>
        <time>2022-04-11T14:49:47Z</time>
      </trkpt>
      <trkpt lat="47.73294" lon="-3.38471">
        <ele>19.4</ele>
        <time>2022-04-11T14:49:49Z</time>
      </trkpt>
      <trkpt lat="47.73302" lon="-3.38465">
        <ele>20.5</ele>
        <time>2022-04-11T14:49:51Z</time>
      </trkpt>
      <trkpt lat="47.73305" lon="-3.38455">
        <ele>21</ele>
        <time>2022-04-11T14:49:53Z</time>
      </trkpt>
      <trkpt lat="47.73306" lon="-3.38445">
        <ele>21</ele>
        <time>2022-04-11T14:49:55Z</time>
      </trkpt>
      <trkpt lat="47.73304" lon="-3.38438">
        <ele>20.2</ele>
        <time>2022-04-11T14:49:56Z</time>
      </trkpt>
      <trkpt lat="47.73303" lon="-3.38431">
        <ele>19.6</ele>
        <time>2022-04-11T14:49:57Z</time>
      </trkpt>
      <trkpt lat="47.73301" lon="-3.38418">
        <ele>18.4</ele>
        <time>2022-04-11T14:49:59Z</time>
      </trkpt>
      <trkpt lat="47.733" lon="-3.38405">
        <ele>18.7</ele>
        <time>2022-04-11T14:50:01Z</time>
      </trkpt>
      <trkpt lat="47.73299" lon="-3.38394">
        <ele>18.7</ele>
        <time>2022-04-11T14:50:03Z</time>
      </trkpt>
      <trkpt lat="47.73298" lon="-3.38381">
        <ele>20</ele>
        <time>2022-04-11T14:50:05Z</time>
      </trkpt>
      <trkpt lat="47.73296" lon="-3.3837">
        <ele>21.2</ele>
        <time>2022-04-11T14:50:07Z</time>
      </trkpt>
      <trkpt lat="47.73295" lon="-3.38358">
        <ele>21.4</ele>
        <time>2022-04-11T14:50:09Z</time>
      </trkpt>
      <trkpt lat="47.73294" lon="-3.38344">
        <ele>20.4</ele>
        <time>2022-04-11T14:50:11Z</time>
      </trkpt>
      <trkpt lat="47.73294" lon="-3.38338">
        <ele>20</ele>
        <time>2022-04-11T14:50:12Z</time>
      </trkpt>
      <trkpt lat="47.73293" lon="-3.3833">
        <ele>19.8</ele>
        <time>2022-04-11T14:50:13Z</time>
      </trkpt>
      <trkpt lat="47.73292" lon="-3.38323">
        <ele>19.6</ele>
        <time>2022-04-11T14:50:14Z</time>
      </trkpt>
      <trkpt lat="47.73291" lon="-3.38315">
        <ele>19.6</ele>
        <time>2022-04-11T14:50:15Z</time>
      </trkpt>
      <trkpt lat="47.7329" lon="-3.38307">
        <ele>19.6</ele>
        <time>2022-04-11T14:50:16Z</time>
      </trkpt>
      <trkpt lat="47.73289" lon="-3.38301">
        <ele>19.4</ele>
        <time>2022-04-11T14:50:17Z</time>
      </trkpt>
      <trkpt lat="47.73287" lon="-3.38294">
        <ele>19</ele>
        <time>2022-04-11T14:50:18Z</time>
      </trkpt>
      <trkpt lat="47.73287" lon="-3.38286">
        <ele>19</ele>
        <time>2022-04-11T14:50:19Z</time>
      </trkpt>
      <trkpt lat="47.73286" lon="-3.38278">
        <ele>18.7</ele>
        <time>2022-04-11T14:50:20Z</time>
      </trkpt>
      <trkpt lat="47.73286" lon="-3.3827">
        <ele>18.4</ele>
        <time>2022-04-11T14:50:21Z</time>
      </trkpt>
      <trkpt lat="47.73285" lon="-3.38262">
        <ele>18.2</ele>
        <time>2022-04-11T14:50:22Z</time>
      </trkpt>
      <trkpt lat="47.73284" lon="-3.38254">
        <ele>17.9</ele>
        <time>2022-04-11T14:50:23Z</time>
      </trkpt>
      <trkpt lat="47.73283" lon="-3.38246">
        <ele>17.6</ele>
        <time>2022-04-11T14:50:24Z</time>
      </trkpt>
      <trkpt lat="47.73282" lon="-3.38239">
        <ele>17.1</ele>
        <time>2022-04-11T14:50:25Z</time>
      </trkpt>
      <trkpt lat="47.73281" lon="-3.38232">
        <ele>16.6</ele>
        <time>2022-04-11T14:50:26Z</time>
      </trkpt>
      <trkpt lat="47.7328" lon="-3.38225">
        <ele>16.4</ele>
        <time>2022-04-11T14:50:27Z</time>
      </trkpt>
      <trkpt lat="47.73279" lon="-3.38218">
        <ele>16.6</ele>
        <time>2022-04-11T14:50:28Z</time>
      </trkpt>
      <trkpt lat="47.73277" lon="-3.38211">
        <ele>16.9</ele>
        <time>2022-04-11T14:50:29Z</time>
      </trkpt>
      <trkpt lat="47.73275" lon="-3.382">
        <ele>16.9</ele>
        <time>2022-04-11T14:50:31Z</time>
      </trkpt>
      <trkpt lat="47.73273" lon="-3.3819">
        <ele>17.1</ele>
        <time>2022-04-11T14:50:33Z</time>
      </trkpt>
      <trkpt lat="47.7327" lon="-3.38179">
        <ele>17.3</ele>
        <time>2022-04-11T14:50:35Z</time>
      </trkpt>
      <trkpt lat="47.73269" lon="-3.38173">
        <ele>16.7</ele>
        <time>2022-04-11T14:50:36Z</time>
      </trkpt>
      <trkpt lat="47.73268" lon="-3.38166">
        <ele>16</ele>
        <time>2022-04-11T14:50:37Z</time>
      </trkpt>
      <trkpt lat="47.73267" lon="-3.38159">
        <ele>15.9</ele>
        <time>2022-04-11T14:50:38Z</time>
      </trkpt>
      <trkpt lat="47.73266" lon="-3.38152">
        <ele>15.3</ele>
        <time>2022-04-11T14:50:39Z</time>
      </trkpt>
      <trkpt lat="47.73266" lon="-3.38145">
        <ele>14.1</ele>
        <time>2022-04-11T14:50:40Z</time>
      </trkpt>
      <trkpt lat="47.73265" lon="-3.38138">
        <ele>13.7</ele>
        <time>2022-04-11T14:50:41Z</time>
      </trkpt>
      <trkpt lat="47.73264" lon="-3.38131">
        <ele>13.6</ele>
        <time>2022-04-11T14:50:42Z</time>
      </trkpt>
      <trkpt lat="47.73263" lon="-3.38124">
        <ele>13.7</ele>
        <time>2022-04-11T14:50:43Z</time>
      </trkpt>
      <trkpt lat="47.73262" lon="-3.38117">
        <ele>13.7</ele>
        <time>2022-04-11T14:50:44Z</time>
      </trkpt>
      <trkpt lat="47.73261" lon="-3.3811">
        <ele>14.5</ele>
        <time>2022-04-11T14:50:45Z</time>
      </trkpt>
      <trkpt lat="47.7326" lon="-3.38103">
        <ele>14.4</ele>
        <time>2022-04-11T14:50:46Z</time>
      </trkpt>
      <trkpt lat="47.73259" lon="-3.38091">
        <ele>13</ele>
        <time>2022-04-11T14:50:48Z</time>
      </trkpt>
      <trkpt lat="47.73258" lon="-3.3808">
        <ele>10.4</ele>
        <time>2022-04-11T14:50:50Z</time>
      </trkpt>
      <trkpt lat="47.73256" lon="-3.38069">
        <ele>11.5</ele>
        <time>2022-04-11T14:50:52Z</time>
      </trkpt>
      <trkpt lat="47.73255" lon="-3.38057">
        <ele>11.3</ele>
        <time>2022-04-11T14:50:54Z</time>
      </trkpt>
      <trkpt lat="47.73255" lon="-3.38044">
        <ele>12.3</ele>
        <time>2022-04-11T14:50:56Z</time>
      </trkpt>
      <trkpt lat="47.73254" lon="-3.38033">
        <ele>11.1</ele>
        <time>2022-04-11T14:50:58Z</time>
      </trkpt>
      <trkpt lat="47.73253" lon="-3.38021">
        <ele>10.5</ele>
        <time>2022-04-11T14:51:00Z</time>
      </trkpt>
      <trkpt lat="47.73251" lon="-3.3801">
        <ele>10</ele>
        <time>2022-04-11T14:51:02Z</time>
      </trkpt>
      <trkpt lat="47.7325" lon="-3.38001">
        <ele>8.8</ele>
        <time>2022-04-11T14:51:04Z</time>
      </trkpt>
      <trkpt lat="47.73248" lon="-3.37989">
        <ele>8.3</ele>
        <time>2022-04-11T14:51:06Z</time>
      </trkpt>
      <trkpt lat="47.73247" lon="-3.37977">
        <ele>6.8</ele>
        <time>2022-04-11T14:51:08Z</time>
      </trkpt>
      <trkpt lat="47.73246" lon="-3.37966">
        <ele>7.5</ele>
        <time>2022-04-11T14:51:10Z</time>
      </trkpt>
      <trkpt lat="47.73244" lon="-3.37956">
        <ele>7.7</ele>
        <time>2022-04-11T14:51:12Z</time>
      </trkpt>
      <trkpt lat="47.73242" lon="-3.37948">
        <ele>7.6</ele>
        <time>2022-04-11T14:51:14Z</time>
      </trkpt>
      <trkpt lat="47.73239" lon="-3.37938">
        <ele>7.6</ele>
        <time>2022-04-11T14:51:16Z</time>
      </trkpt>
      <trkpt lat="47.73237" lon="-3.37927">
        <ele>8.1</ele>
        <time>2022-04-11T14:51:18Z</time>
      </trkpt>
      <trkpt lat="47.73236" lon="-3.37916">
        <ele>9.4</ele>
        <time>2022-04-11T14:51:20Z</time>
      </trkpt>
      <trkpt lat="47.73235" lon="-3.37906">
        <ele>10.7</ele>
        <time>2022-04-11T14:51:22Z</time>
      </trkpt>
      <trkpt lat="47.73233" lon="-3.37896">
        <ele>13.1</ele>
        <time>2022-04-11T14:51:24Z</time>
      </trkpt>
      <trkpt lat="47.73231" lon="-3.37888">
        <ele>14.1</ele>
        <time>2022-04-11T14:51:26Z</time>
      </trkpt>
      <trkpt lat="47.73228" lon="-3.37883">
        <ele>15</ele>
        <time>2022-04-11T14:51:28Z</time>
      </trkpt>
      <trkpt lat="47.73227" lon="-3.37872">
        <ele>13.5</ele>
        <time>2022-04-11T14:51:31Z</time>
      </trkpt>
      <trkpt lat="47.73226" lon="-3.37865">
        <ele>12.5</ele>
        <time>2022-04-11T14:51:33Z</time>
      </trkpt>
      <trkpt lat="47.73225" lon="-3.37857">
        <ele>11.4</ele>
        <time>2022-04-11T14:51:35Z</time>
      </trkpt>
      <trkpt lat="47.73225" lon="-3.37849">
        <ele>11.4</ele>
        <time>2022-04-11T14:51:37Z</time>
      </trkpt>
      <trkpt lat="47.73224" lon="-3.37841">
        <ele>11.4</ele>
        <time>2022-04-11T14:51:39Z</time>
      </trkpt>
      <trkpt lat="47.73222" lon="-3.37833">
        <ele>10.5</ele>
        <time>2022-04-11T14:51:41Z</time>
      </trkpt>
      <trkpt lat="47.73221" lon="-3.37824">
        <ele>10</ele>
        <time>2022-04-11T14:51:43Z</time>
      </trkpt>
      <trkpt lat="47.73218" lon="-3.37814">
        <ele>9.5</ele>
        <time>2022-04-11T14:51:45Z</time>
      </trkpt>
      <trkpt lat="47.73217" lon="-3.37804">
        <ele>9.5</ele>
        <time>2022-04-11T14:51:47Z</time>
      </trkpt>
      <trkpt lat="47.73215" lon="-3.37793">
        <ele>8.2</ele>
        <time>2022-04-11T14:51:49Z</time>
      </trkpt>
      <trkpt lat="47.73213" lon="-3.37783">
        <ele>6.7</ele>
        <time>2022-04-11T14:51:51Z</time>
      </trkpt>
      <trkpt lat="47.73209" lon="-3.37772">
        <ele>6.1</ele>
        <time>2022-04-11T14:51:53Z</time>
      </trkpt>
      <trkpt lat="47.73205" lon="-3.37762">
        <ele>5.8</ele>
        <time>2022-04-11T14:51:55Z</time>
      </trkpt>
      <trkpt lat="47.73201" lon="-3.37753">
        <ele>4.9</ele>
        <time>2022-04-11T14:51:57Z</time>
      </trkpt>
      <trkpt lat="47.73196" lon="-3.37743">
        <ele>5.7</ele>
        <time>2022-04-11T14:51:59Z</time>
      </trkpt>
      <trkpt lat="47.73192" lon="-3.37732">
        <ele>5.3</ele>
        <time>2022-04-11T14:52:01Z</time>
      </trkpt>
      <trkpt lat="47.73187" lon="-3.37723">
        <ele>4.8</ele>
        <time>2022-04-11T14:52:03Z</time>
      </trkpt>
      <trkpt lat="47.73184" lon="-3.37714">
        <ele>4.2</ele>
        <time>2022-04-11T14:52:05Z</time>
      </trkpt>
      <trkpt lat="47.7318" lon="-3.37706">
        <ele>4</ele>
        <time>2022-04-11T14:52:07Z</time>
      </trkpt>
      <trkpt lat="47.73176" lon="-3.37697">
        <ele>4.9</ele>
        <time>2022-04-11T14:52:09Z</time>
      </trkpt>
      <trkpt lat="47.73171" lon="-3.37688">
        <ele>5.6</ele>
        <time>2022-04-11T14:52:11Z</time>
      </trkpt>
      <trkpt lat="47.73167" lon="-3.37677">
        <ele>6.1</ele>
        <time>2022-04-11T14:52:13Z</time>
      </trkpt>
      <trkpt lat="47.73169" lon="-3.37665">
        <ele>9.1</ele>
        <time>2022-04-11T14:52:15Z</time>
      </trkpt>
      <trkpt lat="47.73174" lon="-3.37655">
        <ele>12.9</ele>
        <time>2022-04-11T14:52:17Z</time>
      </trkpt>
      <trkpt lat="47.73174" lon="-3.37647">
        <ele>13.6</ele>
        <time>2022-04-11T14:52:19Z</time>
      </trkpt>
      <trkpt lat="47.73171" lon="-3.37637">
        <ele>14</ele>
        <time>2022-04-11T14:52:21Z</time>
      </trkpt>
      <trkpt lat="47.73169" lon="-3.3763">
        <ele>12.7</ele>
        <time>2022-04-11T14:52:23Z</time>
      </trkpt>
      <trkpt lat="47.73167" lon="-3.37621">
        <ele>11.6</ele>
        <time>2022-04-11T14:52:25Z</time>
      </trkpt>
      <trkpt lat="47.73164" lon="-3.37613">
        <ele>11</ele>
        <time>2022-04-11T14:52:27Z</time>
      </trkpt>
      <trkpt lat="47.7316" lon="-3.37603">
        <ele>10.7</ele>
        <time>2022-04-11T14:52:29Z</time>
      </trkpt>
      <trkpt lat="47.73156" lon="-3.37593">
        <ele>10.8</ele>
        <time>2022-04-11T14:52:31Z</time>
      </trkpt>
      <trkpt lat="47.7315" lon="-3.37582">
        <ele>10.9</ele>
        <time>2022-04-11T14:52:33Z</time>
      </trkpt>
      <trkpt lat="47.73147" lon="-3.37576">
        <ele>11.4</ele>
        <time>2022-04-11T14:52:34Z</time>
      </trkpt>
      <trkpt lat="47.73145" lon="-3.37569">
        <ele>11.8</ele>
        <time>2022-04-11T14:52:35Z</time>
      </trkpt>
      <trkpt lat="47.73142" lon="-3.37563">
        <ele>12.4</ele>
        <time>2022-04-11T14:52:36Z</time>
      </trkpt>
      <trkpt lat="47.73139" lon="-3.37557">
        <ele>12.7</ele>
        <time>2022-04-11T14:52:37Z</time>
      </trkpt>
      <trkpt lat="47.73135" lon="-3.3755">
        <ele>14.8</ele>
        <time>2022-04-11T14:52:38Z</time>
      </trkpt>
      <trkpt lat="47.73132" lon="-3.37543">
        <ele>16.2</ele>
        <time>2022-04-11T14:52:39Z</time>
      </trkpt>
      <trkpt lat="47.73128" lon="-3.37536">
        <ele>16.4</ele>
        <time>2022-04-11T14:52:40Z</time>
      </trkpt>
      <trkpt lat="47.73125" lon="-3.37531">
        <ele>18.8</ele>
        <time>2022-04-11T14:52:41Z</time>
      </trkpt>
      <trkpt lat="47.73121" lon="-3.37525">
        <ele>19.7</ele>
        <time>2022-04-11T14:52:42Z</time>
      </trkpt>
      <trkpt lat="47.73119" lon="-3.37518">
        <ele>20.6</ele>
        <time>2022-04-11T14:52:43Z</time>
      </trkpt>
      <trkpt lat="47.73116" lon="-3.37511">
        <ele>21.5</ele>
        <time>2022-04-11T14:52:44Z</time>
      </trkpt>
      <trkpt lat="47.73114" lon="-3.37505">
        <ele>21.5</ele>
        <time>2022-04-11T14:52:45Z</time>
      </trkpt>
      <trkpt lat="47.73111" lon="-3.37499">
        <ele>21.4</ele>
        <time>2022-04-11T14:52:46Z</time>
      </trkpt>
      <trkpt lat="47.73106" lon="-3.37488">
        <ele>21</ele>
        <time>2022-04-11T14:52:48Z</time>
      </trkpt>
      <trkpt lat="47.73102" lon="-3.37478">
        <ele>20.4</ele>
        <time>2022-04-11T14:52:50Z</time>
      </trkpt>
      <trkpt lat="47.73098" lon="-3.37469">
        <ele>20.4</ele>
        <time>2022-04-11T14:52:52Z</time>
      </trkpt>
      <trkpt lat="47.73093" lon="-3.37462">
        <ele>21</ele>
        <time>2022-04-11T14:52:54Z</time>
      </trkpt>
      <trkpt lat="47.73089" lon="-3.37455">
        <ele>21.2</ele>
        <time>2022-04-11T14:52:56Z</time>
      </trkpt>
      <trkpt lat="47.73085" lon="-3.37451">
        <ele>21.5</ele>
        <time>2022-04-11T14:52:58Z</time>
      </trkpt>
      <trkpt lat="47.7308" lon="-3.37452">
        <ele>22.4</ele>
        <time>2022-04-11T14:53:00Z</time>
      </trkpt>
      <trkpt lat="47.73076" lon="-3.37456">
        <ele>22.7</ele>
        <time>2022-04-11T14:53:02Z</time>
      </trkpt>
      <trkpt lat="47.73069" lon="-3.37459">
        <ele>23.6</ele>
        <time>2022-04-11T14:53:04Z</time>
      </trkpt>
      <trkpt lat="47.73062" lon="-3.37457">
        <ele>22.9</ele>
        <time>2022-04-11T14:53:06Z</time>
      </trkpt>
      <trkpt lat="47.73056" lon="-3.37455">
        <ele>22.8</ele>
        <time>2022-04-11T14:53:08Z</time>
      </trkpt>
      <trkpt lat="47.73051" lon="-3.37449">
        <ele>27.1</ele>
        <time>2022-04-11T14:53:10Z</time>
      </trkpt>
      <trkpt lat="47.73048" lon="-3.37441">
        <ele>25</ele>
        <time>2022-04-11T14:53:12Z</time>
      </trkpt>
      <trkpt lat="47.73044" lon="-3.37433">
        <ele>25.2</ele>
        <time>2022-04-11T14:53:14Z</time>
      </trkpt>
      <trkpt lat="47.7304" lon="-3.37425">
        <ele>23.9</ele>
        <time>2022-04-11T14:53:16Z</time>
      </trkpt>
      <trkpt lat="47.73037" lon="-3.3742">
        <ele>25.2</ele>
        <time>2022-04-11T14:53:18Z</time>
      </trkpt>
      <trkpt lat="47.73033" lon="-3.37415">
        <ele>24.8</ele>
        <time>2022-04-11T14:53:20Z</time>
      </trkpt>
      <trkpt lat="47.73028" lon="-3.3741">
        <ele>23.9</ele>
        <time>2022-04-11T14:53:22Z</time>
      </trkpt>
      <trkpt lat="47.73021" lon="-3.37403">
        <ele>24.6</ele>
        <time>2022-04-11T14:53:24Z</time>
      </trkpt>
      <trkpt lat="47.73017" lon="-3.37398">
        <ele>24.4</ele>
        <time>2022-04-11T14:53:25Z</time>
      </trkpt>
      <trkpt lat="47.73014" lon="-3.37393">
        <ele>24.4</ele>
        <time>2022-04-11T14:53:26Z</time>
      </trkpt>
      <trkpt lat="47.73011" lon="-3.37389">
        <ele>24.3</ele>
        <time>2022-04-11T14:53:27Z</time>
      </trkpt>
      <trkpt lat="47.73004" lon="-3.37381">
        <ele>23.2</ele>
        <time>2022-04-11T14:53:29Z</time>
      </trkpt>
      <trkpt lat="47.72998" lon="-3.37374">
        <ele>22.5</ele>
        <time>2022-04-11T14:53:31Z</time>
      </trkpt>
      <trkpt lat="47.72992" lon="-3.37367">
        <ele>21.8</ele>
        <time>2022-04-11T14:53:33Z</time>
      </trkpt>
      <trkpt lat="47.72987" lon="-3.3736">
        <ele>21.4</ele>
        <time>2022-04-11T14:53:35Z</time>
      </trkpt>
      <trkpt lat="47.72982" lon="-3.37352">
        <ele>21.2</ele>
        <time>2022-04-11T14:53:37Z</time>
      </trkpt>
      <trkpt lat="47.72978" lon="-3.37342">
        <ele>21.1</ele>
        <time>2022-04-11T14:53:39Z</time>
      </trkpt>
      <trkpt lat="47.72974" lon="-3.37333">
        <ele>20.9</ele>
        <time>2022-04-11T14:53:41Z</time>
      </trkpt>
      <trkpt lat="47.72969" lon="-3.37326">
        <ele>20.9</ele>
        <time>2022-04-11T14:53:43Z</time>
      </trkpt>
      <trkpt lat="47.72965" lon="-3.37319">
        <ele>20.9</ele>
        <time>2022-04-11T14:53:45Z</time>
      </trkpt>
      <trkpt lat="47.72962" lon="-3.37312">
        <ele>19.4</ele>
        <time>2022-04-11T14:53:47Z</time>
      </trkpt>
      <trkpt lat="47.72961" lon="-3.37303">
        <ele>17.4</ele>
        <time>2022-04-11T14:53:49Z</time>
      </trkpt>
      <trkpt lat="47.72957" lon="-3.37295">
        <ele>15.7</ele>
        <time>2022-04-11T14:53:51Z</time>
      </trkpt>
      <trkpt lat="47.72952" lon="-3.37286">
        <ele>15.4</ele>
        <time>2022-04-11T14:53:53Z</time>
      </trkpt>
      <trkpt lat="47.72947" lon="-3.37275">
        <ele>15.7</ele>
        <time>2022-04-11T14:53:55Z</time>
      </trkpt>
      <trkpt lat="47.72943" lon="-3.37265">
        <ele>15.3</ele>
        <time>2022-04-11T14:53:57Z</time>
      </trkpt>
      <trkpt lat="47.72937" lon="-3.37255">
        <ele>17.4</ele>
        <time>2022-04-11T14:53:59Z</time>
      </trkpt>
      <trkpt lat="47.72933" lon="-3.37246">
        <ele>18</ele>
        <time>2022-04-11T14:54:01Z</time>
      </trkpt>
      <trkpt lat="47.72927" lon="-3.37237">
        <ele>19.5</ele>
        <time>2022-04-11T14:54:03Z</time>
      </trkpt>
      <trkpt lat="47.72924" lon="-3.37233">
        <ele>20.3</ele>
        <time>2022-04-11T14:54:04Z</time>
      </trkpt>
      <trkpt lat="47.72918" lon="-3.37224">
        <ele>20</ele>
        <time>2022-04-11T14:54:06Z</time>
      </trkpt>
      <trkpt lat="47.72914" lon="-3.37216">
        <ele>19.4</ele>
        <time>2022-04-11T14:54:08Z</time>
      </trkpt>
      <trkpt lat="47.72911" lon="-3.37207">
        <ele>18.3</ele>
        <time>2022-04-11T14:54:10Z</time>
      </trkpt>
      <trkpt lat="47.72908" lon="-3.37199">
        <ele>16.6</ele>
        <time>2022-04-11T14:54:12Z</time>
      </trkpt>
      <trkpt lat="47.72904" lon="-3.37189">
        <ele>16.3</ele>
        <time>2022-04-11T14:54:14Z</time>
      </trkpt>
      <trkpt lat="47.729" lon="-3.37179">
        <ele>15.9</ele>
        <time>2022-04-11T14:54:16Z</time>
      </trkpt>
      <trkpt lat="47.72896" lon="-3.3717">
        <ele>15.4</ele>
        <time>2022-04-11T14:54:18Z</time>
      </trkpt>
      <trkpt lat="47.72893" lon="-3.37162">
        <ele>14.4</ele>
        <time>2022-04-11T14:54:20Z</time>
      </trkpt>
      <trkpt lat="47.7289" lon="-3.37154">
        <ele>13.9</ele>
        <time>2022-04-11T14:54:22Z</time>
      </trkpt>
      <trkpt lat="47.7289" lon="-3.37146">
        <ele>12</ele>
        <time>2022-04-11T14:54:24Z</time>
      </trkpt>
      <trkpt lat="47.72886" lon="-3.37138">
        <ele>11.1</ele>
        <time>2022-04-11T14:54:27Z</time>
      </trkpt>
      <trkpt lat="47.72882" lon="-3.3713">
        <ele>11.4</ele>
        <time>2022-04-11T14:54:29Z</time>
      </trkpt>
      <trkpt lat="47.72878" lon="-3.37123">
        <ele>10.3</ele>
        <time>2022-04-11T14:54:31Z</time>
      </trkpt>
      <trkpt lat="47.72874" lon="-3.37113">
        <ele>10.4</ele>
        <time>2022-04-11T14:54:33Z</time>
      </trkpt>
      <trkpt lat="47.72869" lon="-3.37104">
        <ele>9.6</ele>
        <time>2022-04-11T14:54:35Z</time>
      </trkpt>
      <trkpt lat="47.72863" lon="-3.37097">
        <ele>10.4</ele>
        <time>2022-04-11T14:54:37Z</time>
      </trkpt>
      <trkpt lat="47.72858" lon="-3.3709">
        <ele>9.5</ele>
        <time>2022-04-11T14:54:39Z</time>
      </trkpt>
      <trkpt lat="47.72854" lon="-3.37085">
        <ele>8.5</ele>
        <time>2022-04-11T14:54:41Z</time>
      </trkpt>
      <trkpt lat="47.72852" lon="-3.37077">
        <ele>7.6</ele>
        <time>2022-04-11T14:54:44Z</time>
      </trkpt>
      <trkpt lat="47.72848" lon="-3.3707">
        <ele>5.3</ele>
        <time>2022-04-11T14:54:46Z</time>
      </trkpt>
      <trkpt lat="47.72844" lon="-3.37064">
        <ele>4.7</ele>
        <time>2022-04-11T14:54:48Z</time>
      </trkpt>
      <trkpt lat="47.7284" lon="-3.37057">
        <ele>2.7</ele>
        <time>2022-04-11T14:54:50Z</time>
      </trkpt>
      <trkpt lat="47.72836" lon="-3.3705">
        <ele>1.4</ele>
        <time>2022-04-11T14:54:52Z</time>
      </trkpt>
      <trkpt lat="47.72832" lon="-3.37044">
        <ele>0.6</ele>
        <time>2022-04-11T14:54:54Z</time>
      </trkpt>
      <trkpt lat="47.72828" lon="-3.37041">
        <ele>2.1</ele>
        <time>2022-04-11T14:54:56Z</time>
      </trkpt>
      <trkpt lat="47.72828" lon="-3.37034">
        <ele>1.1</ele>
        <time>2022-04-11T14:54:58Z</time>
      </trkpt>
      <trkpt lat="47.72827" lon="-3.37027">
        <ele>-0.1</ele>
        <time>2022-04-11T14:55:00Z</time>
      </trkpt>
      <trkpt lat="47.72824" lon="-3.37021">
        <ele>-0.8</ele>
        <time>2022-04-11T14:55:02Z</time>
      </trkpt>
      <trkpt lat="47.72821" lon="-3.37016">
        <ele>1.4</ele>
        <time>2022-04-11T14:55:04Z</time>
      </trkpt>
      <trkpt lat="47.72819" lon="-3.37008">
        <ele>1</ele>
        <time>2022-04-11T14:55:08Z</time>
      </trkpt>
      <trkpt lat="47.72823" lon="-3.37004">
        <ele>-0.6</ele>
        <time>2022-04-11T14:55:12Z</time>
      </trkpt>
      <trkpt lat="47.72827" lon="-3.37001">
        <ele>-1.1</ele>
        <time>2022-04-11T14:55:15Z</time>
      </trkpt>
      <trkpt lat="47.7283" lon="-3.36995">
        <ele>-0.5</ele>
        <time>2022-04-11T14:55:18Z</time>
      </trkpt>
      <trkpt lat="47.72832" lon="-3.36985">
        <ele>-0.9</ele>
        <time>2022-04-11T14:55:21Z</time>
      </trkpt>
      <trkpt lat="47.72833" lon="-3.36978">
        <ele>-1.9</ele>
        <time>2022-04-11T14:55:22Z</time>
      </trkpt>
      <trkpt lat="47.72832" lon="-3.36969">
        <ele>-1.6</ele>
        <time>2022-04-11T14:55:23Z</time>
      </trkpt>
      <trkpt lat="47.72832" lon="-3.36961">
        <ele>-1.7</ele>
        <time>2022-04-11T14:55:24Z</time>
      </trkpt>
      <trkpt lat="47.72832" lon="-3.36953">
        <ele>-2.1</ele>
        <time>2022-04-11T14:55:25Z</time>
      </trkpt>
      <trkpt lat="47.72833" lon="-3.36946">
        <ele>-1.9</ele>
        <time>2022-04-11T14:55:26Z</time>
      </trkpt>
      <trkpt lat="47.72835" lon="-3.36936">
        <ele>-7.5</ele>
        <time>2022-04-11T14:55:28Z</time>
      </trkpt>
      <trkpt lat="47.72838" lon="-3.36927">
        <ele>-8.5</ele>
        <time>2022-04-11T14:55:30Z</time>
      </trkpt>
      <trkpt lat="47.72842" lon="-3.36918">
        <ele>-8.3</ele>
        <time>2022-04-11T14:55:32Z</time>
      </trkpt>
      <trkpt lat="47.72847" lon="-3.36908">
        <ele>-6.1</ele>
        <time>2022-04-11T14:55:34Z</time>
      </trkpt>
      <trkpt lat="47.72852" lon="-3.36899">
        <ele>-4.7</ele>
        <time>2022-04-11T14:55:36Z</time>
      </trkpt>
      <trkpt lat="47.72857" lon="-3.36891">
        <ele>-2.2</ele>
        <time>2022-04-11T14:55:38Z</time>
      </trkpt>
      <trkpt lat="47.72862" lon="-3.36884">
        <ele>-0.7</ele>
        <time>2022-04-11T14:55:40Z</time>
      </trkpt>
      <trkpt lat="47.72862" lon="-3.36875">
        <ele>-2.2</ele>
        <time>2022-04-11T14:55:42Z</time>
      </trkpt>
      <trkpt lat="47.72857" lon="-3.36869">
        <ele>-1.3</ele>
        <time>2022-04-11T14:55:44Z</time>
      </trkpt>
      <trkpt lat="47.72853" lon="-3.36861">
        <ele>-2.2</ele>
        <time>2022-04-11T14:55:46Z</time>
      </trkpt>
      <trkpt lat="47.7285" lon="-3.36851">
        <ele>-3.5</ele>
        <time>2022-04-11T14:55:48Z</time>
      </trkpt>
      <trkpt lat="47.72845" lon="-3.36838">
        <ele>-0.7</ele>
        <time>2022-04-11T14:55:50Z</time>
      </trkpt>
      <trkpt lat="47.72844" lon="-3.36831">
        <ele>0.7</ele>
        <time>2022-04-11T14:55:51Z</time>
      </trkpt>
      <trkpt lat="47.72844" lon="-3.3682">
        <ele>2.7</ele>
        <time>2022-04-11T14:55:53Z</time>
      </trkpt>
      <trkpt lat="47.72846" lon="-3.36811">
        <ele>4.1</ele>
        <time>2022-04-11T14:55:55Z</time>
      </trkpt>
      <trkpt lat="47.72848" lon="-3.36803">
        <ele>5.7</ele>
        <time>2022-04-11T14:55:57Z</time>
      </trkpt>
      <trkpt lat="47.72849" lon="-3.36796">
        <ele>7.1</ele>
        <time>2022-04-11T14:55:59Z</time>
      </trkpt>
      <trkpt lat="47.72849" lon="-3.36788">
        <ele>7.7</ele>
        <time>2022-04-11T14:56:02Z</time>
      </trkpt>
      <trkpt lat="47.72844" lon="-3.36783">
        <ele>7.3</ele>
        <time>2022-04-11T14:56:04Z</time>
      </trkpt>
      <trkpt lat="47.72838" lon="-3.36778">
        <ele>7.2</ele>
        <time>2022-04-11T14:56:06Z</time>
      </trkpt>
      <trkpt lat="47.72833" lon="-3.36771">
        <ele>5.9</ele>
        <time>2022-04-11T14:56:08Z</time>
      </trkpt>
      <trkpt lat="47.72829" lon="-3.36763">
        <ele>6</ele>
        <time>2022-04-11T14:56:10Z</time>
      </trkpt>
      <trkpt lat="47.72826" lon="-3.36756">
        <ele>7.8</ele>
        <time>2022-04-11T14:56:12Z</time>
      </trkpt>
      <trkpt lat="47.72821" lon="-3.36747">
        <ele>7.6</ele>
        <time>2022-04-11T14:56:14Z</time>
      </trkpt>
      <trkpt lat="47.72816" lon="-3.3674">
        <ele>7.3</ele>
        <time>2022-04-11T14:56:16Z</time>
      </trkpt>
      <trkpt lat="47.7281" lon="-3.36733">
        <ele>7</ele>
        <time>2022-04-11T14:56:18Z</time>
      </trkpt>
      <trkpt lat="47.72805" lon="-3.36725">
        <ele>7.1</ele>
        <time>2022-04-11T14:56:20Z</time>
      </trkpt>
      <trkpt lat="47.728" lon="-3.36718">
        <ele>6.5</ele>
        <time>2022-04-11T14:56:22Z</time>
      </trkpt>
      <trkpt lat="47.72796" lon="-3.3671">
        <ele>6.6</ele>
        <time>2022-04-11T14:56:24Z</time>
      </trkpt>
      <trkpt lat="47.72791" lon="-3.36703">
        <ele>6.6</ele>
        <time>2022-04-11T14:56:26Z</time>
      </trkpt>
      <trkpt lat="47.72786" lon="-3.36695">
        <ele>5.3</ele>
        <time>2022-04-11T14:56:28Z</time>
      </trkpt>
      <trkpt lat="47.72782" lon="-3.36689">
        <ele>4.4</ele>
        <time>2022-04-11T14:56:30Z</time>
      </trkpt>
      <trkpt lat="47.72779" lon="-3.36681">
        <ele>3.8</ele>
        <time>2022-04-11T14:56:32Z</time>
      </trkpt>
      <trkpt lat="47.72776" lon="-3.36675">
        <ele>4.7</ele>
        <time>2022-04-11T14:56:34Z</time>
      </trkpt>
      <trkpt lat="47.72771" lon="-3.36668">
        <ele>5.1</ele>
        <time>2022-04-11T14:56:36Z</time>
      </trkpt>
      <trkpt lat="47.72767" lon="-3.36661">
        <ele>5.9</ele>
        <time>2022-04-11T14:56:38Z</time>
      </trkpt>
      <trkpt lat="47.72762" lon="-3.36654">
        <ele>6.2</ele>
        <time>2022-04-11T14:56:40Z</time>
      </trkpt>
      <trkpt lat="47.72758" lon="-3.36649">
        <ele>6.4</ele>
        <time>2022-04-11T14:56:42Z</time>
      </trkpt>
      <trkpt lat="47.72756" lon="-3.36643">
        <ele>6.9</ele>
        <time>2022-04-11T14:56:44Z</time>
      </trkpt>
      <trkpt lat="47.72756" lon="-3.36635">
        <ele>7.3</ele>
        <time>2022-04-11T14:56:46Z</time>
      </trkpt>
      <trkpt lat="47.72759" lon="-3.3663">
        <ele>8.4</ele>
        <time>2022-04-11T14:56:49Z</time>
      </trkpt>
      <trkpt lat="47.72764" lon="-3.36626">
        <ele>10.2</ele>
        <time>2022-04-11T14:57:12Z</time>
      </trkpt>
      <trkpt lat="47.72767" lon="-3.3662">
        <ele>11.5</ele>
        <time>2022-04-11T14:57:14Z</time>
      </trkpt>
      <trkpt lat="47.72773" lon="-3.36619">
        <ele>11.2</ele>
        <time>2022-04-11T14:57:17Z</time>
      </trkpt>
      <trkpt lat="47.72778" lon="-3.36622">
        <ele>11.4</ele>
        <time>2022-04-11T14:57:19Z</time>
      </trkpt>
      <trkpt lat="47.72784" lon="-3.36624">
        <ele>11.4</ele>
        <time>2022-04-11T14:57:21Z</time>
      </trkpt>
      <trkpt lat="47.72789" lon="-3.36631">
        <ele>10.3</ele>
        <time>2022-04-11T14:57:23Z</time>
      </trkpt>
      <trkpt lat="47.72793" lon="-3.36638">
        <ele>9</ele>
        <time>2022-04-11T14:57:25Z</time>
      </trkpt>
      <trkpt lat="47.72795" lon="-3.36646">
        <ele>6.4</ele>
        <time>2022-04-11T14:57:27Z</time>
      </trkpt>
      <trkpt lat="47.72797" lon="-3.36654">
        <ele>5.3</ele>
        <time>2022-04-11T14:57:29Z</time>
      </trkpt>
      <trkpt lat="47.72801" lon="-3.36662">
        <ele>4.5</ele>
        <time>2022-04-11T14:57:31Z</time>
      </trkpt>
      <trkpt lat="47.72805" lon="-3.36672">
        <ele>3.7</ele>
        <time>2022-04-11T14:57:33Z</time>
      </trkpt>
      <trkpt lat="47.7281" lon="-3.3668">
        <ele>3.2</ele>
        <time>2022-04-11T14:57:35Z</time>
      </trkpt>
      <trkpt lat="47.72815" lon="-3.36689">
        <ele>2.7</ele>
        <time>2022-04-11T14:57:37Z</time>
      </trkpt>
      <trkpt lat="47.72821" lon="-3.36697">
        <ele>2.5</ele>
        <time>2022-04-11T14:57:39Z</time>
      </trkpt>
      <trkpt lat="47.72826" lon="-3.36704">
        <ele>1.2</ele>
        <time>2022-04-11T14:57:41Z</time>
      </trkpt>
      <trkpt lat="47.7283" lon="-3.36712">
        <ele>0.4</ele>
        <time>2022-04-11T14:57:43Z</time>
      </trkpt>
      <trkpt lat="47.72833" lon="-3.3672">
        <ele>0.6</ele>
        <time>2022-04-11T14:57:45Z</time>
      </trkpt>
      <trkpt lat="47.72837" lon="-3.36731">
        <ele>0.7</ele>
        <time>2022-04-11T14:57:47Z</time>
      </trkpt>
      <trkpt lat="47.72842" lon="-3.36741">
        <ele>0.2</ele>
        <time>2022-04-11T14:57:49Z</time>
      </trkpt>
      <trkpt lat="47.72847" lon="-3.36749">
        <ele>-0.1</ele>
        <time>2022-04-11T14:57:51Z</time>
      </trkpt>
      <trkpt lat="47.72855" lon="-3.36754">
        <ele>4.4</ele>
        <time>2022-04-11T14:57:53Z</time>
      </trkpt>
      <trkpt lat="47.72863" lon="-3.36758">
        <ele>4</ele>
        <time>2022-04-11T14:57:55Z</time>
      </trkpt>
      <trkpt lat="47.72867" lon="-3.3676">
        <ele>0.1</ele>
        <time>2022-04-11T14:57:56Z</time>
      </trkpt>
      <trkpt lat="47.72876" lon="-3.36764">
        <ele>0.4</ele>
        <time>2022-04-11T14:57:58Z</time>
      </trkpt>
      <trkpt lat="47.7288" lon="-3.36766">
        <ele>0.3</ele>
        <time>2022-04-11T14:57:59Z</time>
      </trkpt>
      <trkpt lat="47.72884" lon="-3.36768">
        <ele>0.8</ele>
        <time>2022-04-11T14:58:00Z</time>
      </trkpt>
      <trkpt lat="47.72889" lon="-3.3677">
        <ele>1.1</ele>
        <time>2022-04-11T14:58:01Z</time>
      </trkpt>
      <trkpt lat="47.72893" lon="-3.36771">
        <ele>1.1</ele>
        <time>2022-04-11T14:58:02Z</time>
      </trkpt>
      <trkpt lat="47.72901" lon="-3.36774">
        <ele>1.3</ele>
        <time>2022-04-11T14:58:04Z</time>
      </trkpt>
      <trkpt lat="47.72908" lon="-3.36778">
        <ele>1</ele>
        <time>2022-04-11T14:58:06Z</time>
      </trkpt>
      <trkpt lat="47.72915" lon="-3.36781">
        <ele>0.6</ele>
        <time>2022-04-11T14:58:08Z</time>
      </trkpt>
      <trkpt lat="47.72921" lon="-3.36783">
        <ele>0.1</ele>
        <time>2022-04-11T14:58:10Z</time>
      </trkpt>
      <trkpt lat="47.72926" lon="-3.36786">
        <ele>-0.9</ele>
        <time>2022-04-11T14:58:12Z</time>
      </trkpt>
      <trkpt lat="47.72928" lon="-3.36794">
        <ele>-1.5</ele>
        <time>2022-04-11T14:58:16Z</time>
      </trkpt>
      <trkpt lat="47.72933" lon="-3.368">
        <ele>-1.6</ele>
        <time>2022-04-11T14:58:18Z</time>
      </trkpt>
      <trkpt lat="47.72938" lon="-3.368">
        <ele>-1.4</ele>
        <time>2022-04-11T14:58:19Z</time>
      </trkpt>
      <trkpt lat="47.72943" lon="-3.36802">
        <ele>-1</ele>
        <time>2022-04-11T14:58:20Z</time>
      </trkpt>
      <trkpt lat="47.72951" lon="-3.36803">
        <ele>-1</ele>
        <time>2022-04-11T14:58:22Z</time>
      </trkpt>
      <trkpt lat="47.72959" lon="-3.36806">
        <ele>-1.8</ele>
        <time>2022-04-11T14:58:24Z</time>
      </trkpt>
      <trkpt lat="47.72966" lon="-3.36809">
        <ele>-3</ele>
        <time>2022-04-11T14:58:26Z</time>
      </trkpt>
      <trkpt lat="47.72974" lon="-3.3681">
        <ele>-3.8</ele>
        <time>2022-04-11T14:58:28Z</time>
      </trkpt>
      <trkpt lat="47.72981" lon="-3.3681">
        <ele>-4.2</ele>
        <time>2022-04-11T14:58:30Z</time>
      </trkpt>
      <trkpt lat="47.72988" lon="-3.36811">
        <ele>-6</ele>
        <time>2022-04-11T14:58:32Z</time>
      </trkpt>
      <trkpt lat="47.72996" lon="-3.36814">
        <ele>-7</ele>
        <time>2022-04-11T14:58:34Z</time>
      </trkpt>
      <trkpt lat="47.73004" lon="-3.36817">
        <ele>-9.3</ele>
        <time>2022-04-11T14:58:36Z</time>
      </trkpt>
      <trkpt lat="47.7301" lon="-3.3682">
        <ele>-11.3</ele>
        <time>2022-04-11T14:58:38Z</time>
      </trkpt>
      <trkpt lat="47.73017" lon="-3.36822">
        <ele>-11.6</ele>
        <time>2022-04-11T14:58:40Z</time>
      </trkpt>
      <trkpt lat="47.73023" lon="-3.36826">
        <ele>-12.1</ele>
        <time>2022-04-11T14:58:42Z</time>
      </trkpt>
      <trkpt lat="47.73031" lon="-3.36829">
        <ele>-12.6</ele>
        <time>2022-04-11T14:58:44Z</time>
      </trkpt>
      <trkpt lat="47.73037" lon="-3.36833">
        <ele>-12.8</ele>
        <time>2022-04-11T14:58:46Z</time>
      </trkpt>
      <trkpt lat="47.73044" lon="-3.36838">
        <ele>-12.7</ele>
        <time>2022-04-11T14:58:48Z</time>
      </trkpt>
      <trkpt lat="47.73052" lon="-3.36841">
        <ele>-12.5</ele>
        <time>2022-04-11T14:58:50Z</time>
      </trkpt>
      <trkpt lat="47.73059" lon="-3.36844">
        <ele>-13.3</ele>
        <time>2022-04-11T14:58:52Z</time>
      </trkpt>
      <trkpt lat="47.73066" lon="-3.36846">
        <ele>-12.8</ele>
        <time>2022-04-11T14:58:54Z</time>
      </trkpt>
      <trkpt lat="47.73074" lon="-3.3685">
        <ele>-11.7</ele>
        <time>2022-04-11T14:58:56Z</time>
      </trkpt>
      <trkpt lat="47.73081" lon="-3.36854">
        <ele>-10.7</ele>
        <time>2022-04-11T14:58:58Z</time>
      </trkpt>
      <trkpt lat="47.73089" lon="-3.36854">
        <ele>-10.2</ele>
        <time>2022-04-11T14:59:00Z</time>
      </trkpt>
      <trkpt lat="47.73095" lon="-3.36852">
        <ele>-10</ele>
        <time>2022-04-11T14:59:02Z</time>
      </trkpt>
      <trkpt lat="47.73101" lon="-3.36854">
        <ele>-10</ele>
        <time>2022-04-11T14:59:04Z</time>
      </trkpt>
      <trkpt lat="47.73108" lon="-3.3686">
        <ele>-9.3</ele>
        <time>2022-04-11T14:59:06Z</time>
      </trkpt>
      <trkpt lat="47.73111" lon="-3.36865">
        <ele>-7.5</ele>
        <time>2022-04-11T14:59:07Z</time>
      </trkpt>
      <trkpt lat="47.73117" lon="-3.36874">
        <ele>-5.3</ele>
        <time>2022-04-11T14:59:09Z</time>
      </trkpt>
      <trkpt lat="47.73121" lon="-3.3688">
        <ele>-5</ele>
        <time>2022-04-11T14:59:11Z</time>
      </trkpt>
      <trkpt lat="47.73125" lon="-3.36884">
        <ele>-4.4</ele>
        <time>2022-04-11T14:59:14Z</time>
      </trkpt>
      <trkpt lat="47.73131" lon="-3.36888">
        <ele>-4.3</ele>
        <time>2022-04-11T14:59:16Z</time>
      </trkpt>
      <trkpt lat="47.73138" lon="-3.3689">
        <ele>-4.2</ele>
        <time>2022-04-11T14:59:18Z</time>
      </trkpt>
      <trkpt lat="47.73144" lon="-3.3689">
        <ele>-4.2</ele>
        <time>2022-04-11T14:59:21Z</time>
      </trkpt>
      <trkpt lat="47.73151" lon="-3.36887">
        <ele>-4.1</ele>
        <time>2022-04-11T14:59:24Z</time>
      </trkpt>
      <trkpt lat="47.73157" lon="-3.36884">
        <ele>-4.4</ele>
        <time>2022-04-11T14:59:27Z</time>
      </trkpt>
      <trkpt lat="47.73163" lon="-3.36881">
        <ele>-4.5</ele>
        <time>2022-04-11T14:59:30Z</time>
      </trkpt>
      <trkpt lat="47.73168" lon="-3.3688">
        <ele>-3.3</ele>
        <time>2022-04-11T14:59:36Z</time>
      </trkpt>
      <trkpt lat="47.73173" lon="-3.36875">
        <ele>-0.1</ele>
        <time>2022-04-11T15:00:05Z</time>
      </trkpt>
      <trkpt lat="47.73173" lon="-3.36864">
        <ele>3</ele>
        <time>2022-04-11T15:00:08Z</time>
      </trkpt>
      <trkpt lat="47.73173" lon="-3.36856">
        <ele>4.9</ele>
        <time>2022-04-11T15:00:10Z</time>
      </trkpt>
      <trkpt lat="47.73177" lon="-3.3685">
        <ele>5.9</ele>
        <time>2022-04-11T15:00:12Z</time>
      </trkpt>
      <trkpt lat="47.73183" lon="-3.36846">
        <ele>6.5</ele>
        <time>2022-04-11T15:00:14Z</time>
      </trkpt>
      <trkpt lat="47.7319" lon="-3.36845">
        <ele>6.9</ele>
        <time>2022-04-11T15:00:16Z</time>
      </trkpt>
      <trkpt lat="47.73196" lon="-3.36845">
        <ele>5.5</ele>
        <time>2022-04-11T15:00:18Z</time>
      </trkpt>
      <trkpt lat="47.73203" lon="-3.36847">
        <ele>5.7</ele>
        <time>2022-04-11T15:00:20Z</time>
      </trkpt>
      <trkpt lat="47.73208" lon="-3.36849">
        <ele>6.6</ele>
        <time>2022-04-11T15:00:22Z</time>
      </trkpt>
      <trkpt lat="47.73214" lon="-3.36847">
        <ele>7.4</ele>
        <time>2022-04-11T15:00:24Z</time>
      </trkpt>
      <trkpt lat="47.73219" lon="-3.36844">
        <ele>7.5</ele>
        <time>2022-04-11T15:00:26Z</time>
      </trkpt>
      <trkpt lat="47.73223" lon="-3.36844">
        <ele>7.4</ele>
        <time>2022-04-11T15:00:28Z</time>
      </trkpt>
      <trkpt lat="47.73229" lon="-3.36845">
        <ele>8.3</ele>
        <time>2022-04-11T15:00:30Z</time>
      </trkpt>
      <trkpt lat="47.73234" lon="-3.36845">
        <ele>9.6</ele>
        <time>2022-04-11T15:00:32Z</time>
      </trkpt>
      <trkpt lat="47.7324" lon="-3.36843">
        <ele>10</ele>
        <time>2022-04-11T15:00:34Z</time>
      </trkpt>
      <trkpt lat="47.73245" lon="-3.36839">
        <ele>11.8</ele>
        <time>2022-04-11T15:00:36Z</time>
      </trkpt>
      <trkpt lat="47.73249" lon="-3.36831">
        <ele>12</ele>
        <time>2022-04-11T15:00:38Z</time>
      </trkpt>
      <trkpt lat="47.73249" lon="-3.36823">
        <ele>12.1</ele>
        <time>2022-04-11T15:00:40Z</time>
      </trkpt>
      <trkpt lat="47.73249" lon="-3.36816">
        <ele>12</ele>
        <time>2022-04-11T15:00:42Z</time>
      </trkpt>
      <trkpt lat="47.7325" lon="-3.36806">
        <ele>9.6</ele>
        <time>2022-04-11T15:00:45Z</time>
      </trkpt>
      <trkpt lat="47.73251" lon="-3.36797">
        <ele>8.5</ele>
        <time>2022-04-11T15:00:48Z</time>
      </trkpt>
      <trkpt lat="47.73252" lon="-3.3679">
        <ele>8</ele>
        <time>2022-04-11T15:00:50Z</time>
      </trkpt>
      <trkpt lat="47.73253" lon="-3.36784">
        <ele>8.5</ele>
        <time>2022-04-11T15:01:19Z</time>
      </trkpt>
      <trkpt lat="47.73255" lon="-3.36777">
        <ele>10.5</ele>
        <time>2022-04-11T15:01:27Z</time>
      </trkpt>
      <trkpt lat="47.73259" lon="-3.36774">
        <ele>10.8</ele>
        <time>2022-04-11T15:01:39Z</time>
      </trkpt>
      <trkpt lat="47.73263" lon="-3.3677">
        <ele>10.5</ele>
        <time>2022-04-11T15:01:50Z</time>
      </trkpt>
      <trkpt lat="47.73265" lon="-3.36763">
        <ele>10.2</ele>
        <time>2022-04-11T15:01:54Z</time>
      </trkpt>
      <trkpt lat="47.73265" lon="-3.36756">
        <ele>11.3</ele>
        <time>2022-04-11T15:01:57Z</time>
      </trkpt>
      <trkpt lat="47.73267" lon="-3.36748">
        <ele>11.2</ele>
        <time>2022-04-11T15:02:00Z</time>
      </trkpt>
      <trkpt lat="47.73269" lon="-3.36739">
        <ele>9.8</ele>
        <time>2022-04-11T15:02:03Z</time>
      </trkpt>
      <trkpt lat="47.7327" lon="-3.36732">
        <ele>9.1</ele>
        <time>2022-04-11T15:02:06Z</time>
      </trkpt>
      <trkpt lat="47.73268" lon="-3.36726">
        <ele>10.1</ele>
        <time>2022-04-11T15:02:16Z</time>
      </trkpt>
      <trkpt lat="47.73264" lon="-3.36724">
        <ele>9.3</ele>
        <time>2022-04-11T15:02:21Z</time>
      </trkpt>
      <trkpt lat="47.73262" lon="-3.36731">
        <ele>7.5</ele>
        <time>2022-04-11T15:02:26Z</time>
      </trkpt>
      <trkpt lat="47.73265" lon="-3.36738">
        <ele>3.2</ele>
        <time>2022-04-11T15:02:30Z</time>
      </trkpt>
      <trkpt lat="47.73268" lon="-3.36747">
        <ele>-3.3</ele>
        <time>2022-04-11T15:02:33Z</time>
      </trkpt>
      <trkpt lat="47.73266" lon="-3.36759">
        <ele>-2.9</ele>
        <time>2022-04-11T15:02:35Z</time>
      </trkpt>
      <trkpt lat="47.73264" lon="-3.36769">
        <ele>-3.1</ele>
        <time>2022-04-11T15:02:37Z</time>
      </trkpt>
      <trkpt lat="47.73262" lon="-3.36776">
        <ele>-4.2</ele>
        <time>2022-04-11T15:02:39Z</time>
      </trkpt>
      <trkpt lat="47.73259" lon="-3.36782">
        <ele>-6.7</ele>
        <time>2022-04-11T15:02:42Z</time>
      </trkpt>
      <trkpt lat="47.73255" lon="-3.36784">
        <ele>-12.5</ele>
        <time>2022-04-11T15:02:47Z</time>
      </trkpt>
      <trkpt lat="47.73249" lon="-3.36784">
        <ele>-11.5</ele>
        <time>2022-04-11T15:02:51Z</time>
      </trkpt>
      <trkpt lat="47.73244" lon="-3.36778">
        <ele>-12.9</ele>
        <time>2022-04-11T15:02:53Z</time>
      </trkpt>
      <trkpt lat="47.73241" lon="-3.36773">
        <ele>-14.7</ele>
        <time>2022-04-11T15:02:55Z</time>
      </trkpt>
      <trkpt lat="47.73236" lon="-3.36768">
        <ele>-18.3</ele>
        <time>2022-04-11T15:02:58Z</time>
      </trkpt>
      <trkpt lat="47.73232" lon="-3.36762">
        <ele>-21.5</ele>
        <time>2022-04-11T15:03:01Z</time>
      </trkpt>
      <trkpt lat="47.73232" lon="-3.36755">
        <ele>-23.4</ele>
        <time>2022-04-11T15:03:04Z</time>
      </trkpt>
      <trkpt lat="47.73229" lon="-3.36748">
        <ele>-26</ele>
        <time>2022-04-11T15:03:07Z</time>
      </trkpt>
      <trkpt lat="47.73225" lon="-3.3674">
        <ele>-28.2</ele>
        <time>2022-04-11T15:03:09Z</time>
      </trkpt>
      <trkpt lat="47.73219" lon="-3.36731">
        <ele>-28.5</ele>
        <time>2022-04-11T15:03:11Z</time>
      </trkpt>
      <trkpt lat="47.73212" lon="-3.36722">
        <ele>-28</ele>
        <time>2022-04-11T15:03:13Z</time>
      </trkpt>
      <trkpt lat="47.73209" lon="-3.36718">
        <ele>-28.3</ele>
        <time>2022-04-11T15:03:14Z</time>
      </trkpt>
      <trkpt lat="47.73201" lon="-3.36717">
        <ele>-30.1</ele>
        <time>2022-04-11T15:03:16Z</time>
      </trkpt>
      <trkpt lat="47.73196" lon="-3.3672">
        <ele>-40.5</ele>
        <time>2022-04-11T15:03:19Z</time>
      </trkpt>
      <trkpt lat="47.73192" lon="-3.36725">
        <ele>-41.1</ele>
        <time>2022-04-11T15:03:21Z</time>
      </trkpt>
      <trkpt lat="47.73186" lon="-3.36724">
        <ele>-40.7</ele>
        <time>2022-04-11T15:03:23Z</time>
      </trkpt>
      <trkpt lat="47.73181" lon="-3.36719">
        <ele>-40.5</ele>
        <time>2022-04-11T15:03:25Z</time>
      </trkpt>
      <trkpt lat="47.73177" lon="-3.36714">
        <ele>-40.9</ele>
        <time>2022-04-11T15:03:27Z</time>
      </trkpt>
      <trkpt lat="47.73173" lon="-3.36708">
        <ele>-42.1</ele>
        <time>2022-04-11T15:03:29Z</time>
      </trkpt>
      <trkpt lat="47.73171" lon="-3.36702">
        <ele>-44.4</ele>
        <time>2022-04-11T15:03:31Z</time>
      </trkpt>
      <trkpt lat="47.73168" lon="-3.36696">
        <ele>-46</ele>
        <time>2022-04-11T15:03:33Z</time>
      </trkpt>
      <trkpt lat="47.73164" lon="-3.3669">
        <ele>-48.4</ele>
        <time>2022-04-11T15:03:35Z</time>
      </trkpt>
      <trkpt lat="47.73158" lon="-3.36685">
        <ele>-49.3</ele>
        <time>2022-04-11T15:03:37Z</time>
      </trkpt>
      <trkpt lat="47.73152" lon="-3.36681">
        <ele>-50.9</ele>
        <time>2022-04-11T15:03:39Z</time>
      </trkpt>
      <trkpt lat="47.73148" lon="-3.36676">
        <ele>-53.4</ele>
        <time>2022-04-11T15:03:41Z</time>
      </trkpt>
      <trkpt lat="47.73142" lon="-3.36671">
        <ele>-55.8</ele>
        <time>2022-04-11T15:03:43Z</time>
      </trkpt>
      <trkpt lat="47.73137" lon="-3.36666">
        <ele>-57.6</ele>
        <time>2022-04-11T15:03:45Z</time>
      </trkpt>
      <trkpt lat="47.7313" lon="-3.36661">
        <ele>-58.2</ele>
        <time>2022-04-11T15:03:47Z</time>
      </trkpt>
      <trkpt lat="47.73127" lon="-3.36656">
        <ele>-59.6</ele>
        <time>2022-04-11T15:03:49Z</time>
      </trkpt>
      <trkpt lat="47.73123" lon="-3.36651">
        <ele>-61</ele>
        <time>2022-04-11T15:03:51Z</time>
      </trkpt>
      <trkpt lat="47.73119" lon="-3.36644">
        <ele>-63.6</ele>
        <time>2022-04-11T15:03:53Z</time>
      </trkpt>
      <trkpt lat="47.73114" lon="-3.36638">
        <ele>-65.7</ele>
        <time>2022-04-11T15:03:55Z</time>
      </trkpt>
      <trkpt lat="47.73109" lon="-3.36632">
        <ele>-68.3</ele>
        <time>2022-04-11T15:03:57Z</time>
      </trkpt>
      <trkpt lat="47.73106" lon="-3.36624">
        <ele>-70</ele>
        <time>2022-04-11T15:03:59Z</time>
      </trkpt>
      <trkpt lat="47.73102" lon="-3.36618">
        <ele>-71.9</ele>
        <time>2022-04-11T15:04:01Z</time>
      </trkpt>
      <trkpt lat="47.73097" lon="-3.36611">
        <ele>-74.4</ele>
        <time>2022-04-11T15:04:03Z</time>
      </trkpt>
      <trkpt lat="47.73093" lon="-3.36604">
        <ele>-75.7</ele>
        <time>2022-04-11T15:04:05Z</time>
      </trkpt>
      <trkpt lat="47.73091" lon="-3.36596">
        <ele>-79.9</ele>
        <time>2022-04-11T15:04:07Z</time>
      </trkpt>
      <trkpt lat="47.7309" lon="-3.36586">
        <ele>-84.5</ele>
        <time>2022-04-11T15:04:09Z</time>
      </trkpt>
      <trkpt lat="47.7309" lon="-3.36575">
        <ele>-88</ele>
        <time>2022-04-11T15:04:11Z</time>
      </trkpt>
      <trkpt lat="47.73089" lon="-3.36563">
        <ele>-92.9</ele>
        <time>2022-04-11T15:04:13Z</time>
      </trkpt>
      <trkpt lat="47.73087" lon="-3.36555">
        <ele>-101.9</ele>
        <time>2022-04-11T15:04:15Z</time>
      </trkpt>
      <trkpt lat="47.73084" lon="-3.36547">
        <ele>-109.4</ele>
        <time>2022-04-11T15:04:17Z</time>
      </trkpt>
      <trkpt lat="47.7308" lon="-3.36539">
        <ele>-114.6</ele>
        <time>2022-04-11T15:04:19Z</time>
      </trkpt>
      <trkpt lat="47.73074" lon="-3.36533">
        <ele>-117.7</ele>
        <time>2022-04-11T15:04:21Z</time>
      </trkpt>
      <trkpt lat="47.73069" lon="-3.36527">
        <ele>-122.5</ele>
        <time>2022-04-11T15:04:23Z</time>
      </trkpt>
      <trkpt lat="47.73065" lon="-3.36521">
        <ele>-128</ele>
        <time>2022-04-11T15:04:25Z</time>
      </trkpt>
      <trkpt lat="47.73063" lon="-3.36514">
        <ele>-132.5</ele>
        <time>2022-04-11T15:04:27Z</time>
      </trkpt>
      <trkpt lat="47.73061" lon="-3.36506">
        <ele>-138.6</ele>
        <time>2022-04-11T15:04:29Z</time>
      </trkpt>
      <trkpt lat="47.7306" lon="-3.36497">
        <ele>-144.7</ele>
        <time>2022-04-11T15:04:31Z</time>
      </trkpt>
      <trkpt lat="47.73058" lon="-3.36487">
        <ele>-149.3</ele>
        <time>2022-04-11T15:04:33Z</time>
      </trkpt>
      <trkpt lat="47.73057" lon="-3.36477">
        <ele>-154.8</ele>
        <time>2022-04-11T15:04:35Z</time>
      </trkpt>
      <trkpt lat="47.73054" lon="-3.36468">
        <ele>-157.9</ele>
        <time>2022-04-11T15:04:37Z</time>
      </trkpt>
      <trkpt lat="47.73049" lon="-3.36462">
        <ele>-158.6</ele>
        <time>2022-04-11T15:04:39Z</time>
      </trkpt>
      <trkpt lat="47.73044" lon="-3.36456">
        <ele>-156.4</ele>
        <time>2022-04-11T15:04:41Z</time>
      </trkpt>
      <trkpt lat="47.73039" lon="-3.36451">
        <ele>-158.5</ele>
        <time>2022-04-11T15:04:43Z</time>
      </trkpt>
      <trkpt lat="47.73033" lon="-3.3645">
        <ele>-158.2</ele>
        <time>2022-04-11T15:04:45Z</time>
      </trkpt>
      <trkpt lat="47.73028" lon="-3.36448">
        <ele>-155.4</ele>
        <time>2022-04-11T15:04:48Z</time>
      </trkpt>
      <trkpt lat="47.73022" lon="-3.3645">
        <ele>-147</ele>
        <time>2022-04-11T15:04:51Z</time>
      </trkpt>
      <trkpt lat="47.73017" lon="-3.36456">
        <ele>-143.1</ele>
        <time>2022-04-11T15:04:53Z</time>
      </trkpt>
      <trkpt lat="47.73013" lon="-3.36462">
        <ele>-140.3</ele>
        <time>2022-04-11T15:04:55Z</time>
      </trkpt>
      <trkpt lat="47.73015" lon="-3.36469">
        <ele>-140.6</ele>
        <time>2022-04-11T15:05:03Z</time>
      </trkpt>
      <trkpt lat="47.73011" lon="-3.36462">
        <ele>-139.8</ele>
        <time>2022-04-11T15:05:07Z</time>
      </trkpt>
      <trkpt lat="47.73006" lon="-3.36459">
        <ele>-138.8</ele>
        <time>2022-04-11T15:05:09Z</time>
      </trkpt>
      <trkpt lat="47.72999" lon="-3.36455">
        <ele>-137.3</ele>
        <time>2022-04-11T15:05:11Z</time>
      </trkpt>
      <trkpt lat="47.72993" lon="-3.36451">
        <ele>-135.5</ele>
        <time>2022-04-11T15:05:13Z</time>
      </trkpt>
      <trkpt lat="47.72985" lon="-3.3645">
        <ele>-134.7</ele>
        <time>2022-04-11T15:05:15Z</time>
      </trkpt>
      <trkpt lat="47.72977" lon="-3.36449">
        <ele>-135.6</ele>
        <time>2022-04-11T15:05:17Z</time>
      </trkpt>
      <trkpt lat="47.72972" lon="-3.36447">
        <ele>-135.4</ele>
        <time>2022-04-11T15:05:19Z</time>
      </trkpt>
      <trkpt lat="47.72967" lon="-3.36443">
        <ele>-134.4</ele>
        <time>2022-04-11T15:05:22Z</time>
      </trkpt>
      <trkpt lat="47.72963" lon="-3.36437">
        <ele>-136.4</ele>
        <time>2022-04-11T15:05:25Z</time>
      </trkpt>
      <trkpt lat="47.72951" lon="-3.36433">
        <ele>-102.2</ele>
        <time>2022-04-11T15:05:27Z</time>
      </trkpt>
      <trkpt lat="47.72942" lon="-3.3643">
        <ele>-102.1</ele>
        <time>2022-04-11T15:05:28Z</time>
      </trkpt>
      <trkpt lat="47.72936" lon="-3.36426">
        <ele>-101.9</ele>
        <time>2022-04-11T15:05:29Z</time>
      </trkpt>
      <trkpt lat="47.72931" lon="-3.36422">
        <ele>-107.6</ele>
        <time>2022-04-11T15:05:31Z</time>
      </trkpt>
      <trkpt lat="47.72928" lon="-3.36414">
        <ele>-90.4</ele>
        <time>2022-04-11T15:05:34Z</time>
      </trkpt>
      <trkpt lat="47.72926" lon="-3.36408">
        <ele>-88.8</ele>
        <time>2022-04-11T15:05:35Z</time>
      </trkpt>
      <trkpt lat="47.72924" lon="-3.364">
        <ele>-86.1</ele>
        <time>2022-04-11T15:05:36Z</time>
      </trkpt>
      <trkpt lat="47.72923" lon="-3.36388">
        <ele>-83.8</ele>
        <time>2022-04-11T15:05:38Z</time>
      </trkpt>
      <trkpt lat="47.72922" lon="-3.36378">
        <ele>-79.9</ele>
        <time>2022-04-11T15:05:40Z</time>
      </trkpt>
      <trkpt lat="47.72921" lon="-3.36368">
        <ele>-76.4</ele>
        <time>2022-04-11T15:05:42Z</time>
      </trkpt>
      <trkpt lat="47.7292" lon="-3.36359">
        <ele>-70.8</ele>
        <time>2022-04-11T15:05:44Z</time>
      </trkpt>
      <trkpt lat="47.7292" lon="-3.3635">
        <ele>-65.2</ele>
        <time>2022-04-11T15:05:46Z</time>
      </trkpt>
      <trkpt lat="47.7292" lon="-3.3634">
        <ele>-62.3</ele>
        <time>2022-04-11T15:05:48Z</time>
      </trkpt>
      <trkpt lat="47.7292" lon="-3.3633">
        <ele>-59.2</ele>
        <time>2022-04-11T15:05:50Z</time>
      </trkpt>
      <trkpt lat="47.7292" lon="-3.36318">
        <ele>-57.1</ele>
        <time>2022-04-11T15:05:52Z</time>
      </trkpt>
      <trkpt lat="47.72921" lon="-3.36309">
        <ele>-55.8</ele>
        <time>2022-04-11T15:05:54Z</time>
      </trkpt>
      <trkpt lat="47.72922" lon="-3.36299">
        <ele>-53.4</ele>
        <time>2022-04-11T15:05:56Z</time>
      </trkpt>
      <trkpt lat="47.72922" lon="-3.36289">
        <ele>-50.3</ele>
        <time>2022-04-11T15:05:58Z</time>
      </trkpt>
      <trkpt lat="47.72922" lon="-3.36279">
        <ele>-45.8</ele>
        <time>2022-04-11T15:06:00Z</time>
      </trkpt>
      <trkpt lat="47.72921" lon="-3.36269">
        <ele>-40.6</ele>
        <time>2022-04-11T15:06:02Z</time>
      </trkpt>
      <trkpt lat="47.72921" lon="-3.36258">
        <ele>-33.7</ele>
        <time>2022-04-11T15:06:04Z</time>
      </trkpt>
      <trkpt lat="47.72921" lon="-3.36249">
        <ele>-28.3</ele>
        <time>2022-04-11T15:06:06Z</time>
      </trkpt>
      <trkpt lat="47.72921" lon="-3.36241">
        <ele>-25.3</ele>
        <time>2022-04-11T15:06:08Z</time>
      </trkpt>
      <trkpt lat="47.7292" lon="-3.3623">
        <ele>-21.8</ele>
        <time>2022-04-11T15:06:10Z</time>
      </trkpt>
      <trkpt lat="47.72914" lon="-3.36222">
        <ele>-18</ele>
        <time>2022-04-11T15:06:12Z</time>
      </trkpt>
      <trkpt lat="47.72909" lon="-3.36216">
        <ele>-14.8</ele>
        <time>2022-04-11T15:06:14Z</time>
      </trkpt>
      <trkpt lat="47.72903" lon="-3.36209">
        <ele>-12.1</ele>
        <time>2022-04-11T15:06:16Z</time>
      </trkpt>
      <trkpt lat="47.72898" lon="-3.362">
        <ele>-9.1</ele>
        <time>2022-04-11T15:06:18Z</time>
      </trkpt>
      <trkpt lat="47.72893" lon="-3.36194">
        <ele>-8.7</ele>
        <time>2022-04-11T15:06:20Z</time>
      </trkpt>
      <trkpt lat="47.72889" lon="-3.36186">
        <ele>-7.1</ele>
        <time>2022-04-11T15:06:22Z</time>
      </trkpt>
      <trkpt lat="47.72884" lon="-3.36181">
        <ele>-5.2</ele>
        <time>2022-04-11T15:06:24Z</time>
      </trkpt>
      <trkpt lat="47.72879" lon="-3.36175">
        <ele>-5.3</ele>
        <time>2022-04-11T15:06:26Z</time>
      </trkpt>
      <trkpt lat="47.72876" lon="-3.36168">
        <ele>-4.7</ele>
        <time>2022-04-11T15:06:28Z</time>
      </trkpt>
      <trkpt lat="47.72875" lon="-3.3616">
        <ele>-3.9</ele>
        <time>2022-04-11T15:06:30Z</time>
      </trkpt>
      <trkpt lat="47.72874" lon="-3.36152">
        <ele>-4</ele>
        <time>2022-04-11T15:06:33Z</time>
      </trkpt>
      <trkpt lat="47.72873" lon="-3.36145">
        <ele>-7.7</ele>
        <time>2022-04-11T15:06:37Z</time>
      </trkpt>
      <trkpt lat="47.72868" lon="-3.36139">
        <ele>-8.4</ele>
        <time>2022-04-11T15:06:39Z</time>
      </trkpt>
      <trkpt lat="47.72868" lon="-3.3613">
        <ele>-8</ele>
        <time>2022-04-11T15:06:42Z</time>
      </trkpt>
      <trkpt lat="47.72869" lon="-3.36122">
        <ele>-6.1</ele>
        <time>2022-04-11T15:06:44Z</time>
      </trkpt>
      <trkpt lat="47.7287" lon="-3.36114">
        <ele>-4</ele>
        <time>2022-04-11T15:06:46Z</time>
      </trkpt>
      <trkpt lat="47.72872" lon="-3.36105">
        <ele>-1.1</ele>
        <time>2022-04-11T15:06:48Z</time>
      </trkpt>
      <trkpt lat="47.72875" lon="-3.36097">
        <ele>-0.6</ele>
        <time>2022-04-11T15:06:50Z</time>
      </trkpt>
      <trkpt lat="47.72878" lon="-3.3609">
        <ele>-0.4</ele>
        <time>2022-04-11T15:06:52Z</time>
      </trkpt>
      <trkpt lat="47.7288" lon="-3.36081">
        <ele>0.8</ele>
        <time>2022-04-11T15:06:54Z</time>
      </trkpt>
      <trkpt lat="47.72883" lon="-3.36073">
        <ele>3.5</ele>
        <time>2022-04-11T15:06:56Z</time>
      </trkpt>
      <trkpt lat="47.72887" lon="-3.36066">
        <ele>5.4</ele>
        <time>2022-04-11T15:06:58Z</time>
      </trkpt>
      <trkpt lat="47.72892" lon="-3.36058">
        <ele>6.9</ele>
        <time>2022-04-11T15:07:00Z</time>
      </trkpt>
      <trkpt lat="47.72897" lon="-3.36052">
        <ele>8.1</ele>
        <time>2022-04-11T15:07:02Z</time>
      </trkpt>
      <trkpt lat="47.72901" lon="-3.36046">
        <ele>9.5</ele>
        <time>2022-04-11T15:07:04Z</time>
      </trkpt>
      <trkpt lat="47.72905" lon="-3.3604">
        <ele>9.9</ele>
        <time>2022-04-11T15:07:06Z</time>
      </trkpt>
      <trkpt lat="47.72908" lon="-3.36034">
        <ele>10.9</ele>
        <time>2022-04-11T15:07:08Z</time>
      </trkpt>
      <trkpt lat="47.72911" lon="-3.36029">
        <ele>11.9</ele>
        <time>2022-04-11T15:07:10Z</time>
      </trkpt>
      <trkpt lat="47.72915" lon="-3.36023">
        <ele>13.7</ele>
        <time>2022-04-11T15:07:13Z</time>
      </trkpt>
      <trkpt lat="47.7292" lon="-3.36016">
        <ele>13.2</ele>
        <time>2022-04-11T15:07:16Z</time>
      </trkpt>
      <trkpt lat="47.72923" lon="-3.36012">
        <ele>11.3</ele>
        <time>2022-04-11T15:07:19Z</time>
      </trkpt>
      <trkpt lat="47.72928" lon="-3.36011">
        <ele>6.3</ele>
        <time>2022-04-11T15:07:22Z</time>
      </trkpt>
      <trkpt lat="47.72934" lon="-3.36011">
        <ele>4.2</ele>
        <time>2022-04-11T15:07:25Z</time>
      </trkpt>
      <trkpt lat="47.72938" lon="-3.36007">
        <ele>4.5</ele>
        <time>2022-04-11T15:07:27Z</time>
      </trkpt>
      <trkpt lat="47.72942" lon="-3.36001">
        <ele>3.4</ele>
        <time>2022-04-11T15:07:29Z</time>
      </trkpt>
      <trkpt lat="47.72946" lon="-3.35996">
        <ele>3.1</ele>
        <time>2022-04-11T15:07:31Z</time>
      </trkpt>
      <trkpt lat="47.72949" lon="-3.35991">
        <ele>2.9</ele>
        <time>2022-04-11T15:07:34Z</time>
      </trkpt>
      <trkpt lat="47.7295" lon="-3.35983">
        <ele>2.2</ele>
        <time>2022-04-11T15:07:37Z</time>
      </trkpt>
      <trkpt lat="47.72949" lon="-3.35975">
        <ele>2.2</ele>
        <time>2022-04-11T15:07:41Z</time>
      </trkpt>
      <trkpt lat="47.72949" lon="-3.35967">
        <ele>2.9</ele>
        <time>2022-04-11T15:07:45Z</time>
      </trkpt>
      <trkpt lat="47.72953" lon="-3.35962">
        <ele>2.5</ele>
        <time>2022-04-11T15:07:48Z</time>
      </trkpt>
      <trkpt lat="47.72959" lon="-3.35965">
        <ele>1</ele>
        <time>2022-04-11T15:07:52Z</time>
      </trkpt>
      <trkpt lat="47.72964" lon="-3.3597">
        <ele>0.7</ele>
        <time>2022-04-11T15:07:55Z</time>
      </trkpt>
      <trkpt lat="47.72968" lon="-3.35975">
        <ele>4</ele>
        <time>2022-04-11T15:07:57Z</time>
      </trkpt>
      <trkpt lat="47.72973" lon="-3.35979">
        <ele>-0.1</ele>
        <time>2022-04-11T15:07:59Z</time>
      </trkpt>
      <trkpt lat="47.72978" lon="-3.35985">
        <ele>-0.1</ele>
        <time>2022-04-11T15:08:02Z</time>
      </trkpt>
      <trkpt lat="47.72984" lon="-3.35989">
        <ele>-2.1</ele>
        <time>2022-04-11T15:08:05Z</time>
      </trkpt>
      <trkpt lat="47.7299" lon="-3.35995">
        <ele>-3.3</ele>
        <time>2022-04-11T15:08:08Z</time>
      </trkpt>
      <trkpt lat="47.72994" lon="-3.35997">
        <ele>-4.1</ele>
        <time>2022-04-11T15:08:10Z</time>
      </trkpt>
      <trkpt lat="47.73001" lon="-3.35997">
        <ele>-4</ele>
        <time>2022-04-11T15:08:13Z</time>
      </trkpt>
      <trkpt lat="47.73006" lon="-3.35994">
        <ele>-4.2</ele>
        <time>2022-04-11T15:08:15Z</time>
      </trkpt>
      <trkpt lat="47.73012" lon="-3.35989">
        <ele>-4.7</ele>
        <time>2022-04-11T15:08:17Z</time>
      </trkpt>
      <trkpt lat="47.73017" lon="-3.35984">
        <ele>-4.9</ele>
        <time>2022-04-11T15:08:19Z</time>
      </trkpt>
      <trkpt lat="47.73023" lon="-3.35979">
        <ele>-4.8</ele>
        <time>2022-04-11T15:08:21Z</time>
      </trkpt>
      <trkpt lat="47.73029" lon="-3.35973">
        <ele>-4.1</ele>
        <time>2022-04-11T15:08:23Z</time>
      </trkpt>
      <trkpt lat="47.73035" lon="-3.35971">
        <ele>-4.4</ele>
        <time>2022-04-11T15:08:25Z</time>
      </trkpt>
      <trkpt lat="47.73041" lon="-3.3597">
        <ele>-4.5</ele>
        <time>2022-04-11T15:08:27Z</time>
      </trkpt>
      <trkpt lat="47.73047" lon="-3.35968">
        <ele>-5.6</ele>
        <time>2022-04-11T15:08:29Z</time>
      </trkpt>
      <trkpt lat="47.73052" lon="-3.35965">
        <ele>-5.9</ele>
        <time>2022-04-11T15:08:31Z</time>
      </trkpt>
      <trkpt lat="47.73057" lon="-3.35963">
        <ele>-5.4</ele>
        <time>2022-04-11T15:08:33Z</time>
      </trkpt>
      <trkpt lat="47.73063" lon="-3.3596">
        <ele>-5.1</ele>
        <time>2022-04-11T15:08:35Z</time>
      </trkpt>
      <trkpt lat="47.73068" lon="-3.35959">
        <ele>-5.5</ele>
        <time>2022-04-11T15:08:37Z</time>
      </trkpt>
      <trkpt lat="47.73075" lon="-3.35959">
        <ele>-7.2</ele>
        <time>2022-04-11T15:08:40Z</time>
      </trkpt>
      <trkpt lat="47.73079" lon="-3.35963">
        <ele>-9.1</ele>
        <time>2022-04-11T15:08:43Z</time>
      </trkpt>
      <trkpt lat="47.73078" lon="-3.3597">
        <ele>-15.7</ele>
        <time>2022-04-11T15:08:47Z</time>
      </trkpt>
      <trkpt lat="47.7308" lon="-3.35978">
        <ele>-19.1</ele>
        <time>2022-04-11T15:08:51Z</time>
      </trkpt>
      <trkpt lat="47.73085" lon="-3.35986">
        <ele>-17.9</ele>
        <time>2022-04-11T15:08:53Z</time>
      </trkpt>
      <trkpt lat="47.73089" lon="-3.35996">
        <ele>-15.8</ele>
        <time>2022-04-11T15:08:55Z</time>
      </trkpt>
      <trkpt lat="47.73094" lon="-3.36005">
        <ele>-12.5</ele>
        <time>2022-04-11T15:08:57Z</time>
      </trkpt>
      <trkpt lat="47.73098" lon="-3.36015">
        <ele>-12.3</ele>
        <time>2022-04-11T15:08:59Z</time>
      </trkpt>
      <trkpt lat="47.731" lon="-3.36025">
        <ele>-11.5</ele>
        <time>2022-04-11T15:09:01Z</time>
      </trkpt>
      <trkpt lat="47.73102" lon="-3.36033">
        <ele>-10.7</ele>
        <time>2022-04-11T15:09:03Z</time>
      </trkpt>
      <trkpt lat="47.73104" lon="-3.36043">
        <ele>-9.5</ele>
        <time>2022-04-11T15:09:05Z</time>
      </trkpt>
      <trkpt lat="47.73105" lon="-3.36053">
        <ele>-8.9</ele>
        <time>2022-04-11T15:09:07Z</time>
      </trkpt>
      <trkpt lat="47.73106" lon="-3.36061">
        <ele>-9</ele>
        <time>2022-04-11T15:09:09Z</time>
      </trkpt>
      <trkpt lat="47.73107" lon="-3.3607">
        <ele>-8.4</ele>
        <time>2022-04-11T15:09:11Z</time>
      </trkpt>
      <trkpt lat="47.73108" lon="-3.36078">
        <ele>-7.5</ele>
        <time>2022-04-11T15:09:13Z</time>
      </trkpt>
      <trkpt lat="47.73109" lon="-3.36086">
        <ele>-7.4</ele>
        <time>2022-04-11T15:09:15Z</time>
      </trkpt>
      <trkpt lat="47.7311" lon="-3.36094">
        <ele>-8</ele>
        <time>2022-04-11T15:09:17Z</time>
      </trkpt>
      <trkpt lat="47.7311" lon="-3.36102">
        <ele>-8.1</ele>
        <time>2022-04-11T15:09:19Z</time>
      </trkpt>
      <trkpt lat="47.7311" lon="-3.36111">
        <ele>-8.1</ele>
        <time>2022-04-11T15:09:21Z</time>
      </trkpt>
      <trkpt lat="47.7311" lon="-3.36121">
        <ele>-7</ele>
        <time>2022-04-11T15:09:23Z</time>
      </trkpt>
      <trkpt lat="47.7311" lon="-3.3613">
        <ele>-7.3</ele>
        <time>2022-04-11T15:09:25Z</time>
      </trkpt>
      <trkpt lat="47.7311" lon="-3.36139">
        <ele>-6.9</ele>
        <time>2022-04-11T15:09:27Z</time>
      </trkpt>
      <trkpt lat="47.7311" lon="-3.36147">
        <ele>-6.9</ele>
        <time>2022-04-11T15:09:29Z</time>
      </trkpt>
      <trkpt lat="47.7311" lon="-3.36155">
        <ele>-7.1</ele>
        <time>2022-04-11T15:09:31Z</time>
      </trkpt>
      <trkpt lat="47.73112" lon="-3.36164">
        <ele>-6.7</ele>
        <time>2022-04-11T15:09:33Z</time>
      </trkpt>
      <trkpt lat="47.73113" lon="-3.36174">
        <ele>-7.1</ele>
        <time>2022-04-11T15:09:35Z</time>
      </trkpt>
      <trkpt lat="47.73114" lon="-3.36181">
        <ele>-7.1</ele>
        <time>2022-04-11T15:09:37Z</time>
      </trkpt>
      <trkpt lat="47.73115" lon="-3.36189">
        <ele>-7.1</ele>
        <time>2022-04-11T15:09:39Z</time>
      </trkpt>
      <trkpt lat="47.73117" lon="-3.36197">
        <ele>-6.6</ele>
        <time>2022-04-11T15:09:41Z</time>
      </trkpt>
      <trkpt lat="47.7312" lon="-3.36205">
        <ele>-6.1</ele>
        <time>2022-04-11T15:09:43Z</time>
      </trkpt>
      <trkpt lat="47.73124" lon="-3.36216">
        <ele>-5.8</ele>
        <time>2022-04-11T15:09:46Z</time>
      </trkpt>
      <trkpt lat="47.73127" lon="-3.36224">
        <ele>-6.3</ele>
        <time>2022-04-11T15:09:48Z</time>
      </trkpt>
      <trkpt lat="47.7313" lon="-3.36232">
        <ele>-6.1</ele>
        <time>2022-04-11T15:09:50Z</time>
      </trkpt>
      <trkpt lat="47.73134" lon="-3.36239">
        <ele>-6</ele>
        <time>2022-04-11T15:09:52Z</time>
      </trkpt>
      <trkpt lat="47.73135" lon="-3.36246">
        <ele>-5.6</ele>
        <time>2022-04-11T15:09:54Z</time>
      </trkpt>
      <trkpt lat="47.73138" lon="-3.36254">
        <ele>-3.7</ele>
        <time>2022-04-11T15:09:57Z</time>
      </trkpt>
      <trkpt lat="47.73141" lon="-3.36261">
        <ele>-5.5</ele>
        <time>2022-04-11T15:10:00Z</time>
      </trkpt>
      <trkpt lat="47.73143" lon="-3.36269">
        <ele>-6.2</ele>
        <time>2022-04-11T15:10:02Z</time>
      </trkpt>
      <trkpt lat="47.73146" lon="-3.36274">
        <ele>-7.9</ele>
        <time>2022-04-11T15:10:06Z</time>
      </trkpt>
      <trkpt lat="47.7315" lon="-3.36279">
        <ele>-8.2</ele>
        <time>2022-04-11T15:10:09Z</time>
      </trkpt>
      <trkpt lat="47.73154" lon="-3.36286">
        <ele>-9.3</ele>
        <time>2022-04-11T15:10:12Z</time>
      </trkpt>
      <trkpt lat="47.73158" lon="-3.3629">
        <ele>-11.2</ele>
        <time>2022-04-11T15:10:14Z</time>
      </trkpt>
      <trkpt lat="47.73162" lon="-3.36295">
        <ele>-12.8</ele>
        <time>2022-04-11T15:10:16Z</time>
      </trkpt>
      <trkpt lat="47.73166" lon="-3.36299">
        <ele>-14</ele>
        <time>2022-04-11T15:10:18Z</time>
      </trkpt>
      <trkpt lat="47.7317" lon="-3.36303">
        <ele>-15.5</ele>
        <time>2022-04-11T15:10:20Z</time>
      </trkpt>
      <trkpt lat="47.73174" lon="-3.36308">
        <ele>-16</ele>
        <time>2022-04-11T15:10:22Z</time>
      </trkpt>
      <trkpt lat="47.73177" lon="-3.36313">
        <ele>-16.4</ele>
        <time>2022-04-11T15:10:24Z</time>
      </trkpt>
      <trkpt lat="47.73182" lon="-3.36319">
        <ele>-17.3</ele>
        <time>2022-04-11T15:10:27Z</time>
      </trkpt>
      <trkpt lat="47.73186" lon="-3.36325">
        <ele>-18.2</ele>
        <time>2022-04-11T15:10:29Z</time>
      </trkpt>
      <trkpt lat="47.73189" lon="-3.3633">
        <ele>-19.7</ele>
        <time>2022-04-11T15:10:31Z</time>
      </trkpt>
      <trkpt lat="47.73191" lon="-3.36337">
        <ele>-21.6</ele>
        <time>2022-04-11T15:10:35Z</time>
      </trkpt>
      <trkpt lat="47.73197" lon="-3.36339">
        <ele>-24.3</ele>
        <time>2022-04-11T15:10:39Z</time>
      </trkpt>
      <trkpt lat="47.73203" lon="-3.36339">
        <ele>-27.7</ele>
        <time>2022-04-11T15:10:43Z</time>
      </trkpt>
      <trkpt lat="47.73208" lon="-3.36336">
        <ele>-28.5</ele>
        <time>2022-04-11T15:10:46Z</time>
      </trkpt>
      <trkpt lat="47.73213" lon="-3.36336">
        <ele>-31.1</ele>
        <time>2022-04-11T15:10:49Z</time>
      </trkpt>
      <trkpt lat="47.73218" lon="-3.36337">
        <ele>-34.3</ele>
        <time>2022-04-11T15:10:52Z</time>
      </trkpt>
      <trkpt lat="47.73224" lon="-3.36336">
        <ele>-37.7</ele>
        <time>2022-04-11T15:10:55Z</time>
      </trkpt>
      <trkpt lat="47.73229" lon="-3.36337">
        <ele>-39.7</ele>
        <time>2022-04-11T15:10:58Z</time>
      </trkpt>
      <trkpt lat="47.73235" lon="-3.3634">
        <ele>-39.4</ele>
        <time>2022-04-11T15:11:01Z</time>
      </trkpt>
      <trkpt lat="47.73242" lon="-3.3634">
        <ele>-40.7</ele>
        <time>2022-04-11T15:11:03Z</time>
      </trkpt>
      <trkpt lat="47.73247" lon="-3.36341">
        <ele>-42.7</ele>
        <time>2022-04-11T15:11:05Z</time>
      </trkpt>
      <trkpt lat="47.73252" lon="-3.36342">
        <ele>-45.6</ele>
        <time>2022-04-11T15:11:07Z</time>
      </trkpt>
      <trkpt lat="47.73257" lon="-3.36343">
        <ele>-49.7</ele>
        <time>2022-04-11T15:11:09Z</time>
      </trkpt>
      <trkpt lat="47.73262" lon="-3.36343">
        <ele>-54.5</ele>
        <time>2022-04-11T15:11:12Z</time>
      </trkpt>
      <trkpt lat="47.73268" lon="-3.36344">
        <ele>-56.7</ele>
        <time>2022-04-11T15:11:15Z</time>
      </trkpt>
      <trkpt lat="47.73272" lon="-3.36348">
        <ele>-58.7</ele>
        <time>2022-04-11T15:11:18Z</time>
      </trkpt>
      <trkpt lat="47.73272" lon="-3.36358">
        <ele>-60.2</ele>
        <time>2022-04-11T15:11:22Z</time>
      </trkpt>
      <trkpt lat="47.73273" lon="-3.36368">
        <ele>-60.3</ele>
        <time>2022-04-11T15:11:24Z</time>
      </trkpt>
      <trkpt lat="47.73275" lon="-3.36377">
        <ele>-58.9</ele>
        <time>2022-04-11T15:11:26Z</time>
      </trkpt>
      <trkpt lat="47.73278" lon="-3.36383">
        <ele>-58.9</ele>
        <time>2022-04-11T15:11:28Z</time>
      </trkpt>
      <trkpt lat="47.7328" lon="-3.36391">
        <ele>-55.4</ele>
        <time>2022-04-11T15:11:31Z</time>
      </trkpt>
      <trkpt lat="47.73287" lon="-3.36401">
        <ele>-57.1</ele>
        <time>2022-04-11T15:11:33Z</time>
      </trkpt>
      <trkpt lat="47.73292" lon="-3.36406">
        <ele>-57.4</ele>
        <time>2022-04-11T15:11:34Z</time>
      </trkpt>
      <trkpt lat="47.73299" lon="-3.36411">
        <ele>-58.2</ele>
        <time>2022-04-11T15:11:36Z</time>
      </trkpt>
      <trkpt lat="47.73301" lon="-3.36417">
        <ele>-59.2</ele>
        <time>2022-04-11T15:11:39Z</time>
      </trkpt>
      <trkpt lat="47.73304" lon="-3.36423">
        <ele>-58.7</ele>
        <time>2022-04-11T15:11:42Z</time>
      </trkpt>
      <trkpt lat="47.73306" lon="-3.3643">
        <ele>-59.3</ele>
        <time>2022-04-11T15:11:45Z</time>
      </trkpt>
      <trkpt lat="47.73309" lon="-3.36438">
        <ele>-61.2</ele>
        <time>2022-04-11T15:11:47Z</time>
      </trkpt>
      <trkpt lat="47.73314" lon="-3.36444">
        <ele>-61.4</ele>
        <time>2022-04-11T15:11:48Z</time>
      </trkpt>
      <trkpt lat="47.7332" lon="-3.36452">
        <ele>-61.1</ele>
        <time>2022-04-11T15:11:49Z</time>
      </trkpt>
      <trkpt lat="47.73326" lon="-3.36458">
        <ele>-61.3</ele>
        <time>2022-04-11T15:11:50Z</time>
      </trkpt>
      <trkpt lat="47.73331" lon="-3.36462">
        <ele>-60.9</ele>
        <time>2022-04-11T15:11:51Z</time>
      </trkpt>
      <trkpt lat="47.73336" lon="-3.36465">
        <ele>-60.5</ele>
        <time>2022-04-11T15:11:52Z</time>
      </trkpt>
      <trkpt lat="47.73342" lon="-3.36469">
        <ele>-61.4</ele>
        <time>2022-04-11T15:11:54Z</time>
      </trkpt>
      <trkpt lat="47.73348" lon="-3.36472">
        <ele>-62.5</ele>
        <time>2022-04-11T15:11:56Z</time>
      </trkpt>
      <trkpt lat="47.73354" lon="-3.36474">
        <ele>-63.7</ele>
        <time>2022-04-11T15:11:58Z</time>
      </trkpt>
      <trkpt lat="47.7336" lon="-3.36474">
        <ele>-64.9</ele>
        <time>2022-04-11T15:12:00Z</time>
      </trkpt>
      <trkpt lat="47.73364" lon="-3.36475">
        <ele>-66.6</ele>
        <time>2022-04-11T15:12:02Z</time>
      </trkpt>
      <trkpt lat="47.73365" lon="-3.36483">
        <ele>-74</ele>
        <time>2022-04-11T15:12:05Z</time>
      </trkpt>
      <trkpt lat="47.73363" lon="-3.36489">
        <ele>-75.9</ele>
        <time>2022-04-11T15:12:08Z</time>
      </trkpt>
      <trkpt lat="47.73367" lon="-3.36494">
        <ele>-72</ele>
        <time>2022-04-11T15:12:10Z</time>
      </trkpt>
      <trkpt lat="47.73372" lon="-3.36496">
        <ele>-66.5</ele>
        <time>2022-04-11T15:12:11Z</time>
      </trkpt>
      <trkpt lat="47.73381" lon="-3.36499">
        <ele>-61</ele>
        <time>2022-04-11T15:12:12Z</time>
      </trkpt>
      <trkpt lat="47.73391" lon="-3.36503">
        <ele>-56.9</ele>
        <time>2022-04-11T15:12:13Z</time>
      </trkpt>
      <trkpt lat="47.73401" lon="-3.36507">
        <ele>-51.8</ele>
        <time>2022-04-11T15:12:14Z</time>
      </trkpt>
      <trkpt lat="47.73412" lon="-3.36513">
        <ele>-47</ele>
        <time>2022-04-11T15:12:15Z</time>
      </trkpt>
      <trkpt lat="47.73421" lon="-3.3652">
        <ele>-42.6</ele>
        <time>2022-04-11T15:12:16Z</time>
      </trkpt>
      <trkpt lat="47.73427" lon="-3.36526">
        <ele>-31.8</ele>
        <time>2022-04-11T15:12:17Z</time>
      </trkpt>
      <trkpt lat="47.73435" lon="-3.36531">
        <ele>-31.8</ele>
        <time>2022-04-11T15:12:18Z</time>
      </trkpt>
      <trkpt lat="47.73442" lon="-3.36534">
        <ele>-31.2</ele>
        <time>2022-04-11T15:12:19Z</time>
      </trkpt>
      <trkpt lat="47.73449" lon="-3.36537">
        <ele>-30.8</ele>
        <time>2022-04-11T15:12:21Z</time>
      </trkpt>
      <trkpt lat="47.73453" lon="-3.36541">
        <ele>-30.4</ele>
        <time>2022-04-11T15:12:25Z</time>
      </trkpt>
      <trkpt lat="47.73459" lon="-3.36548">
        <ele>-18.8</ele>
        <time>2022-04-11T15:12:30Z</time>
      </trkpt>
      <trkpt lat="47.73463" lon="-3.36552">
        <ele>-18.6</ele>
        <time>2022-04-11T15:12:31Z</time>
      </trkpt>
      <trkpt lat="47.73467" lon="-3.36555">
        <ele>-16.5</ele>
        <time>2022-04-11T15:12:33Z</time>
      </trkpt>
      <trkpt lat="47.73471" lon="-3.36561">
        <ele>-16.4</ele>
        <time>2022-04-11T15:12:37Z</time>
      </trkpt>
      <trkpt lat="47.73471" lon="-3.36569">
        <ele>-16.1</ele>
        <time>2022-04-11T15:12:40Z</time>
      </trkpt>
      <trkpt lat="47.73474" lon="-3.36577">
        <ele>-16.7</ele>
        <time>2022-04-11T15:12:44Z</time>
      </trkpt>
      <trkpt lat="47.73477" lon="-3.36584">
        <ele>-18.5</ele>
        <time>2022-04-11T15:12:48Z</time>
      </trkpt>
      <trkpt lat="47.7348" lon="-3.3659">
        <ele>-20.1</ele>
        <time>2022-04-11T15:12:51Z</time>
      </trkpt>
      <trkpt lat="47.73483" lon="-3.36596">
        <ele>-20.5</ele>
        <time>2022-04-11T15:12:54Z</time>
      </trkpt>
      <trkpt lat="47.73486" lon="-3.36602">
        <ele>-22</ele>
        <time>2022-04-11T15:12:56Z</time>
      </trkpt>
      <trkpt lat="47.73488" lon="-3.36608">
        <ele>-23.5</ele>
        <time>2022-04-11T15:12:58Z</time>
      </trkpt>
      <trkpt lat="47.73491" lon="-3.36615">
        <ele>-25.5</ele>
        <time>2022-04-11T15:13:00Z</time>
      </trkpt>
      <trkpt lat="47.73494" lon="-3.36622">
        <ele>-27</ele>
        <time>2022-04-11T15:13:02Z</time>
      </trkpt>
      <trkpt lat="47.73497" lon="-3.36629">
        <ele>-26.5</ele>
        <time>2022-04-11T15:13:05Z</time>
      </trkpt>
      <trkpt lat="47.735" lon="-3.36637">
        <ele>-24.4</ele>
        <time>2022-04-11T15:13:08Z</time>
      </trkpt>
      <trkpt lat="47.73504" lon="-3.36642">
        <ele>-20</ele>
        <time>2022-04-11T15:13:10Z</time>
      </trkpt>
      <trkpt lat="47.7351" lon="-3.36647">
        <ele>-20.8</ele>
        <time>2022-04-11T15:13:12Z</time>
      </trkpt>
      <trkpt lat="47.73516" lon="-3.36652">
        <ele>-20.3</ele>
        <time>2022-04-11T15:13:14Z</time>
      </trkpt>
      <trkpt lat="47.73523" lon="-3.36654">
        <ele>-17.2</ele>
        <time>2022-04-11T15:13:16Z</time>
      </trkpt>
      <trkpt lat="47.73528" lon="-3.36655">
        <ele>-15.5</ele>
        <time>2022-04-11T15:13:18Z</time>
      </trkpt>
      <trkpt lat="47.73533" lon="-3.36657">
        <ele>-13.9</ele>
        <time>2022-04-11T15:13:20Z</time>
      </trkpt>
      <trkpt lat="47.73538" lon="-3.36657">
        <ele>-11.5</ele>
        <time>2022-04-11T15:13:22Z</time>
      </trkpt>
      <trkpt lat="47.73543" lon="-3.36654">
        <ele>-9.8</ele>
        <time>2022-04-11T15:13:24Z</time>
      </trkpt>
      <trkpt lat="47.73548" lon="-3.36653">
        <ele>-7.8</ele>
        <time>2022-04-11T15:13:27Z</time>
      </trkpt>
      <trkpt lat="47.73552" lon="-3.36659">
        <ele>-7.6</ele>
        <time>2022-04-11T15:13:30Z</time>
      </trkpt>
      <trkpt lat="47.73557" lon="-3.36664">
        <ele>-9.1</ele>
        <time>2022-04-11T15:13:33Z</time>
      </trkpt>
      <trkpt lat="47.73561" lon="-3.36668">
        <ele>-10.5</ele>
        <time>2022-04-11T15:13:35Z</time>
      </trkpt>
      <trkpt lat="47.73565" lon="-3.36671">
        <ele>-11.4</ele>
        <time>2022-04-11T15:13:37Z</time>
      </trkpt>
      <trkpt lat="47.7357" lon="-3.36674">
        <ele>-12</ele>
        <time>2022-04-11T15:13:39Z</time>
      </trkpt>
      <trkpt lat="47.73575" lon="-3.36677">
        <ele>-13.2</ele>
        <time>2022-04-11T15:13:41Z</time>
      </trkpt>
      <trkpt lat="47.73581" lon="-3.36678">
        <ele>-13.3</ele>
        <time>2022-04-11T15:13:43Z</time>
      </trkpt>
      <trkpt lat="47.73587" lon="-3.36683">
        <ele>-12.9</ele>
        <time>2022-04-11T15:13:45Z</time>
      </trkpt>
      <trkpt lat="47.73593" lon="-3.36688">
        <ele>-9.3</ele>
        <time>2022-04-11T15:13:47Z</time>
      </trkpt>
      <trkpt lat="47.73599" lon="-3.36691">
        <ele>-9.5</ele>
        <time>2022-04-11T15:13:49Z</time>
      </trkpt>
      <trkpt lat="47.73603" lon="-3.36694">
        <ele>-9.8</ele>
        <time>2022-04-11T15:13:51Z</time>
      </trkpt>
      <trkpt lat="47.73609" lon="-3.36694">
        <ele>-7.2</ele>
        <time>2022-04-11T15:13:54Z</time>
      </trkpt>
      <trkpt lat="47.73613" lon="-3.36696">
        <ele>-6.7</ele>
        <time>2022-04-11T15:13:56Z</time>
      </trkpt>
      <trkpt lat="47.73617" lon="-3.36698">
        <ele>-7.1</ele>
        <time>2022-04-11T15:13:58Z</time>
      </trkpt>
      <trkpt lat="47.73621" lon="-3.36701">
        <ele>-7.2</ele>
        <time>2022-04-11T15:14:00Z</time>
      </trkpt>
      <trkpt lat="47.73626" lon="-3.36704">
        <ele>-8.5</ele>
        <time>2022-04-11T15:14:02Z</time>
      </trkpt>
      <trkpt lat="47.73631" lon="-3.3671">
        <ele>-9.2</ele>
        <time>2022-04-11T15:14:05Z</time>
      </trkpt>
      <trkpt lat="47.73636" lon="-3.36713">
        <ele>-9.8</ele>
        <time>2022-04-11T15:14:07Z</time>
      </trkpt>
      <trkpt lat="47.73641" lon="-3.36717">
        <ele>-10.7</ele>
        <time>2022-04-11T15:14:09Z</time>
      </trkpt>
      <trkpt lat="47.73645" lon="-3.36721">
        <ele>-12.5</ele>
        <time>2022-04-11T15:14:11Z</time>
      </trkpt>
      <trkpt lat="47.73649" lon="-3.36725">
        <ele>-14.1</ele>
        <time>2022-04-11T15:14:14Z</time>
      </trkpt>
      <trkpt lat="47.73655" lon="-3.36728">
        <ele>-14.2</ele>
        <time>2022-04-11T15:14:17Z</time>
      </trkpt>
      <trkpt lat="47.7366" lon="-3.36731">
        <ele>-15.3</ele>
        <time>2022-04-11T15:14:19Z</time>
      </trkpt>
      <trkpt lat="47.73662" lon="-3.36737">
        <ele>-15.9</ele>
        <time>2022-04-11T15:14:21Z</time>
      </trkpt>
      <trkpt lat="47.73663" lon="-3.36744">
        <ele>-17.2</ele>
        <time>2022-04-11T15:14:23Z</time>
      </trkpt>
      <trkpt lat="47.73663" lon="-3.36752">
        <ele>-16.7</ele>
        <time>2022-04-11T15:14:25Z</time>
      </trkpt>
      <trkpt lat="47.73664" lon="-3.36761">
        <ele>-15</ele>
        <time>2022-04-11T15:14:27Z</time>
      </trkpt>
      <trkpt lat="47.73666" lon="-3.36771">
        <ele>-14.6</ele>
        <time>2022-04-11T15:14:29Z</time>
      </trkpt>
      <trkpt lat="47.73667" lon="-3.36782">
        <ele>-16.2</ele>
        <time>2022-04-11T15:14:31Z</time>
      </trkpt>
      <trkpt lat="47.73667" lon="-3.36792">
        <ele>-16.7</ele>
        <time>2022-04-11T15:14:33Z</time>
      </trkpt>
      <trkpt lat="47.73668" lon="-3.36804">
        <ele>-16.8</ele>
        <time>2022-04-11T15:14:35Z</time>
      </trkpt>
      <trkpt lat="47.73667" lon="-3.36817">
        <ele>-16.4</ele>
        <time>2022-04-11T15:14:37Z</time>
      </trkpt>
      <trkpt lat="47.73667" lon="-3.36829">
        <ele>-16.4</ele>
        <time>2022-04-11T15:14:39Z</time>
      </trkpt>
      <trkpt lat="47.73666" lon="-3.36838">
        <ele>-15.8</ele>
        <time>2022-04-11T15:14:41Z</time>
      </trkpt>
      <trkpt lat="47.73666" lon="-3.36848">
        <ele>-16.5</ele>
        <time>2022-04-11T15:14:43Z</time>
      </trkpt>
      <trkpt lat="47.73665" lon="-3.36858">
        <ele>-18.6</ele>
        <time>2022-04-11T15:14:45Z</time>
      </trkpt>
      <trkpt lat="47.73665" lon="-3.36866">
        <ele>-19.7</ele>
        <time>2022-04-11T15:14:47Z</time>
      </trkpt>
      <trkpt lat="47.73665" lon="-3.36875">
        <ele>-19</ele>
        <time>2022-04-11T15:14:49Z</time>
      </trkpt>
      <trkpt lat="47.73664" lon="-3.36884">
        <ele>-19.2</ele>
        <time>2022-04-11T15:14:51Z</time>
      </trkpt>
      <trkpt lat="47.73663" lon="-3.36894">
        <ele>-19.5</ele>
        <time>2022-04-11T15:14:53Z</time>
      </trkpt>
      <trkpt lat="47.73663" lon="-3.36903">
        <ele>-20</ele>
        <time>2022-04-11T15:14:55Z</time>
      </trkpt>
      <trkpt lat="47.73663" lon="-3.36911">
        <ele>-22.8</ele>
        <time>2022-04-11T15:14:58Z</time>
      </trkpt>
      <trkpt lat="47.73665" lon="-3.3692">
        <ele>-25.2</ele>
        <time>2022-04-11T15:15:01Z</time>
      </trkpt>
      <trkpt lat="47.73666" lon="-3.36929">
        <ele>-25</ele>
        <time>2022-04-11T15:15:03Z</time>
      </trkpt>
      <trkpt lat="47.73665" lon="-3.36938">
        <ele>-25.1</ele>
        <time>2022-04-11T15:15:05Z</time>
      </trkpt>
      <trkpt lat="47.73665" lon="-3.36945">
        <ele>-25.6</ele>
        <time>2022-04-11T15:15:07Z</time>
      </trkpt>
      <trkpt lat="47.73665" lon="-3.36953">
        <ele>-25.8</ele>
        <time>2022-04-11T15:15:09Z</time>
      </trkpt>
      <trkpt lat="47.73666" lon="-3.36962">
        <ele>-26.1</ele>
        <time>2022-04-11T15:15:11Z</time>
      </trkpt>
      <trkpt lat="47.73665" lon="-3.36969">
        <ele>-27.5</ele>
        <time>2022-04-11T15:15:13Z</time>
      </trkpt>
      <trkpt lat="47.73664" lon="-3.36976">
        <ele>-24.1</ele>
        <time>2022-04-11T15:15:15Z</time>
      </trkpt>
      <trkpt lat="47.73662" lon="-3.36984">
        <ele>-22.9</ele>
        <time>2022-04-11T15:15:17Z</time>
      </trkpt>
      <trkpt lat="47.73661" lon="-3.36992">
        <ele>-23.4</ele>
        <time>2022-04-11T15:15:19Z</time>
      </trkpt>
      <trkpt lat="47.73662" lon="-3.36999">
        <ele>-22.8</ele>
        <time>2022-04-11T15:15:21Z</time>
      </trkpt>
      <trkpt lat="47.73662" lon="-3.37009">
        <ele>-22.3</ele>
        <time>2022-04-11T15:15:23Z</time>
      </trkpt>
      <trkpt lat="47.73663" lon="-3.37018">
        <ele>-22.3</ele>
        <time>2022-04-11T15:15:25Z</time>
      </trkpt>
      <trkpt lat="47.73663" lon="-3.37028">
        <ele>-21.9</ele>
        <time>2022-04-11T15:15:27Z</time>
      </trkpt>
      <trkpt lat="47.73664" lon="-3.37036">
        <ele>-22.2</ele>
        <time>2022-04-11T15:15:29Z</time>
      </trkpt>
      <trkpt lat="47.73663" lon="-3.37044">
        <ele>-21.7</ele>
        <time>2022-04-11T15:15:31Z</time>
      </trkpt>
      <trkpt lat="47.73664" lon="-3.3705">
        <ele>-21.6</ele>
        <time>2022-04-11T15:15:33Z</time>
      </trkpt>
      <trkpt lat="47.73666" lon="-3.37057">
        <ele>-21.7</ele>
        <time>2022-04-11T15:15:35Z</time>
      </trkpt>
      <trkpt lat="47.73666" lon="-3.37065">
        <ele>-21.9</ele>
        <time>2022-04-11T15:15:39Z</time>
      </trkpt>
      <trkpt lat="47.73664" lon="-3.3707">
        <ele>-20.9</ele>
        <time>2022-04-11T15:15:42Z</time>
      </trkpt>
      <trkpt lat="47.73661" lon="-3.37076">
        <ele>-16.4</ele>
        <time>2022-04-11T15:15:47Z</time>
      </trkpt>
      <trkpt lat="47.73657" lon="-3.3708">
        <ele>-17.4</ele>
        <time>2022-04-11T15:15:52Z</time>
      </trkpt>
      <trkpt lat="47.73652" lon="-3.37083">
        <ele>-18.1</ele>
        <time>2022-04-11T15:15:57Z</time>
      </trkpt>
      <trkpt lat="47.73648" lon="-3.37087">
        <ele>-18.1</ele>
        <time>2022-04-11T15:16:05Z</time>
      </trkpt>
      <trkpt lat="47.73646" lon="-3.37093">
        <ele>-16.9</ele>
        <time>2022-04-11T15:17:15Z</time>
      </trkpt>
      <trkpt lat="47.73644" lon="-3.371">
        <ele>-13.1</ele>
        <time>2022-04-11T15:17:31Z</time>
      </trkpt>
      <trkpt lat="47.73639" lon="-3.37104">
        <ele>-5.6</ele>
        <time>2022-04-11T15:17:40Z</time>
      </trkpt>
    </trkseg>
  </trk>
</gpx>